[[{"header":{"parameterUnit":"m.s-1","parameterCategory":1,"la1":30.6,"la2":28.766,"lo1":-90.7593,"lo2":-88.6598,"dy":0.0162,"dx":0.0183,"nx":116,"ny":114,"refTime":"2023-06-07T06:00:00:Z","depth":0,"parameterNumber":2,"parameterNumberName":"U-component_of_WINDS"},"data":[0.0,0.0,0.0,0.0,0.0,0.0,0.0,0.0,0.0,0.0,0.0,0.0,0.0,0.0,0.0,0.0,0.0,0.0,0.0,0.0,0.0,0.0,0.0,0.0,0.0,0.0,0.0,0.0,0.0,0.0,0.0,0.0,0.0,0.0,0.0,0.0,0.0,0.0,0.0,0.0,0.0,0.0,0.0,0.0,0.0,0.0,0.0,0.0,0.0,0.0,0.0,0.0,0.0,0.0,0.0,0.0,0.0,0.0,0.0,0.0,0.0,0.0,0.0,0.0,0.0,0.0,0.0,0.0,0.0,0.0,0.0,0.0,0.0,0.0,0.0,0.0,0.0,0.0,0.0,0.0,0.0,0.0,0.0,0.0,0.0,0.0,0.0,0.0,0.0,0.0,0.0,0.0,0.0,0.0,0.0,0.0,0.0,0.0,0.0,0.0,0.0,0.0,0.0,0.0,0.0,0.0,0.0,0.0,0.0,0.0,0.0,0.0,0.0,0.0,0.0,0.0,0.0,0.0,0.0,0.0,0.0,0.0,0.0,0.0,0.0,0.0,0.0,0.0,0.0,0.0,0.0,0.0,0.0,0.0,0.0,0.0,0.0,0.0,0.0,0.0,0.0,0.0,0.0,0.0,0.0,0.0,0.0,0.0,0.0,0.0,0.0,0.0,0.0,0.0,0.0,0.0,0.0,0.0,0.0,0.0,0.0,0.0,0.0,0.0,0.0,0.0,0.0,0.0,0.0,0.0,0.0,0.0,0.0,0.0,0.0,0.0,0.0,0.0,0.0,0.0,0.0,0.0,0.0,0.0,0.0,0.0,0.0,0.0,0.0,0.0,0.0,0.0,0.0,0.0,0.0,0.0,0.0,0.0,0.0,0.0,0.0,0.0,0.0,0.0,0.0,0.0,0.0,0.0,0.0,0.0,0.0,0.0,0.0,0.0,0.0,0.0,0.0,0.0,0.0,0.0,0.0,0.0,0.0,0.0,0.0,0.0,0.0,0.0,0.0,0.0,0.0,0.0,0.0,0.0,0.0,0.0,0.0,0.0,0.0,0.0,0.0,0.0,0.0,0.0,0.0,0.0,0.0,0.0,0.0,0.0,0.0,0.0,0.0,0.0,0.0,0.0,0.0,0.0,0.0,0.0,0.0,0.0,0.0,0.0,0.0,0.0,0.0,0.0,0.0,0.0,0.0,0.0,0.0,0.0,0.0,0.0,0.0,0.0,0.0,0.0,0.0,0.0,0.0,0.0,0.0,0.0,0.0,0.0,0.0,0.0,0.0,0.0,0.0,0.0,0.0,0.0,0.0,0.0,0.0,0.0,0.0,0.0,0.0,0.0,0.0,0.0,0.0,0.0,0.0,0.0,0.0,0.0,0.0,0.0,0.0,0.0,0.0,0.0,0.0,0.0,0.0,0.0,0.0,0.0,0.0,0.0,0.0,0.0,0.0,0.0,0.0,0.0,0.0,0.0,0.0,0.0,0.0,0.0,0.0,0.0,0.0,0.0,0.0,0.0,0.0,0.0,0.0,0.0,0.0,0.0,0.0,0.0,0.0,0.0,0.0,0.0,0.0,0.0,0.0,0.0,0.0,0.0,0.0,0.0,0.0,0.0,0.0,0.0,0.0,0.0,0.0,0.0,0.0,0.0,0.0,0.0,0.0,0.0,0.0,0.0,0.0,0.0,0.0,0.0,0.0,0.0,0.0,0.0,0.0,0.0,0.0,0.0,0.0,0.0,0.0,0.0,0.0,0.0,0.0,0.0,0.0,0.0,0.0,0.0,0.0,0.0,0.0,0.0,0.0,0.0,0.0,0.0,0.0,0.0,0.0,0.0,0.0,0.0,0.0,0.0,0.0,0.0,0.0,0.0,0.0,0.0,0.0,0.0,0.0,0.0,0.0,0.0,0.0,0.0,0.0,0.0,0.0,0.0,0.0,0.0,0.0,0.0,0.0,0.0,0.0,0.0,0.0,0.0,0.0,0.0,0.0,0.0,0.0,0.0,0.0,0.0,0.0,0.0,0.0,0.0,0.0,0.0,0.0,0.0,0.0,0.0,0.0,0.0,0.0,0.0,0.0,0.0,0.0,0.0,0.0,0.0,0.0,0.0,0.0,0.0,0.0,0.0,0.0,0.0,0.0,0.0,0.0,0.0,0.0,0.0,0.0,0.0,0.0,0.0,0.0,0.0,0.0,0.0,0.0,0.0,0.0,0.0,0.0,0.0,0.0,0.0,0.0,0.0,0.0,0.0,0.0,0.0,0.0,0.0,0.0,0.0,0.0,0.0,0.0,0.0,0.0,0.0,0.0,0.0,0.0,0.0,0.0,0.0,0.0,0.0,0.0,0.0,0.0,0.0,0.0,0.0,0.0,0.0,0.0,0.0,0.0,0.0,0.0,0.0,0.0,0.0,0.0,0.0,0.0,0.0,0.0,0.0,0.0,0.0,0.0,0.0,0.0,0.0,0.0,0.0,0.0,0.0,0.0,0.0,0.0,0.0,0.0,0.0,0.0,0.0,0.0,0.0,0.0,0.0,0.0,0.0,0.0,0.0,0.0,0.0,0.0,0.0,0.0,0.0,0.0,0.0,0.0,0.0,0.0,0.0,0.0,0.0,0.0,0.0,0.0,0.0,0.0,0.0,0.0,0.0,0.0,0.0,0.0,0.0,0.0,0.0,0.0,0.0,0.0,0.0,0.0,0.0,0.0,0.0,0.0,0.0,0.0,0.0,0.0,0.0,0.0,0.0,0.0,0.0,0.0,0.0,0.0,0.0,0.0,0.0,0.0,0.0,0.0,0.0,0.0,0.0,0.0,0.0,0.0,0.0,0.0,0.0,0.0,0.0,0.0,0.0,0.0,0.0,0.0,0.0,0.0,0.0,0.0,0.0,0.0,0.0,0.0,0.0,0.0,0.0,0.0,0.0,0.0,0.0,0.0,0.0,0.0,0.0,0.0,0.0,0.0,0.0,0.0,0.0,0.0,0.0,0.0,0.0,0.0,0.0,0.0,0.0,0.0,0.0,0.0,0.0,0.0,0.0,0.0,0.0,0.0,0.0,0.0,0.0,0.0,0.0,0.0,0.0,0.0,0.0,0.0,0.0,0.0,0.0,0.0,0.0,0.0,0.0,0.0,0.0,0.0,0.0,0.0,0.0,0.0,0.0,0.0,0.0,0.0,0.0,0.0,0.0,0.0,0.0,0.0,0.0,0.0,0.0,0.0,0.0,0.0,0.0,0.0,0.0,0.0,0.0,0.0,0.0,0.0,0.0,0.0,0.0,0.0,0.0,0.0,0.0,0.0,0.0,0.0,0.0,0.0,0.0,0.0,0.0,0.0,0.0,0.0,0.0,0.0,0.0,0.0,0.0,0.0,0.0,0.0,0.0,0.0,0.0,0.0,0.0,0.0,0.0,0.0,0.0,0.0,0.0,0.0,0.0,0.0,0.0,0.0,0.0,0.0,0.0,0.0,0.0,0.0,0.0,0.0,0.0,0.0,0.0,0.0,0.0,0.0,0.0,0.0,0.0,0.0,0.0,0.0,0.0,0.0,0.0,0.0,0.0,0.0,0.0,0.0,0.0,0.0,0.0,0.0,0.0,0.0,0.0,0.0,0.0,0.0,0.0,0.0,0.0,0.0,0.0,0.0,0.0,0.0,0.0,0.0,0.0,0.0,0.0,0.0,0.0,0.0,0.0,0.0,0.0,0.0,0.0,0.0,0.0,0.0,0.0,0.0,0.0,0.0,0.0,0.0,0.0,0.0,0.0,0.0,0.0,0.0,0.0,0.0,0.0,0.0,0.0,0.0,0.0,0.0,0.0,0.0,0.0,0.0,0.0,0.0,0.0,0.0,0.0,0.0,0.0,0.0,0.0,0.0,0.0,0.0,0.0,0.0,0.0,0.0,0.0,0.0,0.0,0.0,0.0,0.0,0.0,0.0,0.0,0.0,0.0,0.0,0.0,0.0,0.0,0.0,0.0,0.0,0.0,0.0,0.0,0.0,0.0,0.0,0.0,0.0,0.0,0.0,0.0,0.0,0.0,0.0,0.0,0.0,0.0,0.0,0.0,0.0,0.0,0.0,0.0,0.0,0.0,0.0,0.0,0.0,0.0,0.0,0.0,0.0,0.0,0.0,0.0,0.0,0.0,0.0,0.0,0.0,0.0,0.0,0.0,0.0,0.0,0.0,0.0,0.0,0.0,0.0,0.0,0.0,0.0,0.0,0.0,0.0,0.0,0.0,0.0,0.0,0.0,0.0,0.0,0.0,0.0,0.0,0.0,0.0,0.0,0.0,0.0,0.0,0.0,0.0,0.0,0.0,0.0,0.0,0.0,0.0,0.0,0.0,0.0,0.0,0.0,0.0,0.0,0.0,0.0,0.0,0.0,0.0,0.0,0.0,0.0,0.0,0.0,0.0,0.0,0.0,0.0,0.0,0.0,0.0,0.0,0.0,0.0,0.0,0.0,0.0,0.0,0.0,0.0,0.0,0.0,0.0,0.0,0.0,0.0,0.0,0.0,0.0,0.0,0.0,0.0,0.0,0.0,0.0,0.0,0.0,0.0,0.0,0.0,0.0,0.0,0.0,0.0,0.0,0.0,0.0,0.0,0.0,0.0,0.0,0.0,0.0,0.0,0.0,0.0,0.0,0.0,0.0,0.0,0.0,0.0,0.0,0.0,0.0,0.0,0.0,0.0,0.0,0.0,0.0,0.0,0.0,0.0,0.0,0.0,0.0,0.0,0.0,0.0,0.0,0.0,0.0,0.0,0.0,0.0,0.0,0.0,0.0,0.0,0.0,0.0,0.0,0.0,0.0,0.0,0.0,0.0,0.0,0.0,0.0,0.0,0.0,0.0,0.0,0.0,0.0,0.0,0.0,0.0,0.0,0.0,0.0,0.0,0.0,0.0,0.0,0.0,0.0,0.0,0.0,0.0,0.0,0.0,0.0,0.0,0.0,0.0,0.0,0.0,0.0,0.0,0.0,0.0,0.0,0.0,0.0,0.0,0.0,0.0,0.0,0.0,0.0,0.0,0.0,0.0,0.0,0.0,0.0,0.0,0.0,0.0,0.0,0.0,0.0,0.0,0.0,0.0,0.0,0.0,0.0,0.0,0.0,0.0,0.0,0.0,0.0,0.0,0.0,0.0,0.0,0.0,0.0,0.0,0.0,0.0,0.0,0.0,0.0,0.0,0.0,0.0,0.0,0.0,0.0,0.0,0.0,0.0,0.0,0.0,0.0,0.0,0.0,0.0,0.0,0.0,0.0,0.0,0.0,0.0,0.0,0.0,0.0,0.0,0.0,0.0,0.0,0.0,0.0,0.0,0.0,0.0,0.0,0.0,0.0,0.0,0.0,0.0,0.0,0.0,0.0,0.0,0.0,0.0,0.0,0.0,0.0,0.0,0.0,0.0,0.0,0.0,0.0,0.0,0.0,0.0,0.0,0.0,0.0,0.0,0.0,0.0,0.0,0.0,0.0,0.0,0.0,0.0,0.0,0.0,0.0,0.0,0.0,0.0,0.0,0.0,0.0,0.0,0.0,0.0,0.0,0.0,0.0,0.0,0.0,0.0,0.0,0.0,0.0,0.0,0.0,0.0,0.0,0.0,0.0,0.0,0.0,0.0,0.0,0.0,0.0,0.0,0.0,0.0,0.0,0.0,0.0,0.0,0.0,0.0,0.0,0.0,0.0,0.0,0.0,0.0,0.0,0.0,0.0,0.0,0.0,0.0,0.0,0.0,0.0,0.0,0.0,0.0,0.0,0.0,0.0,0.0,0.0,0.0,0.0,0.0,0.0,0.0,0.0,0.0,0.0,0.0,0.0,0.0,0.0,0.0,0.0,0.0,0.0,0.0,0.0,0.0,0.0,0.0,0.0,0.0,0.0,0.0,0.0,0.0,0.0,0.0,0.0,0.0,0.0,0.0,0.0,0.0,0.0,0.0,0.0,0.0,0.0,0.0,0.0,0.0,0.0,0.0,0.0,0.0,0.0,0.0,0.0,0.0,0.0,0.0,0.0,0.0,0.0,0.0,0.0,0.0,0.0,0.0,0.0,0.0,0.0,0.0,0.0,0.0,0.0,0.0,0.0,0.0,0.0,0.0,-3.7433,-3.6953,0.0,0.0,0.0,0.0,0.0,0.0,0.0,0.0,0.0,0.0,0.0,0.0,0.0,0.0,0.0,0.0,0.0,0.0,0.0,0.0,0.0,0.0,0.0,0.0,0.0,0.0,0.0,0.0,0.0,0.0,0.0,0.0,0.0,0.0,0.0,0.0,0.0,0.0,-3.5412,-3.5594,-3.5622,-3.5622,-3.5622,-3.5622,0.0,0.0,0.0,0.0,0.0,0.0,0.0,0.0,0.0,0.0,0.0,0.0,0.0,0.0,0.0,0.0,0.0,0.0,0.0,0.0,0.0,0.0,0.0,0.0,0.0,0.0,0.0,0.0,0.0,0.0,0.0,0.0,0.0,0.0,0.0,0.0,0.0,0.0,0.0,0.0,0.0,0.0,0.0,0.0,0.0,0.0,0.0,0.0,0.0,0.0,0.0,0.0,0.0,0.0,0.0,0.0,0.0,0.0,0.0,0.0,0.0,0.0,0.0,0.0,0.0,0.0,0.0,0.0,0.0,0.0,-3.8112,-3.7831,0.0,0.0,0.0,0.0,0.0,0.0,0.0,0.0,0.0,0.0,0.0,0.0,0.0,0.0,0.0,0.0,0.0,0.0,0.0,0.0,0.0,0.0,0.0,0.0,-2.955,-3.0299,-3.0905,-3.1551,0.0,0.0,0.0,0.0,0.0,0.0,0.0,-3.4134,-3.4626,-3.5071,-3.5274,-3.5458,-3.5622,-3.5577,-3.5577,-3.5577,-3.5577,0.0,0.0,0.0,0.0,0.0,0.0,0.0,0.0,0.0,0.0,0.0,0.0,0.0,0.0,0.0,0.0,0.0,0.0,0.0,0.0,0.0,0.0,0.0,0.0,0.0,0.0,0.0,0.0,0.0,0.0,0.0,0.0,0.0,0.0,0.0,0.0,0.0,0.0,0.0,0.0,0.0,0.0,0.0,0.0,0.0,0.0,0.0,0.0,0.0,0.0,0.0,0.0,0.0,0.0,0.0,0.0,0.0,0.0,0.0,0.0,0.0,0.0,0.0,-3.9653,-3.9653,-3.9653,-3.9653,-3.9653,-3.962,-3.9023,-3.8957,-3.9272,-3.9272,0.0,0.0,0.0,0.0,0.0,0.0,0.0,0.0,0.0,0.0,0.0,0.0,0.0,0.0,0.0,0.0,0.0,0.0,0.0,0.0,0.0,-2.8488,-2.9058,-3.0304,-3.0385,-3.0899,0.0,0.0,0.0,0.0,0.0,0.0,-3.2413,-3.3055,-3.3355,-3.3303,-3.4366,-3.5131,-3.5622,-3.552,-3.5537,-3.5537,-3.5594,-3.5622,-3.5622,0.0,0.0,0.0,0.0,0.0,0.0,0.0,0.0,0.0,0.0,0.0,0.0,0.0,0.0,0.0,0.0,0.0,0.0,0.0,0.0,0.0,0.0,0.0,0.0,0.0,0.0,0.0,0.0,0.0,0.0,0.0,0.0,0.0,0.0,0.0,0.0,0.0,0.0,0.0,0.0,0.0,-3.7515,-3.7696,0.0,0.0,0.0,0.0,0.0,0.0,0.0,0.0,0.0,0.0,0.0,0.0,0.0,-3.9388,-4.0233,-4.015,-4.0448,-4.1127,-4.1127,-4.1127,-4.1127,-4.1127,-4.1127,-4.1127,-4.1028,0.0,-3.9272,-3.9272,0.0,0.0,0.0,0.0,0.0,0.0,0.0,0.0,0.0,0.0,0.0,0.0,0.0,0.0,0.0,0.0,0.0,0.0,0.0,0.0,0.0,-2.8473,-2.9316,-3.0216,-3.0646,-3.1259,-3.213,-3.215,0.0,0.0,0.0,-3.2191,-3.2453,-3.3093,-3.37,-3.4301,-3.4927,-3.5287,-3.5412,-3.5492,-3.5492,-3.5492,-3.5475,-3.5412,-3.5412,-3.552,0.0,0.0,0.0,0.0,0.0,0.0,0.0,0.0,0.0,0.0,0.0,0.0,0.0,0.0,0.0,0.0,0.0,0.0,0.0,0.0,0.0,0.0,0.0,0.0,0.0,0.0,0.0,0.0,0.0,0.0,0.0,0.0,0.0,0.0,0.0,0.0,0.0,0.0,0.0,-3.7635,-3.8221,-3.8774,-3.8689,-3.8772,0.0,0.0,0.0,0.0,0.0,0.0,0.0,0.0,0.0,-4.0464,-4.0481,-4.063,-4.0961,-4.0961,-4.111,-4.1409,-4.1409,-4.1409,-4.1409,-4.1409,-4.1409,-4.1409,-4.1409,-4.1061,-4.0481,-4.0481,-4.0481,-4.0481,0.0,0.0,0.0,0.0,-4.0481,-4.0481,0.0,0.0,0.0,0.0,0.0,0.0,0.0,0.0,0.0,0.0,0.0,0.0,-2.7565,-2.8617,-2.9572,-3.0195,-3.0906,-3.1527,-3.2104,-3.2079,0.0,0.0,-3.194,-3.2094,-3.2398,-3.2949,-3.3783,-3.4947,-3.5302,-3.5525,-3.5622,-3.5917,-3.6047,-3.6047,-3.5706,-3.5522,-3.5354,-3.5446,-3.5446,-3.5383,0.0,0.0,0.0,0.0,0.0,0.0,0.0,0.0,0.0,0.0,0.0,0.0,0.0,0.0,0.0,0.0,0.0,0.0,0.0,0.0,0.0,0.0,0.0,0.0,0.0,0.0,0.0,0.0,0.0,0.0,0.0,0.0,0.0,0.0,0.0,0.0,0.0,-3.8463,-3.8868,-3.9575,-3.9537,-3.9484,0.0,0.0,0.0,0.0,0.0,0.0,-4.0613,-4.0647,-4.0961,-4.1674,-4.169,-4.1872,-4.2253,-4.2253,-4.2353,-4.2535,-4.2535,-4.2535,-4.2535,-4.2535,-4.2535,-4.2535,-4.2535,-4.2535,-4.2469,-4.1723,-4.1409,-4.1409,-4.1409,-4.1409,-4.1409,-4.1409,-4.1409,-4.1409,0.0,0.0,0.0,0.0,0.0,0.0,0.0,0.0,0.0,0.0,0.0,-2.7565,-2.8122,-2.8782,-2.9521,-3.0314,-3.0777,-3.1283,-3.1951,-3.1697,-3.1597,-3.1784,-3.1784,-3.1841,-3.1841,-3.1996,-3.2672,-3.3949,-3.4816,-3.5646,-3.6535,-3.7259,-3.7578,-3.7545,-3.6743,-3.6038,-3.5492,-3.5354,-3.5291,-3.5245,-3.4642,0.0,0.0,0.0,0.0,0.0,0.0,0.0,0.0,0.0,0.0,0.0,0.0,0.0,0.0,0.0,0.0,0.0,0.0,0.0,0.0,0.0,0.0,0.0,0.0,0.0,0.0,0.0,0.0,0.0,0.0,0.0,0.0,0.0,0.0,0.0,0.0,0.0,0.0,-3.9484,-3.9379,0.0,0.0,0.0,0.0,-4.0387,-4.0928,-4.1326,-4.1359,-4.1359,-4.1707,-4.2435,-4.2452,-4.3131,-4.4506,-4.4522,-4.487,-4.5566,-4.5566,-4.5566,-4.5566,-4.5566,-4.5566,-4.5566,-4.5566,-4.5566,-4.5351,-4.2568,-4.1409,-4.1409,-4.1409,-4.1409,-4.1409,-4.1409,-4.1409,-4.1409,0.0,0.0,0.0,0.0,0.0,0.0,0.0,0.0,-2.6322,-2.5673,-2.6558,-2.7078,-2.6467,-2.8157,-2.9448,-2.972,-3.0689,-3.1483,-3.1981,-3.1883,-3.1769,-3.1597,-3.1597,-3.1811,-3.2287,-3.2869,-3.3529,-3.4229,-3.5129,-3.5626,-3.5695,-3.606,-3.6437,-3.6748,-3.6383,-3.6372,-3.6616,-3.5756,-3.5446,-3.5383,-3.4849,-3.466,0.0,0.0,0.0,0.0,0.0,0.0,0.0,0.0,0.0,0.0,0.0,0.0,0.0,0.0,0.0,0.0,0.0,0.0,0.0,0.0,0.0,0.0,0.0,0.0,0.0,0.0,0.0,0.0,0.0,0.0,0.0,0.0,0.0,0.0,0.0,0.0,0.0,-4.0043,-4.0038,0.0,-4.0613,-4.0895,-4.1243,-4.1723,-4.1988,-4.2535,-4.3462,-4.3512,-4.386,-4.4605,-4.4622,-4.487,-4.5384,-4.54,-4.5533,-4.5798,-4.5798,-4.5798,-4.5798,-4.5798,-4.5798,-4.5798,-4.5798,-4.5798,-4.5715,-4.4671,-4.4224,-4.4224,-4.4224,-4.4224,-4.4224,-4.4224,-4.4224,-4.4224,0.0,0.0,0.0,0.0,0.0,0.0,0.0,0.0,-2.5701,-2.4991,-2.5932,-2.6453,-2.5837,-2.77,-2.9094,-2.9342,-3.0547,-3.1437,-3.1567,-3.1495,-3.1379,-3.1161,-3.1409,-3.1845,-3.2609,-3.3152,-3.3774,-3.4455,-3.5355,-3.5744,-3.5647,-3.6054,-3.643,-3.6815,-3.6464,-3.669,-3.735,-3.632,-3.5964,-3.5997,-3.5481,-3.5279,-3.5336,0.0,0.0,0.0,0.0,0.0,0.0,0.0,0.0,0.0,0.0,0.0,0.0,0.0,0.0,0.0,0.0,0.0,0.0,0.0,0.0,0.0,0.0,0.0,0.0,0.0,0.0,0.0,0.0,0.0,0.0,0.0,0.0,0.0,0.0,-3.9237,-3.9835,-4.0315,-4.0812,-4.1276,-4.174,-4.222,-4.2717,-4.3214,-4.3479,-4.4042,-4.5003,-4.5052,-4.5516,-4.651,-4.6527,-4.6775,-4.7272,-4.7272,-4.7272,-4.7272,-4.7023,-4.6908,-4.6891,-4.6659,-4.6527,-4.6527,-4.6527,-4.6527,-4.6527,-4.6527,-4.6527,-4.6493,-4.598,-4.5798,-4.5798,-4.5798,-4.5798,-4.5798,0.0,0.0,0.0,0.0,0.0,0.0,0.0,-2.5258,-2.5048,-2.5356,-2.5398,-2.5687,-2.6336,-2.7467,-2.8439,-2.9178,-3.0319,-3.0896,-3.0777,-3.0584,-3.0524,-3.0524,-3.1176,-3.1912,-3.2645,-3.2764,-3.3332,-3.4593,-3.5462,-3.6068,-3.6473,-3.7313,-3.7748,-3.7732,-3.7045,-3.7061,-3.7572,-3.6973,-3.6882,-3.7118,-3.6522,-3.6316,-3.6385,0.0,0.0,0.0,0.0,0.0,0.0,0.0,0.0,0.0,0.0,0.0,0.0,0.0,0.0,0.0,0.0,0.0,0.0,0.0,0.0,0.0,0.0,0.0,0.0,0.0,0.0,0.0,0.0,0.0,0.0,0.0,0.0,0.0,-3.9534,-4.0043,-4.0398,-4.0464,-4.1707,-4.2568,-4.2618,-4.3893,-4.4721,-4.4754,-4.5433,-4.5864,-4.5897,-4.5914,-4.6576,-4.8017,-4.8067,-4.8763,-5.0204,-5.022,-5.022,-5.0204,-4.9491,-4.9144,-4.9127,-4.8398,-4.8067,-4.8067,-4.8067,-4.8067,-4.8067,-4.805,-4.8034,-4.7885,-4.6427,-4.5864,-4.5864,-4.5864,-4.5864,-4.5864,0.0,0.0,0.0,0.0,0.0,0.0,0.0,-2.4708,-2.4593,-2.4765,-2.5133,-2.5356,-2.5147,-2.6632,-2.7692,-2.7838,-2.9356,-3.0208,-3.0072,-3.0464,-3.0644,-3.0524,-3.1605,-3.2332,-3.2556,-3.3607,-3.4241,-3.4514,-3.5336,-3.578,-3.5811,-3.6151,-3.6461,-3.6768,-3.6763,-3.6951,-3.746,-3.776,-3.7932,-3.7905,-3.7466,-3.7283,-3.7241,0.0,0.0,0.0,0.0,0.0,0.0,0.0,0.0,0.0,0.0,0.0,0.0,0.0,0.0,0.0,0.0,0.0,0.0,0.0,0.0,0.0,0.0,0.0,0.0,0.0,0.0,0.0,0.0,0.0,0.0,0.0,-3.9519,-4.0138,-4.0138,-4.0304,-4.0961,-4.2551,-4.3081,-4.3744,-4.4787,-4.5251,-4.5715,-4.6245,-4.6974,-4.7636,-4.8166,-4.8713,-4.9193,-4.9591,-4.9607,-4.9806,-5.022,-5.022,-5.022,-5.022,-5.0005,-4.9906,-4.9906,-4.9707,-4.9607,-4.9607,-4.9607,-4.9607,-4.9558,-4.9028,-4.8812,-4.8713,-4.7769,-4.7404,-4.7404,-4.7404,-4.7404,-4.7404,0.0,0.0,0.0,0.0,0.0,0.0,0.0,-2.465,-2.4593,-2.4677,-2.4935,-2.5129,-2.5012,-2.6153,-2.7105,-2.752,-2.8725,-2.9393,-2.9282,-2.9889,-3.0323,-3.052,-3.178,-3.2766,-3.332,-3.4207,-3.4733,-3.4906,-3.5409,-3.5604,-3.5504,-3.5604,-3.5782,-3.6022,-3.6148,-3.6492,-3.7011,-3.7397,-3.7748,-3.7987,-3.7768,-3.7969,-3.8364,-3.8274,-3.8121,-3.7946,-3.788,-3.7718,-3.7543,-3.7732,0.0,0.0,0.0,0.0,0.0,0.0,0.0,0.0,0.0,0.0,0.0,0.0,0.0,0.0,0.0,0.0,0.0,0.0,0.0,0.0,0.0,0.0,0.0,0.0,-3.9771,-4.0915,-4.128,-4.1552,-4.2319,-4.3876,-4.4622,-4.5334,-4.6179,-4.6527,-4.7023,-4.7769,-4.8216,-4.8796,-4.9525,-4.9988,-5.0353,-5.0651,-5.0651,-5.0817,-5.1115,-5.1115,-5.1115,-5.1115,-5.0817,-5.0651,-5.0651,-5.0353,-5.022,-5.022,-5.022,-5.022,-5.0187,-4.9756,-4.9574,0.0,0.0,0.0,0.0,0.0,-4.8001,-4.8001,0.0,0.0,0.0,0.0,0.0,0.0,0.0,-2.4948,-2.4892,-2.4835,-2.4778,-2.5007,-2.5539,-2.6008,-2.672,-2.7796,-2.8447,-2.8725,-2.8597,-2.9275,-2.9918,-3.0595,-3.1997,-3.3275,-3.4442,-3.4547,-3.4891,-3.5504,-3.5504,-3.5504,-3.5504,-3.5504,-3.5504,-3.5504,-3.5504,-3.5782,-3.6305,-3.6508,-3.6919,-3.7472,-3.7531,-3.8238,-3.9255,-3.9148,-3.8772,-3.839,-3.839,-3.839,-3.8334,-3.8076,0.0,0.0,0.0,0.0,0.0,0.0,0.0,0.0,0.0,0.0,0.0,0.0,0.0,0.0,0.0,0.0,0.0,0.0,0.0,0.0,0.0,0.0,0.0,0.0,-4.0173,-4.173,-4.2696,-4.3362,-4.3965,-4.4731,-4.6033,-4.6924,-4.6862,-4.7621,-4.8398,-4.9061,-4.926,-4.9641,-5.0303,-5.0419,0.0,0.0,0.0,-5.1711,-5.2373,-5.2373,-5.2373,-5.2373,-5.1711,-5.1396,-5.138,-5.075,-5.0469,-5.0469,-5.0469,-5.0469,-5.0452,-5.0369,-5.0286,-5.0071,-4.868,-4.8133,-4.8117,-4.8034,-4.8001,-4.8001,0.0,0.0,0.0,0.0,0.0,0.0,0.0,-2.5118,-2.4721,-2.4948,-2.4892,-2.4949,-2.5362,-2.5948,-2.672,-2.7672,-2.8257,-2.8789,-2.9268,-2.9905,-3.0622,-3.1267,-3.3129,-3.4218,-3.4472,-3.5026,-3.537,-3.5504,-3.5504,-3.5504,-3.5504,-3.5589,-3.5589,-3.5504,-3.5589,-3.5653,-3.5748,-3.6243,-3.6538,-3.6662,-3.7251,-3.7648,-3.7953,-3.7838,-3.778,-3.7764,-3.7648,-3.7706,-3.7764,-3.7706,-3.7806,-3.8108,-3.839,-3.8165,0.0,0.0,0.0,0.0,0.0,0.0,0.0,0.0,0.0,0.0,0.0,0.0,0.0,0.0,0.0,0.0,0.0,0.0,0.0,-3.9031,-4.042,-4.2125,-4.4107,-4.4388,-4.4705,-4.5455,-4.6355,-4.6913,-4.6841,-4.8082,-4.8961,-4.9094,-5.0187,-5.0916,-5.1065,-5.1628,-5.2026,-5.2158,-5.2175,-5.2241,-5.2373,-5.2373,-5.2373,-5.2373,0.0,0.0,-5.2158,-5.2026,-5.1959,-5.1959,-5.1959,-5.1959,-5.191,-5.1313,-5.0734,-5.0121,-4.9243,-4.8895,-4.8829,-4.8216,-4.8001,-4.8001,0.0,0.0,0.0,0.0,0.0,0.0,0.0,-2.5061,-2.4835,-2.5005,-2.5206,-2.5509,-2.5922,-2.6462,-2.705,-2.7675,-2.8177,-2.8661,-2.8967,-3.0284,-3.1286,-3.1995,-3.3606,-3.4637,-3.4981,-3.5325,-3.5504,-3.5504,-3.5504,-3.5504,-3.5504,-3.5539,-3.5539,-3.5504,-3.5539,-3.5539,-3.5504,-3.5797,-3.5973,-3.5973,-3.6321,-3.6492,-3.66,-3.7191,-3.7429,-3.7472,-3.7472,-3.7764,-3.7994,-3.7764,-3.7921,-3.8149,-3.8149,-3.769,-3.71,0.0,0.0,0.0,0.0,0.0,0.0,0.0,0.0,0.0,0.0,0.0,0.0,0.0,0.0,-3.6114,-3.641,0.0,-3.8677,-3.9287,-4.0821,-4.2469,-4.3943,-4.4433,-4.5132,-4.6682,-4.6864,-4.7159,-4.7879,-4.8661,-4.9409,-5.0137,-5.0866,-5.1429,-5.181,-5.2175,-5.2373,-5.2373,-5.2373,-5.2373,-5.2373,-5.2373,-5.2373,-5.2373,-5.2373,-5.2373,-5.2373,-5.2373,-5.2373,-5.2373,-5.2373,-5.2373,-5.2357,-5.1976,-5.1612,-5.1181,-5.0088,-4.9425,-4.9011,-4.8266,-4.8001,-4.8001,0.0,0.0,0.0,0.0,0.0,0.0,0.0,-2.5061,-2.5005,-2.5005,-2.552,-2.6058,-2.6472,-2.6903,-2.7375,-2.7736,-2.8222,-2.8597,-2.8725,-3.0361,-3.1743,-3.2713,-3.3847,-3.4801,-3.5489,-3.5504,-3.5504,-3.5504,-3.5504,-3.5504,-3.5504,-3.5504,-3.5504,-3.5504,-3.5504,-3.5504,-3.5504,-3.5504,-3.5504,-3.5504,-3.5504,-3.5504,-3.5619,-3.6616,-3.7011,-3.7071,-3.7131,-3.7531,-3.7879,-3.7472,-3.7674,-3.806,-3.7632,-3.704,-3.6508,-3.6707,-3.629,0.0,0.0,0.0,0.0,0.0,0.0,0.0,0.0,-3.5638,-3.5683,-3.5669,-3.6118,-3.6588,-3.6827,-3.8318,-3.952,-3.9606,-4.1192,-4.2731,-4.3414,-4.4117,-4.5333,-4.7489,-4.7186,-4.7326,-4.8726,-4.9008,-4.9703,-5.1181,-5.1256,-5.1586,-5.234,-5.2373,-5.2373,-5.2373,-5.2373,-5.2373,-5.2373,-5.2373,-5.2373,-5.2373,-5.2373,-5.2373,-5.2373,-5.2373,-5.2373,-5.2373,-5.2373,-5.2373,-5.2373,-5.2373,-5.2373,-5.2224,-5.0783,-4.9856,-4.9226,-4.8332,-4.8001,-4.8001,0.0,0.0,0.0,0.0,0.0,0.0,0.0,0.0,-2.5005,-2.5005,-2.552,-2.6058,-2.6472,-2.6903,-2.7311,-2.7484,-2.8091,-2.8853,-2.958,-3.0284,-3.1478,-3.3486,-3.4175,-3.4801,-3.5489,-3.5504,-3.5504,-3.5504,-3.5504,-3.5504,-3.5504,-3.5504,-3.5504,-3.5504,-3.5504,-3.5504,-3.5504,-3.5504,-3.5504,-3.5504,-3.5504,-3.5504,-3.5504,-3.5683,-3.5748,-3.5748,-3.5733,-3.5797,-3.5861,-3.5797,-3.5894,-3.6102,-3.6477,-3.6243,-3.5864,-3.6305,-3.6117,-3.5688,-3.5752,-3.5752,-3.5703,-3.5619,-3.5569,-3.5569,0.0,-3.5504,-3.5669,-3.6252,-3.6432,-3.6842,-3.7984,-3.8864,-3.9606,-4.0231,-4.1513,-4.2698,-4.342,-4.4093,-4.5075,-4.6742,-4.6811,-4.7103,-4.7972,-4.855,-4.9551,-5.1214,-5.1181,-5.15,-5.2373,-5.2373,-5.2373,-5.2373,-5.2373,-5.2373,-5.2373,-5.2373,-5.2373,-5.2373,-5.2373,-5.2373,-5.2373,-5.2373,-5.2373,-5.2373,-5.2373,-5.2373,-5.2373,-5.2373,-5.2373,-5.2224,-5.0783,-5.0171,-4.9922,-4.8514,-4.8001,-4.8001,0.0,0.0,0.0,0.0,0.0,0.0,0.0,0.0,0.0,0.0,-2.552,-2.6131,-2.662,-2.7386,-2.7786,-2.7696,-2.8712,-2.9518,-2.9766,-3.1151,-3.2272,-3.3066,-3.4104,-3.4685,-3.4906,-3.5295,-3.5504,-3.5504,-3.5504,-3.5504,-3.5504,-3.5504,-3.5504,-3.5504,-3.5504,-3.5554,-3.5589,-3.5554,-3.5554,-3.5589,-3.5554,-3.5504,-3.5504,-3.5504,-3.5504,-3.5504,-3.5504,-3.5733,0.0,-3.5619,-3.5782,-3.6117,-3.6368,-3.6006,-3.5718,-3.6258,-3.6022,-3.5604,-3.5604,-3.5604,-3.5539,-3.5504,-3.5504,-3.5504,-3.5504,-3.5804,-3.6148,-3.6432,-3.7075,-3.7743,-3.8326,-3.9294,-4.0186,-4.0855,-4.1791,-4.2647,-4.3302,-4.359,-4.4358,-4.5969,-4.5753,-4.6253,-4.8255,-4.9175,-5.0058,-5.1132,-5.1565,-5.198,-5.2373,-5.2373,-5.2373,-5.2373,-5.2373,-5.2373,-5.2373,-5.2373,-5.2373,-5.2373,-5.2373,-5.2373,-5.2373,-5.2373,-5.2373,-5.2373,-5.2373,-5.2373,-5.2373,-5.2373,-5.2373,-5.2224,-5.0783,-5.022,-5.0038,-4.8547,-4.8001,-4.8001,0.0,0.0,0.0,0.0,0.0,0.0,0.0,0.0,0.0,0.0,-2.552,-2.6185,-2.6911,-2.7759,-2.817,-2.7921,-2.8776,-2.9518,-2.9875,-3.1307,-3.2347,-3.2836,-3.3729,-3.4299,-3.4535,-3.503,-3.5325,-3.5504,-3.5504,-3.5504,-3.5504,-3.5554,-3.5554,-3.5554,-3.5554,-3.5589,-3.5688,-3.5554,-3.5554,-3.5653,-3.5554,-3.5504,-3.5504,-3.5504,-3.5504,-3.5504,-3.5504,-3.5797,-3.6085,-3.5619,-3.5797,-3.6133,-3.6133,-3.5846,-3.5569,-3.6022,-3.5846,-3.5554,-3.5554,-3.5554,-3.5554,-3.5504,-3.5504,-3.5549,-3.5729,-3.6148,-3.6582,-3.6941,-3.7749,-3.8452,-3.8631,-3.9768,-4.0831,-4.1309,-4.2087,-4.2791,-4.3269,-4.3472,-4.4143,-4.5551,-4.5356,-4.5994,-4.8295,-4.9125,-4.9958,-5.1005,-5.1672,-5.2142,-5.239,-5.2373,-5.2373,-5.2373,-5.2373,-5.2373,-5.2373,-5.2373,-5.2373,-5.2373,-5.2373,-5.2373,-5.2373,-5.2373,-5.2373,-5.2373,-5.2373,-5.2373,-5.2373,-5.2373,-5.2258,-5.1943,-5.0701,-5.0088,-4.9756,-4.8481,-4.8001,-4.8001,0.0,0.0,0.0,0.0,0.0,0.0,0.0,0.0,0.0,0.0,0.0,0.0,0.0,-2.7924,-2.8235,-2.8079,-2.7921,-2.8519,-3.0104,-3.0011,-3.086,-3.3111,-3.3072,-3.3547,-3.466,-3.4706,-3.4973,-3.5504,-3.5504,-3.5504,-3.5504,-3.5638,-3.5688,-3.5688,-3.5688,-3.5688,-3.5688,-3.5554,-3.5504,-3.5504,-3.5504,-3.5504,-3.5504,-3.5504,-3.5504,-3.5504,-3.5504,-3.5504,-3.5504,-3.5504,-3.5504,-3.5504,-3.5504,-3.5504,-3.5504,-3.5504,-3.5604,-3.5688,-3.5688,-3.5688,-3.5638,-3.5554,-3.5504,-3.5669,-3.6312,-3.6477,-3.6836,-3.8078,-3.8362,-3.8601,-3.926,-4.0472,-4.1354,-4.1384,-4.2462,-4.3314,-4.3329,-4.3989,-4.4737,-4.5624,-4.6224,-4.6902,-4.7565,-4.7719,-4.87,-5.093,-5.1118,-5.1508,-5.2373,-5.2373,-5.2373,-5.2373,-5.2373,-5.2373,-5.2373,-5.2373,-5.2373,-5.2373,-5.2373,-5.2373,-5.2373,-5.2373,-5.2373,-5.2373,-5.2373,-5.2373,-5.2373,-5.2373,-5.1959,-5.1231,-5.0502,-4.9773,-4.9044,-4.8282,-4.8001,-4.8001,0.0,0.0,0.0,0.0,0.0,0.0,0.0,0.0,0.0,0.0,0.0,0.0,0.0,0.0,0.0,0.0,-2.8917,-2.9317,-3.0151,-3.0674,-3.1205,-3.1852,-3.2652,-3.3239,-3.3591,-3.4286,-3.4796,-3.4958,-3.5443,-3.5638,-3.5653,-3.5846,-3.5894,-3.5894,-3.5894,-3.5958,-3.6006,-3.591,-3.5797,-3.5797,-3.5718,-3.5604,-3.5504,-3.5504,-3.5504,-3.5504,0.0,-3.5504,-3.5504,-3.5504,-3.5504,-3.5504,-3.5504,-3.5504,-3.5504,-3.5504,-3.5554,-3.5554,-3.5554,-3.5554,-3.5554,-3.5504,-3.5833,-3.6207,-3.6432,-3.7135,-3.7868,-3.8302,-3.8751,-3.914,-3.9379,-4.0142,-4.0876,-4.1309,-4.2117,-4.2836,-4.3269,-4.3551,-4.3989,-4.4812,-4.5033,-4.5553,-4.6764,-4.8314,-4.9528,-5.0227,-5.1343,-5.2069,-5.2373,-5.2373,-5.2373,-5.2373,-5.2373,-5.2373,-5.2373,-5.2373,-5.2373,-5.2373,-5.2373,-5.2373,-5.2373,-5.2373,-5.2373,-5.2373,-5.2373,-5.2373,-5.234,-5.1843,-5.1496,-5.1164,-4.9955,-4.9326,-4.9011,-4.8266,-4.8001,-4.8001,0.0,0.0,0.0,0.0,0.0,0.0,0.0,0.0,0.0,0.0,0.0,0.0,0.0,0.0,0.0,0.0,0.0,-2.9704,-3.03,-3.097,-3.145,-3.1637,-3.2475,-3.294,-3.3084,-3.3925,-3.4559,-3.48,-3.5435,-3.5752,-3.5831,-3.5958,-3.6085,-3.6085,-3.6085,-3.6085,-3.6148,-3.5958,-3.571,-3.545,-3.5548,-3.5454,-3.516,-3.5415,-3.5504,0.0,-3.5504,-3.5504,-3.5504,-3.5504,-3.5504,-3.5504,-3.5504,-3.5504,-3.5504,-3.5504,-3.5504,-3.5504,-3.5504,-3.5504,-3.5564,-3.5804,-3.6178,-3.6611,-3.706,-3.7629,-3.8182,-3.8661,-3.8916,-3.9125,-3.9379,-3.9963,-4.0621,-4.1265,-4.1938,-4.2581,-4.324,-4.3329,-4.363,-4.4358,-4.4361,-4.4881,-4.6386,-4.8074,-4.931,-4.9758,-5.1417,-5.2373,-5.2373,-5.2373,-5.2373,-5.2373,-5.2373,-5.2373,-5.2373,-5.2125,-5.186,-5.1612,-5.1612,-5.1612,-5.1612,-5.1612,-5.1612,-5.1612,-5.1612,-5.1612,-5.1578,-5.1098,-5.0734,-5.0402,-4.9475,-4.8945,-4.8647,-4.8166,-4.8001,-4.8001,0.0,0.0,0.0,0.0,0.0,0.0,0.0,0.0,0.0,0.0,0.0,0.0,0.0,0.0,0.0,0.0,0.0,0.0,-3.045,-3.0896,-3.1477,-3.2272,-3.2398,-3.265,-3.3123,-3.3604,-3.4213,-3.4988,-3.5453,-3.5785,-3.6037,-3.6148,-3.6211,-3.6211,-3.6211,-3.6148,-3.6037,-3.5816,-3.5247,-3.4595,-3.5254,-3.5105,-3.4565,-3.516,-3.5429,-3.5459,-3.5444,-3.5474,-3.5504,-3.5504,-3.5504,-3.5504,-3.5504,-3.5504,-3.5504,-3.5504,-3.5504,-3.5504,-3.5504,-3.5534,-3.5699,-3.6327,-3.6537,-3.6896,-3.8063,-3.7883,-3.7808,-3.9065,-3.8796,-3.8542,-3.9245,-3.9873,-4.0531,-4.122,-4.1878,-4.2536,-4.3195,-4.3314,-4.3551,-4.4373,-4.4361,-4.4866,-4.626,-4.7111,-4.8162,-4.9505,0.0,-5.2373,-5.2373,-5.2373,-5.2373,-5.2373,-5.234,-5.2324,-5.2324,-5.1595,-5.0883,-5.022,-5.022,-5.022,-5.022,-5.022,-5.022,-5.022,-5.022,-5.022,-5.022,-5.0171,-4.974,-4.911,-4.9061,-4.863,-4.8001,-4.8001,-4.8001,-4.8001,0.0,0.0,0.0,0.0,0.0,0.0,0.0,0.0,0.0,0.0,0.0,0.0,0.0,0.0,0.0,0.0,0.0,0.0,-3.0435,-3.0629,-3.0748,-3.0984,-3.1864,-3.2252,-3.1965,-3.2862,-3.3722,-3.4393,-3.5003,-3.5597,-3.6148,-3.6352,-3.6414,-3.6414,-3.6414,-3.6414,-3.6367,-3.6289,-3.5829,-3.5033,-3.5216,-3.482,-3.4091,-3.415,-3.4495,-3.4883,-3.4805,-3.507,-3.5504,-3.5504,-3.5504,-3.5504,-3.5504,-3.5504,-3.5504,-3.5504,-3.5504,-3.5504,-3.5504,-3.5863,-3.6282,-3.6447,-3.7195,-3.7868,-3.7689,-3.7913,-3.8093,-3.7958,-3.7778,-3.7853,-3.8527,-3.8781,-3.929,-4.0457,-4.1205,-4.1863,-4.2521,-4.303,-4.3409,-4.3551,-4.3993,-4.4458,-4.4851,-4.61,-4.7024,-4.7353,-4.9885,-5.1745,-5.2373,-5.2373,-5.2373,-5.2373,-5.1843,-5.1562,-5.1562,-5.085,-5.0402,-5.022,-5.022,-5.022,-5.022,-5.022,-5.022,-5.022,-5.022,-5.022,-5.0171,-4.9624,-4.9276,-4.9061,-4.8514,-4.8166,-4.8001,-4.8001,-4.8001,-4.8001,0.0,0.0,0.0,0.0,0.0,0.0,0.0,0.0,0.0,0.0,0.0,0.0,0.0,0.0,0.0,0.0,0.0,0.0,0.0,-3.0661,-3.094,-3.094,-3.1864,-3.212,-3.1537,-3.2619,-3.3426,-3.3867,-3.4482,-3.5018,-3.5462,-3.5599,-3.5599,-3.5599,-3.5599,-3.5599,-3.5462,-3.5462,-3.5018,0.0,0.0,-3.4166,-3.3545,-3.3713,-3.4,-3.4269,-3.4508,-3.4985,-3.5504,-3.5504,-3.5504,-3.5504,-3.5504,-3.5504,-3.5504,-3.5504,-3.5504,-3.5504,-3.5504,-3.5983,-3.6552,-3.6821,-3.7419,-3.7943,-3.7853,-3.7689,-3.7524,-3.7419,-3.7195,-3.7195,-3.7838,-3.8197,-3.8736,-3.9798,-4.0771,-4.1609,-4.2344,-4.2925,-4.3329,-4.3329,-4.3658,-4.4003,-4.4287,-4.5102,-4.5981,-4.7045,-4.8723,-5.0015,-5.0851,-5.0922,-5.1098,-5.1429,-5.1015,-5.0651,-5.0336,-4.9922,-4.9558,-4.9243,-4.9243,-4.9243,-4.9243,-4.9243,-4.9243,-4.9243,-4.9243,-4.9243,-4.921,-4.8796,-4.863,-4.858,-4.8166,-4.8001,-4.8001,-4.8001,-4.8001,-4.8001,0.0,0.0,0.0,0.0,0.0,0.0,0.0,0.0,0.0,0.0,0.0,0.0,0.0,0.0,0.0,0.0,0.0,0.0,0.0,0.0,-3.126,-3.1349,-3.1936,-3.1936,-3.1233,-3.2397,-3.3093,-3.3284,-3.3824,-3.4235,-3.4475,-3.4475,-3.4475,-3.4475,-3.4475,-3.4401,-3.4268,-3.4268,-3.3768,-3.3087,-3.3634,-3.3467,-3.2965,0.0,-3.3667,-3.3744,-3.4467,-3.5048,-3.5504,-3.5504,-3.5504,-3.5504,-3.5504,-3.5504,-3.5504,-3.5504,-3.5504,-3.5504,-3.5504,-3.5983,-3.6611,-3.715,-3.7345,-3.7539,-3.8018,-3.7285,-3.6611,-3.706,-3.6731,-3.6552,-3.7165,-3.7823,-3.8482,-3.917,-4.0382,-4.1474,-4.2132,-4.2791,-4.324,-4.3329,-4.3329,-4.3554,-4.4122,-4.4182,-4.502,-4.6948,-4.724,-4.7771,-4.8916,-4.9004,-4.936,-5.0003,-5.0071,-4.9707,-4.8961,-4.8961,-4.863,-4.8001,-4.8001,-4.8001,-4.8001,-4.8001,-4.8001,-4.8001,-4.8001,-4.8001,-4.8001,-4.8001,-4.8001,-4.8001,-4.8001,-4.8001,-4.8001,-4.8001,-4.8001,-4.8001,0.0,0.0,0.0,0.0,0.0,0.0,0.0,0.0,0.0,0.0,-2.5061,-2.5005,0.0,0.0,0.0,0.0,0.0,0.0,0.0,0.0,0.0,-3.0674,-3.1291,-3.1102,-2.9875,-3.1161,-3.2103,-3.2645,-3.3233,-3.3891,-3.4475,-3.4475,-3.4475,-3.4475,-3.4475,-3.4475,-3.446,-3.446,-3.4002,-3.3356,-3.3422,-3.3111,-3.2471,-3.2497,0.0,0.0,-3.4363,-3.5048,-3.5504,-3.5504,-3.5504,-3.5504,-3.5504,-3.5504,-3.5504,-3.5504,-3.5504,-3.5504,-3.5504,-3.5983,-3.6507,-3.6626,-3.703,-3.73,-3.6911,-3.6641,-3.6357,-3.5923,-3.5744,-3.5863,-3.6522,-3.7165,-3.7793,-3.8452,-3.9694,-4.0801,-4.1459,-4.2117,-4.2731,-4.3269,-4.3329,-4.3389,-4.3494,-4.3509,-4.3618,-4.4025,-4.4119,-4.5557,-4.878,-4.9004,-4.9132,-4.9242,-4.9293,-4.8945,-4.8199,-4.8199,-4.8133,-4.8001,-4.8001,-4.8001,-4.8001,-4.8001,-4.8001,-4.8001,-4.8001,0.0,-4.8001,-4.8001,-4.8001,-4.8001,-4.8001,-4.8001,-4.8001,-4.8001,-4.8001,-4.8001,0.0,0.0,0.0,0.0,0.0,0.0,0.0,-2.5005,-2.5005,-2.5005,-2.5005,-2.5118,-2.5453,-2.5174,-2.5382,0.0,0.0,0.0,0.0,0.0,0.0,0.0,0.0,0.0,-3.0011,-3.0984,-3.1644,-3.1958,0.0,-3.3059,-3.3398,-3.3398,-3.3398,-3.3398,-3.3398,-3.3398,-3.3398,-3.3398,-3.3198,-3.2875,-3.2875,-3.269,-3.2398,0.0,0.0,0.0,-3.4091,-3.4796,-3.5589,-3.5489,-3.5504,-3.5504,-3.5504,-3.5504,-3.5504,-3.5504,-3.5504,-3.5504,-3.5504,-3.5983,-3.6492,-3.6492,-3.6716,-3.6851,-3.6552,-3.6222,-3.5893,-3.5564,-3.5504,-3.5609,-3.5923,-3.6492,-3.7135,-3.7778,-3.9005,-4.0247,-4.125,-4.1953,-4.2596,-4.3254,-4.3329,-4.3329,-4.3329,-4.3329,-4.3472,-4.3927,-4.3551,-4.4263,-4.6539,-4.7389,-4.805,-4.8547,-4.8531,-4.8365,-4.8001,-4.8001,-4.8001,-4.8001,-4.8001,-4.8001,-4.8001,-4.8001,-4.8001,-4.8001,-4.8001,-4.8001,-4.8001,-4.8001,-4.777,-4.7404,-4.7404,-4.7118,-4.6775,-4.6775,-4.6775,-4.6775,0.0,0.0,0.0,0.0,0.0,0.0,0.0,-2.5005,-2.5005,-2.5005,-2.5005,-2.523,-2.5839,-2.5342,-2.5425,0.0,0.0,0.0,0.0,0.0,0.0,0.0,0.0,0.0,0.0,0.0,0.0,-3.1043,-3.1807,0.0,0.0,0.0,0.0,0.0,-3.2398,-3.2398,-3.2398,-3.2398,-3.2398,0.0,0.0,-3.2398,0.0,0.0,0.0,0.0,0.0,-3.4467,-3.5522,-3.5509,-3.5504,-3.5504,-3.5504,-3.5504,-3.5504,-3.5504,-3.5504,-3.5504,-3.5504,-3.5878,-3.6282,-3.6282,-3.6282,-3.6282,-3.6282,-3.5878,-3.5504,-3.5504,-3.5504,-3.5504,-3.5504,-3.6043,-3.6656,-3.7135,-3.8332,-3.9604,-4.0786,-4.1654,-4.2387,-4.3045,-4.324,-4.3329,-4.3329,-4.3329,-4.3551,-4.422,-4.363,-4.363,-4.445,-4.5809,-4.6896,-4.7704,-4.7919,-4.8001,-4.8001,-4.8001,-4.8001,-4.8001,-4.8001,-4.8001,-4.8001,-4.8001,-4.8001,-4.8001,-4.8001,-4.7919,-4.777,-4.777,-4.727,-4.6534,-4.6534,-4.6182,-4.5697,-4.5697,-4.5697,-4.5697,0.0,0.0,0.0,0.0,0.0,0.0,0.0,-2.5005,-2.5005,-2.5005,-2.5005,-2.523,-2.5839,-2.5342,-2.5272,0.0,0.0,0.0,0.0,0.0,0.0,0.0,0.0,0.0,0.0,0.0,0.0,-2.969,-3.0984,0.0,0.0,0.0,0.0,0.0,0.0,-3.2398,-3.2398,-3.2398,0.0,0.0,0.0,0.0,0.0,0.0,0.0,0.0,0.0,-3.4196,-3.4856,-3.5359,-3.5504,-3.5504,-3.5504,-3.5504,-3.5504,-3.5504,-3.5504,-3.5504,-3.5504,-3.5549,-3.5594,-3.5594,-3.5594,-3.5594,-3.5594,-3.5549,-3.5504,-3.5504,-3.5504,-3.5504,-3.5504,-3.6043,-3.6507,-3.6567,-3.7644,-3.8751,-3.9499,-4.0681,-4.1713,-4.2372,-4.297,-4.3329,-4.3329,-4.3329,-4.3329,-4.3409,-4.3329,-4.363,-4.445,-4.5332,-4.6111,-4.6896,-4.7638,-4.8001,-4.8001,-4.8001,-4.8001,-4.8001,-4.8001,-4.8001,-4.8001,-4.8001,-4.8001,-4.8001,-4.8001,-4.7555,0.0,-4.6896,-4.6464,-4.5769,-4.5769,-4.5769,-4.5697,-4.5697,-4.5697,-4.5697,0.0,0.0,0.0,0.0,0.0,0.0,-2.5005,-2.5005,-2.5005,-2.5005,-2.5005,-2.523,-2.5839,-2.5342,-2.537,-2.6283,0.0,0.0,0.0,0.0,0.0,0.0,0.0,0.0,0.0,0.0,-2.9504,-2.9504,-3.0435,0.0,0.0,0.0,0.0,0.0,0.0,-3.1879,-3.1879,-3.2231,0.0,0.0,0.0,0.0,0.0,0.0,0.0,0.0,0.0,0.0,-3.5498,-3.5479,-3.5504,-3.5504,-3.5504,-3.5504,-3.5504,-3.5504,-3.5504,-3.5504,-3.5504,-3.5504,-3.5504,-3.5504,-3.5504,-3.5504,-3.5504,-3.5504,-3.5504,-3.5504,-3.5504,-3.5504,-3.5504,-3.5714,-3.6028,-3.6417,-3.7225,-3.8182,-3.9275,-4.0217,-4.119,-4.2237,-4.2581,-4.2895,-4.3284,-4.3329,-4.3329,-4.3329,-4.3329,-4.3394,-4.3771,-4.451,-4.5316,-4.6111,-4.6896,-4.727,-4.727,-4.727,-4.7488,-4.8001,-4.7488,-4.7555,-4.8001,-4.8001,-4.8001,-4.8001,-4.8001,-4.7555,0.0,-4.6811,-4.6095,-4.4962,-4.4962,-4.4662,-4.422,-4.422,-4.422,-4.422,0.0,0.0,0.0,0.0,0.0,-2.5005,-2.5005,-2.5005,-2.5005,-2.5005,-2.5005,-2.5174,-2.5619,-2.523,-2.5314,-2.6108,-2.5481,0.0,0.0,0.0,0.0,0.0,0.0,0.0,0.0,0.0,-2.9219,-2.9219,-2.9903,-3.0208,0.0,0.0,-3.0524,-3.0524,0.0,0.0,0.0,0.0,0.0,0.0,0.0,0.0,0.0,0.0,0.0,0.0,0.0,0.0,0.0,0.0,0.0,-3.5504,-3.5504,-3.5504,-3.5504,-3.5504,-3.5504,-3.5504,-3.5504,-3.5504,-3.5504,-3.5504,-3.5504,-3.5504,-3.5504,-3.5504,-3.5504,-3.5504,-3.5504,-3.5504,-3.5504,-3.5504,-3.5654,-3.6118,-3.6731,-3.7539,-3.8661,-3.9574,-4.0531,-4.1654,-4.2132,-4.2551,-4.3,-4.3225,-4.3329,-4.3329,-4.3329,-4.3329,-4.3329,-4.3849,-4.451,-4.5332,-4.6111,-4.6464,-4.6464,-4.6464,-4.6759,-4.7286,-4.6759,-4.6759,-4.7354,-4.7354,-4.7354,-4.7354,-4.7354,-4.6844,0.0,-4.6095,-4.5374,-4.4143,-4.4143,-4.3771,-4.3329,-4.3329,-4.321,-4.3045,0.0,0.0,0.0,0.0,0.0,0.0,-2.5005,-2.5005,-2.5005,-2.5005,-2.5005,-2.5005,-2.5005,-2.5005,-2.5005,-2.5005,-2.5005,0.0,0.0,0.0,0.0,0.0,0.0,0.0,0.0,0.0,-2.8587,-2.8587,-2.9219,-2.9504,-2.9504,-3.0208,-3.0524,-3.0524,0.0,0.0,0.0,0.0,0.0,0.0,0.0,0.0,0.0,0.0,0.0,0.0,0.0,0.0,0.0,0.0,0.0,0.0,0.0,-3.5504,-3.5504,-3.5504,-3.5504,-3.5504,-3.5504,-3.5504,-3.5504,-3.5504,-3.5504,-3.5504,-3.5504,-3.5504,-3.5504,-3.5504,-3.5504,-3.5504,-3.5504,-3.5504,-3.5504,-3.5519,-3.6073,-3.6716,-3.7345,-3.8586,-3.9679,-4.0337,-4.1564,-4.2357,-4.2372,-4.2955,-4.3329,-4.3329,-4.3329,0.0,-4.3329,-4.3329,-4.3708,-4.4526,-4.5332,-4.5697,-4.5697,-4.5697,-4.5697,-4.5697,-4.5697,-4.5697,-4.5697,-4.5697,-4.5697,-4.5697,-4.5697,-4.5258,0.0,-4.451,-4.4082,-4.3329,-4.3329,-4.3329,-4.3329,-4.3329,-4.2925,-4.2372,0.0,0.0,0.0,0.0,0.0,0.0,0.0,-2.5005,-2.5005,-2.5005,-2.5005,-2.5005,-2.5005,-2.5005,-2.5005,-2.5005,-2.5005,0.0,0.0,0.0,0.0,0.0,0.0,0.0,0.0,0.0,-2.8587,-2.8587,-2.8766,-2.8881,-2.8881,-2.9135,-2.9198,-2.9198,-2.9656,-2.9827,0.0,0.0,0.0,0.0,0.0,0.0,0.0,0.0,0.0,0.0,0.0,0.0,0.0,0.0,0.0,0.0,0.0,0.0,0.0,-3.5504,-3.5504,-3.5504,-3.5504,-3.5504,-3.5504,-3.5504,-3.5504,-3.5504,-3.5504,-3.5504,-3.5504,-3.5504,-3.5504,-3.5504,-3.5504,-3.5504,-3.5504,-3.5504,-3.6058,-3.6701,-3.733,-3.8167,-3.914,-4.0277,-4.1564,-4.2536,-4.2985,-4.321,-4.3329,-4.3329,-4.3329,-4.3329,-4.3329,-4.3329,-4.3409,-4.3693,-4.4434,-4.4887,-4.4887,-4.4887,-4.5184,-4.5697,-4.511,-4.5184,-4.5697,-4.5697,-4.5697,-4.5697,-4.5697,-4.5258,-4.451,-4.451,-4.4004,-4.3284,-4.2851,-4.2671,-4.2611,-4.2162,-4.1863,-4.1698,0.0,0.0,0.0,0.0,0.0,0.0,0.0,-2.5005,-2.5005,-2.5005,-2.5005,-2.5005,-2.5005,-2.5005,-2.5005,-2.5005,-2.5005,0.0,0.0,0.0,0.0,0.0,0.0,0.0,0.0,-2.7949,-2.837,-2.8587,-2.8587,-2.8587,-2.8587,-2.8587,-2.8587,-2.8587,-2.8994,-2.917,0.0,0.0,0.0,0.0,0.0,0.0,-3.0368,0.0,0.0,0.0,0.0,0.0,0.0,0.0,0.0,0.0,0.0,0.0,0.0,0.0,-3.5504,-3.5504,-3.5504,-3.5504,-3.5504,-3.5504,-3.5504,-3.5504,-3.5504,-3.5504,-3.5504,-3.5504,-3.5504,-3.5504,-3.5504,-3.5504,-3.5504,-3.5504,-3.5848,-3.6417,-3.7285,-3.7764,-3.8616,-4.0217,-4.1339,-4.2252,-4.2895,-4.3195,-4.3329,-4.3329,-4.3329,-4.3329,-4.3329,-4.3329,-4.3329,-4.3329,-4.3771,-4.4066,-4.4066,-4.4066,-4.4297,-4.4812,-4.4297,-4.4297,-4.4812,-4.4812,-4.4812,-4.4812,-4.4812,-4.451,0.0,-4.3807,-4.3408,-4.2895,-4.2252,-4.1998,-4.1938,-4.1534,-4.122,-4.101,0.0,0.0,0.0,0.0,0.0,0.0,0.0,-2.5005,-2.5005,-2.5005,-2.5005,-2.5005,-2.5005,-2.5005,-2.5005,-2.5005,0.0,0.0,0.0,0.0,0.0,0.0,0.0,0.0,-2.6809,-2.7406,-2.8003,-2.8587,-2.8587,-2.8587,-2.8587,-2.8587,-2.8587,-2.8587,-2.8587,-2.8587,0.0,0.0,0.0,0.0,0.0,0.0,0.0,0.0,0.0,0.0,0.0,0.0,0.0,0.0,0.0,0.0,0.0,0.0,0.0,0.0,0.0,0.0,0.0,-3.5504,-3.5504,-3.5504,-3.5504,-3.5504,-3.5504,-3.5504,0.0,-3.5504,-3.5504,-3.5504,-3.5504,-3.5504,-3.5504,-3.5504,-3.5504,-3.5953,-3.7225,-3.7494,-3.8257,-4.0172,-4.0935,-4.1564,-4.2222,-4.288,-4.3269,-4.3269,-4.3314,-4.3329,-4.3329,-4.3329,-4.3329,-4.3329,-4.3329,-4.3329,-4.3329,-4.3329,-4.3329,-4.3329,-4.3329,-4.3329,-4.3329,-4.3329,-4.3329,0.0,-4.3284,-4.3269,-4.321,-4.2566,-4.2374,-4.2222,-4.1564,-4.1309,-4.1309,-4.1265,-4.0846,-4.0337,0.0,0.0,0.0,0.0,0.0,0.0,0.0,0.0,0.0,0.0,-2.5005,-2.5005,-2.5005,-2.5005,-2.5005,0.0,0.0,0.0,0.0,0.0,0.0,0.0,0.0,0.0,-2.6809,-2.7406,-2.8003,-2.8587,-2.8587,-2.8587,-2.8587,-2.8587,-2.8587,-2.8587,-2.8587,-2.8509,0.0,0.0,0.0,0.0,0.0,0.0,0.0,0.0,0.0,0.0,-3.3518,-3.433,0.0,0.0,0.0,0.0,0.0,0.0,0.0,0.0,-3.5504,-3.5504,-3.5504,0.0,-3.5504,-3.5504,-3.5504,-3.5504,0.0,-3.5504,-3.5504,-3.5504,-3.5504,-3.5504,-3.5504,-3.5504,-3.5504,-3.5504,-3.5504,-3.5953,-3.7225,-3.8287,-3.9305,-4.0277,-4.0531,-4.0891,-4.1549,-4.2207,-4.2581,-4.2581,-4.3045,-4.3329,-4.3329,-4.3329,-4.3329,-4.3329,-4.3329,-4.3329,-4.3329,-4.3329,-4.3329,-4.3329,-4.3329,-4.3329,-4.3329,-4.3329,-4.3329,-4.3299,-4.2806,-4.2581,-4.2536,-4.1878,-4.1609,-4.1549,-4.0891,-4.0636,-4.0561,-4.0068,-3.9783,-3.9649,0.0,0.0,0.0,0.0,0.0,0.0,0.0,0.0,0.0,0.0,0.0,0.0,0.0,0.0,0.0,0.0,0.0,0.0,0.0,0.0,0.0,0.0,0.0,-2.59,-2.6809,-2.7135,-2.7732,-2.8587,-2.8587,-2.8587,-2.8587,-2.8587,-2.8587,-2.8587,-2.8509,-2.8379,0.0,0.0,0.0,0.0,-2.8622,0.0,0.0,0.0,0.0,0.0,-3.2863,-3.3478,0.0,-3.4177,-3.4327,-3.4505,0.0,0.0,0.0,0.0,-3.5504,-3.5504,-3.5504,-3.5504,-3.5504,-3.5504,-3.5504,-3.5504,-3.5504,-3.5504,-3.5504,-3.5504,-3.5504,-3.5504,-3.5504,-3.5504,-3.5504,-3.5504,-3.5504,-3.5953,-3.7225,-3.8571,-3.9544,-3.9903,-4.0217,-4.0531,-4.0891,-4.1534,-4.1908,-4.1908,-4.2237,-4.2566,-4.2865,-4.2895,-4.3015,-4.3329,-4.3329,-4.3329,-4.3329,-4.3329,-4.3329,-4.3329,-4.3329,-4.3165,-4.2895,-4.2895,-4.2716,-4.2417,-4.2058,-4.1908,-4.1863,-4.1205,-4.0935,-4.0861,-4.0202,-3.9948,-3.9903,-3.9544,-3.9424,-3.9424,0.0,0.0,0.0,0.0,0.0,0.0,0.0,0.0,0.0,0.0,0.0,0.0,0.0,0.0,0.0,0.0,0.0,0.0,0.0,0.0,0.0,0.0,0.0,-2.5575,-2.6796,-2.6823,-2.7406,-2.8587,-2.8587,-2.8587,-2.8587,-2.8587,-2.8587,-2.8587,-2.8365,-2.8249,0.0,0.0,0.0,0.0,-2.8802,0.0,0.0,0.0,0.0,0.0,0.0,0.0,0.0,-3.3754,-3.3616,-3.3437,-3.4721,0.0,0.0,0.0,0.0,0.0,-3.5439,-3.5504,-3.5504,-3.5504,-3.5504,-3.5504,-3.5504,-3.5504,-3.5504,-3.5504,-3.5504,-3.5504,-3.5504,-3.5504,-3.5504,-3.5504,-3.5594,-3.6073,-3.724,-3.8482,-3.9305,-3.9409,-3.9903,-4.0247,-4.0247,-4.0846,-4.1235,-4.1235,-4.1324,-4.1624,-4.2177,-4.2207,-4.2462,-4.3015,-4.303,-4.303,-4.303,-4.3135,-4.3135,-4.303,-4.303,-4.2746,-4.2207,-4.2207,-4.1908,-4.1369,0.0,0.0,-4.119,-4.0516,-4.0247,-4.0187,-3.9634,-3.9424,-3.9424,-3.9424,-3.9424,-3.9424,0.0,0.0,0.0,0.0,0.0,0.0,0.0,0.0,0.0,0.0,0.0,0.0,0.0,0.0,0.0,0.0,0.0,0.0,0.0,0.0,0.0,-2.5005,-2.5005,-2.5575,-2.6796,-2.6823,-2.7406,-2.8587,-2.8587,-2.8587,-2.8587,-2.8587,-2.8587,-2.8587,-2.8365,-2.8249,-2.8119,-2.8612,-2.8662,-2.8533,-2.9671,0.0,0.0,0.0,0.0,0.0,0.0,0.0,0.0,-3.2434,-3.2791,-3.3213,-3.3506,0.0,0.0,0.0,0.0,0.0,-3.5279,-3.5504,-3.5504,-3.5504,-3.5504,-3.5504,-3.5504,-3.5504,-3.5504,-3.5504,-3.5504,-3.5504,-3.5504,-3.5504,-3.5504,-3.5504,-3.5968,-3.6582,-3.73,-3.8063,-3.8766,-3.9349,-3.9514,-3.9574,-3.9574,-4.0172,-4.0546,-4.0546,-4.107,-4.1429,-4.1534,-4.1534,-4.1579,-4.1683,-4.1683,-4.1683,-4.1683,-4.2222,-4.2222,-4.1683,-4.1683,-4.1624,-4.1534,-4.1534,-4.1474,-4.1354,0.0,-4.0546,-4.0502,-3.9843,-3.9574,-3.9559,-3.9454,-3.9424,-3.9424,-3.9424,-3.9424,-3.9424,0.0,0.0,0.0,0.0,0.0,0.0,0.0,0.0,0.0,0.0,0.0,0.0,0.0,0.0,0.0,0.0,0.0,0.0,0.0,0.0,0.0,-2.5005,-2.5005,-2.5575,-2.6796,-2.6823,-2.7406,-2.8587,-2.8587,-2.8587,-2.8587,-2.8587,-2.8522,-2.8444,-2.8249,-2.8118,-2.7947,-2.8092,-2.8431,-2.8908,0.0,0.0,0.0,0.0,0.0,0.0,0.0,0.0,0.0,0.0,-3.2087,-3.2173,-3.2946,0.0,0.0,0.0,0.0,0.0,-3.5424,-3.5504,-3.5504,-3.5504,-3.5504,-3.5504,-3.5504,-3.5504,-3.5504,-3.5504,-3.5504,-3.5504,-3.5504,-3.5504,-3.5504,-3.5504,-3.6058,-3.6701,-3.733,-3.7973,-3.8646,-3.9334,-3.9424,-3.9424,-3.9424,-3.9694,-3.9873,-3.9873,-4.0157,-4.0472,-4.0831,-4.0846,-4.101,-4.1369,-4.1384,-4.1205,-4.0846,-4.1145,-4.1324,-4.1384,-4.1384,-4.119,-4.0846,-4.0846,-4.0651,-4.0307,0.0,-3.9873,-3.9843,-3.9544,-3.9424,-3.9424,-3.9424,-3.9424,-3.9469,-3.9828,-3.9948,-3.9948,0.0,0.0,0.0,0.0,0.0,0.0,0.0,0.0,0.0,0.0,0.0,0.0,0.0,0.0,0.0,0.0,0.0,0.0,0.0,0.0,-2.5005,-2.5005,-2.5005,-2.5575,-2.6796,-2.6823,-2.7406,-2.8587,-2.8587,-2.8587,-2.8587,-2.8522,-2.8444,-2.8287,-2.8118,-2.7921,-2.7789,-2.7734,-2.8333,-2.9287,0.0,0.0,0.0,0.0,0.0,0.0,0.0,0.0,0.0,0.0,0.0,0.0,0.0,0.0,0.0,-3.3768,-3.4341,-3.4787,-3.5148,-3.5213,-3.5279,-3.5424,-3.5504,-3.5504,-3.5504,-3.5504,-3.5504,-3.5504,-3.5504,-3.5504,-3.5504,-3.5504,-3.5504,-3.5504,-3.5923,-3.6477,-3.7105,-3.7749,-3.8407,-3.9095,-3.932,-3.9424,-3.9424,-3.9424,-3.9424,-3.9424,-3.9424,-3.9634,-4.0142,-4.0172,-4.0397,-4.0905,-4.092,-4.0681,-4.0172,-4.0172,-4.0427,-4.092,-4.092,-4.0651,-4.0172,-4.0172,-3.9903,-3.9424,-3.9424,-3.9424,-3.9424,-3.9589,-3.9649,-3.9664,-3.9828,-3.9783,-3.9664,-3.9858,-3.9933,-3.9903,0.0,0.0,0.0,0.0,0.0,0.0,0.0,0.0,0.0,0.0,0.0,0.0,0.0,0.0,0.0,0.0,0.0,0.0,0.0,0.0,-2.5005,-2.5005,-2.5005,-2.5575,-2.6796,-2.6823,-2.7406,-2.8587,-2.8587,-2.8587,-2.8587,-2.843,-2.8287,-2.8287,-2.7973,-2.7776,-2.7815,-2.8153,-2.8686,-2.9327,-2.9862,0.0,0.0,0.0,0.0,0.0,0.0,0.0,0.0,0.0,0.0,0.0,0.0,0.0,-3.1408,-3.2875,-3.2861,-3.2635,-3.4027,-3.438,-3.4543,-3.5279,-3.5504,-3.5504,-3.5504,-3.5504,-3.5504,-3.5504,-3.5504,-3.5504,-3.5504,-3.5504,-3.5504,-3.5504,-3.5549,-3.5804,-3.6462,-3.709,-3.7719,-3.8377,-3.9035,-3.9424,-3.9424,-3.9424,-3.9424,-3.9424,-3.9424,-3.9439,-3.9484,-3.9484,-3.9514,-3.9559,-3.9559,-3.9544,-3.9484,-3.9484,-3.9514,-3.9559,-3.9559,-3.9529,-3.9484,-3.9484,-3.9469,-3.9424,-3.9424,-3.9424,-3.9469,-4.0083,-4.0337,-4.0382,-4.0995,-4.0876,-4.0187,-3.8975,-3.8527,-3.8437,0.0,0.0,0.0,0.0,0.0,0.0,0.0,0.0,0.0,0.0,0.0,0.0,0.0,0.0,0.0,0.0,0.0,0.0,0.0,-2.5005,-2.5005,-2.5005,-2.5358,-2.5955,-2.6809,-2.6823,-2.7406,-2.8587,-2.8587,-2.8587,-2.8587,-2.8365,-2.8235,-2.8197,-2.7921,-2.7723,-2.7603,-2.7758,-2.8399,-2.9301,-2.9523,-3.0163,0.0,0.0,0.0,0.0,0.0,0.0,0.0,0.0,-3.0986,-3.1061,-3.1334,-3.1529,-3.1809,-3.2376,-3.2989,-3.3478,-3.3561,-3.4341,-3.4986,-3.4824,-3.5133,-3.5504,-3.5504,-3.5504,-3.5504,-3.5504,-3.5504,-3.5504,-3.5504,-3.5504,-3.5504,-3.5504,-3.5504,-3.5729,-3.6387,-3.6686,-3.706,-3.7704,-3.8377,-3.8781,-3.8781,-3.917,-3.9424,-3.9424,-3.9424,-3.9424,-3.9424,-3.9424,-3.9424,-3.9424,-3.9424,-3.9424,-3.9424,-3.9424,-3.9424,-3.9424,-3.9424,-3.9424,-3.9424,-3.9424,-3.9424,-3.9424,-3.9424,-3.9424,-3.9439,-3.9694,-3.9783,-3.9768,-3.9589,-3.9364,-3.908,-3.8586,-3.8392,-3.8347,0.0,0.0,0.0,0.0,0.0,0.0,0.0,0.0,0.0,0.0,0.0,0.0,0.0,0.0,0.0,0.0,0.0,0.0,-2.5005,-2.5005,-2.5005,-2.5005,-2.5575,-2.6185,-2.6809,-2.7013,-2.7596,-2.8587,-2.8587,-2.8587,-2.8509,-2.8314,-2.8118,-2.8,-2.7802,-2.7656,-2.7536,-2.7719,-2.8373,-2.9287,-2.947,-3.0124,0.0,0.0,0.0,0.0,0.0,0.0,0.0,0.0,-3.0986,-3.0986,-3.0986,-3.1334,-3.1736,-3.1736,-3.2434,-3.3199,-3.2932,-3.3644,-3.4423,-3.4312,-3.4677,-3.5213,-3.5424,-3.5504,-3.5504,-3.5504,-3.5504,-3.5504,-3.5504,-3.5504,-3.5504,-3.5504,-3.5504,-3.5669,-3.6118,-3.6357,-3.6641,-3.706,-3.7689,-3.8078,-3.8078,-3.8512,-3.8871,-3.908,-3.9095,-3.9185,-3.9409,-3.9424,-3.9424,-3.9424,-3.9424,-3.9424,-3.9424,-3.9424,-3.9424,-3.9424,-3.9424,-3.9424,-3.9424,-3.9424,-3.9424,-3.9424,-3.9424,-3.9424,-3.9424,-3.9424,-3.9424,-3.9349,-3.8661,-3.8392,-3.8347,-3.7943,-3.7793,-3.7764,0.0,0.0,0.0,0.0,0.0,0.0,0.0,0.0,0.0,0.0,0.0,0.0,0.0,0.0,0.0,0.0,0.0,0.0,-2.5005,-2.5005,-2.5005,-2.5005,-2.5575,-2.6185,-2.6809,-2.742,-2.8003,-2.8587,-2.8587,-2.8509,-2.83,-2.8131,-2.8,-2.7776,-2.759,-2.7523,-2.7562,-2.8137,-2.8726,-2.9327,-2.9902,-3.0477,-3.0986,0.0,0.0,0.0,0.0,0.0,0.0,0.0,-3.0986,-3.0986,-3.0986,-3.0986,-3.0986,-3.0986,-3.0986,-3.1198,-3.1869,-3.2074,-3.242,-3.3891,-3.4312,-3.4528,-3.5294,-3.5504,-3.5504,-3.5504,-3.5504,-3.5504,-3.5504,-3.5504,-3.5504,-3.5504,-3.5504,-3.5504,-3.5504,-3.6073,-3.6477,-3.6477,-3.703,-3.7404,-3.7404,-3.7404,-3.7689,-3.8332,-3.8377,-3.8676,-3.9364,-3.9409,-3.9409,-3.9409,-3.9424,-3.9424,-3.9424,-3.9424,-3.9424,-3.9424,-3.9409,-3.9409,-3.9424,-3.9424,-3.9424,-3.9409,-3.9409,-3.9409,-3.9394,-3.9394,-3.9394,-3.9334,-3.8631,-3.8362,-3.8212,-3.6941,-3.6477,-3.6387,0.0,0.0,0.0,0.0,0.0,0.0,0.0,0.0,0.0,0.0,0.0,0.0,0.0,0.0,0.0,0.0,0.0,0.0,-2.5005,-2.5005,-2.5005,-2.5005,-2.5995,-2.6633,-2.6823,-2.7813,-2.8346,-2.8365,-2.8365,-2.8314,-2.8131,-2.7987,-2.7855,-2.7776,-2.759,-2.7523,-2.7562,-2.8137,-2.8726,-2.9327,-2.9902,-3.0477,-3.0986,0.0,0.0,0.0,0.0,0.0,0.0,0.0,0.0,0.0,-3.0986,-3.0986,-3.0986,-3.0986,-3.1408,-3.175,-3.1394,-3.2101,-3.3003,-3.3422,-3.3905,-3.4528,-3.5294,-3.5504,-3.5504,-3.5504,-3.5504,-3.5504,-3.5504,-3.5504,-3.5504,-3.5504,-3.5504,-3.5504,-3.5504,-3.5669,-3.5804,-3.5804,-3.6372,-3.6761,-3.6761,-3.715,-3.7494,-3.7689,-3.7704,-3.7793,-3.7988,-3.8437,-3.8691,-3.8691,-3.917,-3.9424,-3.9424,-3.9424,-3.9424,-3.9409,-3.8931,-3.8945,-3.9424,-3.9424,-3.9155,-3.8691,-3.8691,-3.8437,-3.8003,-3.8003,-3.7749,-3.733,-3.7135,-3.6776,-3.6312,-3.5938,-3.5804,-3.5774,0.0,0.0,0.0,0.0,0.0,0.0,0.0,0.0,0.0,0.0,0.0,0.0,0.0,0.0,0.0,0.0,0.0,0.0,0.0,-2.4948,-2.5057,-2.5229,-2.6234,-2.704,-2.7515,-2.8157,-2.8379,-2.8249,-2.83,-2.817,-2.8,-2.7855,-2.7789,-2.7656,-2.7523,-2.7523,-2.7589,-2.8399,-2.8948,-2.9353,-3.015,-3.0686,-3.0986,0.0,0.0,0.0,0.0,0.0,0.0,0.0,0.0,0.0,-3.0986,-3.0986,-3.0986,-3.0986,-3.1334,-3.1603,-3.1123,-3.1616,-3.2461,-3.3073,-3.3283,-3.3699,-3.4773,-3.5279,-3.5504,-3.5504,-3.5504,-3.5504,-3.5504,-3.5504,-3.5504,-3.5504,-3.5504,-3.5504,-3.5504,-3.5504,-3.5504,-3.5504,-3.5863,-3.6088,-3.6088,-3.6432,-3.6761,-3.703,-3.7045,-3.715,-3.7404,-3.7778,-3.8003,-3.8003,-3.8407,-3.8616,-3.8616,-3.8616,-3.8616,-3.8616,-3.8197,-3.8212,-3.8616,-3.8616,-3.8392,-3.8003,-3.8003,-3.7644,-3.7045,-3.7045,-3.6671,-3.6088,-3.6088,-3.5848,-3.5504,-3.5504,-3.5504,-3.5504,0.0,0.0,0.0,0.0,0.0,0.0,0.0,0.0,0.0,0.0,0.0,0.0,0.0,0.0,0.0,0.0,0.0,0.0,0.0,0.0,-2.5162,-2.5579,-2.6418,-2.7371,-2.8509,-2.8365,-2.8235,-2.8079,-2.817,-2.8105,-2.7776,-2.7776,-2.7656,-2.7523,-2.7523,-2.7562,-2.768,-2.8804,-2.9314,-2.9457,-3.0542,-3.0986,-3.0986,-3.0986,0.0,0.0,0.0,0.0,0.0,0.0,0.0,0.0,-3.0986,-3.0986,-3.0986,-3.0986,-3.0986,-3.0986,-3.0986,-3.0986,-3.1334,-3.2733,-3.272,-3.2635,-3.3959,-3.4905,-3.5504,-3.5504,-3.5504,-3.5504,-3.5504,-3.5504,-3.5504,-3.5504,-3.5504,-3.5504,-3.5504,-3.5504,-3.5504,-3.5504,-3.5504,-3.5504,-3.5504,-3.5504,-3.5744,-3.6357,-3.6402,-3.6641,-3.721,-3.7285,-3.733,-3.733,-3.7375,-3.7404,-3.7404,-3.7404,-3.7404,-3.7404,-3.7345,-3.733,-3.733,-3.7375,-3.7375,-3.7315,-3.7255,-3.6926,-3.6402,-3.6402,-3.6043,-3.5504,-3.5504,-3.5504,-3.5504,-3.5504,-3.5504,-3.5504,0.0,0.0,0.0,0.0,0.0,0.0,0.0,0.0,0.0,0.0,0.0,0.0,0.0,0.0,0.0,0.0,0.0,0.0,0.0,0.0,-2.5047,-2.5402,-2.6612,-2.7574,-2.8197,-2.8249,-2.817,-2.7855,-2.7908,-2.7776,-2.759,-2.759,-2.7523,-2.7523,-2.7523,-2.7771,-2.8242,-2.8974,-2.9536,-3.0006,-3.0712,-3.0986,-3.0986,-3.0986,-3.0986,0.0,0.0,0.0,0.0,0.0,0.0,0.0,-3.0986,-3.0986,-3.0986,-3.0986,-3.0986,-3.0986,-3.0986,-3.0986,-3.1198,-3.2087,-3.3059,-3.3891,-3.4245,-3.4905,-3.5504,-3.5504,-3.5504,-3.5504,-3.5504,-3.5504,-3.5504,-3.5504,-3.5504,-3.5504,-3.5504,-3.5504,-3.5504,-3.5504,-3.5504,-3.5504,-3.5504,-3.5504,-3.5564,-3.5699,-3.5714,-3.5774,-3.5908,-3.6402,-3.6686,-3.6686,-3.715,-3.7404,-3.7404,-3.7404,-3.7404,-3.7404,-3.6911,-3.6686,-3.6701,-3.718,-3.715,-3.6656,-3.6148,-3.5833,-3.5714,-3.5714,-3.5624,-3.5504,-3.5504,-3.5504,-3.5504,-3.5504,-3.5504,-3.5504,0.0,0.0,0.0,0.0,0.0,0.0,0.0,0.0,0.0,0.0,0.0,0.0,0.0,0.0,0.0,0.0,0.0,0.0,0.0,0.0,-2.5421,-2.6241,-2.712,-2.7746,-2.8079,-2.8052,-2.7973,-2.7776,-2.7723,-2.759,-2.7523,-2.7523,-2.7523,-2.7523,-2.7523,-2.785,-2.8412,-2.9026,-2.9614,-3.0176,-3.0764,-3.0986,-3.0986,-3.0986,-3.0986,-3.0986,-3.0986,0.0,0.0,0.0,0.0,0.0,0.0,0.0,-3.0986,-3.0986,-3.0986,-3.0986,-3.0986,-3.0986,-3.1123,-3.1468,-3.2648,-3.3699,-3.3339,-3.3851,-3.4438,-3.4438,-3.5001,-3.5504,-3.5504,-3.5504,-3.5504,-3.5504,-3.5504,-3.5504,-3.5504,-3.5504,-3.5504,-3.5504,-3.5504,-3.5504,-3.5504,-3.5504,-3.5504,-3.5504,-3.5504,-3.5504,-3.5504,-3.5833,-3.6013,-3.6013,-3.6327,-3.6492,-3.6492,-3.6492,-3.6492,-3.6492,-3.6163,-3.6013,-3.6028,-3.6357,-3.6327,-3.5998,-3.5654,-3.5504,-3.5504,-3.5504,-3.5504,-3.5504,-3.5504,-3.5504,-3.5504,-3.5504,-3.5504,-3.5504,0.0,0.0,0.0,0.0,0.0,0.0,0.0,0.0,0.0,0.0,0.0,0.0,0.0,0.0,0.0,0.0,0.0,0.0,0.0,0.0,0.0,-2.7096,-2.7551,-2.7855,-2.8013,-2.7855,-2.7776,-2.7789,-2.759,-2.7523,-2.7523,-2.7523,-2.7523,-2.7523,-2.7523,-2.7902,-2.8569,-2.9065,-2.9666,-3.032,-3.079,-3.0986,-3.0986,-3.0986,-3.0986,-3.0986,-3.0986,-3.0986,-3.0986,-3.0986,0.0,0.0,0.0,0.0,-3.0986,-3.0986,-3.0986,-3.0986,-3.0986,-3.0986,-3.0986,-3.0986,-3.2028,-3.2861,-3.2218,-3.2648,-3.3213,-3.3213,-3.4288,-3.5279,-3.5279,-3.5439,-3.5504,-3.5504,-3.5504,-3.5504,-3.5504,-3.5504,-3.5504,-3.5504,-3.5504,-3.5504,-3.5504,-3.5504,-3.5504,-3.5504,-3.5504,-3.5504,-3.5504,-3.5504,-3.5504,-3.5504,-3.5504,-3.5504,-3.5504,-3.5504,-3.5504,-3.5504,-3.5504,-3.5504,-3.5504,-3.5504,-3.5504,-3.5504,-3.5504,-3.5504,-3.5504,-3.5504,-3.5504,-3.5504,-3.5504,-3.5504,-3.5504,-3.5504,-3.5504,-3.5504,0.0,0.0,0.0,0.0,0.0,0.0,0.0,0.0,0.0,0.0,0.0,0.0,0.0,0.0,0.0,0.0,0.0,0.0,-2.4878,0.0,0.0,-2.6918,-2.7472,-2.7723,-2.7603,-2.7723,-2.7723,-2.7523,-2.7523,-2.7523,-2.7523,-2.7523,-2.7523,-2.7523,-2.7523,-2.8137,-2.917,-2.9248,-2.9902,-3.0882,-3.096,-3.0986,-3.0986,-3.0986,-3.0986,-3.0986,-3.0986,-3.0986,-3.0986,-3.0986,-3.0986,0.0,0.0,0.0,-3.0986,-3.0986,-3.0986,-3.0986,-3.0986,-3.0986,-3.0986,-3.0986,-3.1603,-3.2218,-3.2146,-3.2648,-3.3213,-3.3213,-3.3837,-3.4461,-3.4461,-3.5052,-3.5504,-3.5504,-3.5504,-3.5504,-3.5504,-3.5504,-3.5504,-3.5504,-3.5504,-3.5504,-3.5504,-3.5504,-3.5504,-3.5504,-3.5504,-3.5504,-3.5504,-3.5504,-3.5504,-3.5504,-3.5504,-3.5504,-3.5504,-3.5504,-3.5504,-3.5504,-3.5504,-3.5504,-3.5504,-3.5504,-3.5504,-3.5504,-3.5504,-3.5504,-3.5504,-3.5504,-3.5504,-3.5504,-3.5504,-3.5504,-3.5504,-3.5504,-3.5504,-3.5504,0.0,0.0,0.0,0.0,0.0,0.0,0.0,0.0,0.0,0.0,0.0,0.0,0.0,0.0,0.0,-2.4112,-2.4413,-2.4975,-2.5863,-2.6399,-2.6882,-2.7197,-2.7525,-2.759,-2.7523,-2.759,-2.759,-2.7523,-2.7523,-2.7523,-2.7523,-2.7523,-2.7523,-2.7536,-2.7863,-2.8477,-2.9301,-2.9627,-3.0228,-3.0986,-3.0986,-3.0986,-3.0986,-3.0986,-3.0986,-3.0986,-3.0986,-3.0986,-3.0986,-3.0986,-3.0986,-3.0986,-3.0986,0.0,0.0,0.0,-3.0986,-3.0986,-3.0986,-3.0986,-3.0986,-3.0986,-3.1259,-3.1468,-3.1468,-3.175,-3.1969,-3.1969,-3.2577,-3.3199,-3.363,-3.3988,-3.4221,-3.4221,-3.4558,-3.4839,-3.4839,-3.5213,-3.5504,-3.5504,-3.5504,-3.5504,-3.5504,-3.5504,-3.5504,-3.5504,-3.5504,-3.5504,-3.5504,-3.5504,-3.5504,-3.5504,-3.5504,-3.5504,-3.5504,-3.5504,-3.5504,-3.5504,-3.5504,-3.5504,-3.5504,-3.5504,-3.5504,-3.5504,-3.5504,-3.5504,-3.5504,-3.5504,-3.5504,-3.5504,-3.5504,-3.5504,-3.5504,-3.5504,-3.5504,-3.5504,0.0,0.0,0.0,0.0,0.0,0.0,0.0,0.0,0.0,0.0,0.0,0.0,0.0,0.0,0.0,0.0,-2.4857,-2.5602,-2.6608,-2.6817,-2.7079,-2.751,-2.7523,-2.7523,-2.7523,-2.7523,-2.7523,-2.7523,-2.7523,-2.7523,-2.7523,-2.7523,-2.7523,-2.7562,-2.8124,-2.8712,-2.9314,-2.9889,-3.0464,-3.0986,-3.0986,-3.0986,-3.0986,-3.0986,-3.0986,-3.0986,-3.0986,-3.0986,-3.0986,-3.0986,-3.0986,-3.0986,-3.0986,-3.0986,0.0,0.0,0.0,-3.0986,-3.0986,-3.0986,-3.0986,-3.0986,-3.0986,-3.0986,-3.0986,-3.0986,-3.0986,-3.0986,-3.1468,-3.2028,-3.2519,-3.2946,-3.3213,-3.3213,-3.363,-3.4027,-3.4027,-3.4691,-3.5213,-3.5213,-3.5359,-3.5504,-3.5504,-3.5504,-3.5504,-3.5504,-3.5504,-3.5504,-3.5504,-3.5504,-3.5504,-3.5504,-3.5504,-3.5504,-3.5504,-3.5504,-3.5504,-3.5504,-3.5504,-3.5504,-3.5504,-3.5504,-3.5504,-3.5504,-3.5504,-3.5504,-3.5504,-3.5504,-3.5504,-3.5504,-3.5504,-3.5504,-3.5504,-3.5504,-3.5504,-3.5504,0.0,0.0,0.0,0.0,0.0,0.0,0.0,0.0,0.0,0.0,0.0,0.0,-2.4112,-2.4596,-2.4922,-2.4922,-2.5445,-2.6033,-2.6634,-2.7183,-2.7497,-2.7523,-2.7523,0.0,-2.7523,-2.7523,-2.7523,-2.7523,-2.7523,-2.7523,-2.7523,-2.7523,-2.7523,-2.7562,-2.8124,-2.8712,-2.9314,-2.9889,-3.0464,-3.0986,-3.0986,-3.0986,-3.0986,-3.0986,-3.0986,-3.0986,-3.0986,-3.0986,-3.0986,-3.0986,-3.0986,-3.0986,-3.0986,-3.0986,-3.0986,0.0,0.0,0.0,-3.0986,-3.0986,-3.0986,-3.0986,-3.0986,-3.0986,-3.0986,-3.0986,-3.0986,-3.0986,-3.1061,-3.1061,-3.1136,-3.2245,-3.3213,-3.3213,-3.3213,-3.3297,-3.3297,-3.3905,-3.438,-3.438,-3.5052,-3.5504,-3.5504,-3.5504,-3.5504,-3.5504,-3.5504,-3.5504,-3.5504,-3.5504,-3.5504,-3.5504,-3.5504,-3.5504,-3.5504,-3.5504,-3.5504,-3.5504,-3.5504,-3.5504,-3.5504,-3.5504,-3.5504,-3.5504,-3.5504,-3.5504,-3.5504,-3.5504,-3.5504,-3.5504,-3.5504,-3.5504,-3.5504,-3.5504,-3.5504,-3.5504,0.0,0.0,0.0,0.0,0.0,0.0,0.0,0.0,0.0,0.0,0.0,0.0,0.0,-2.4844,-2.5118,-2.5484,-2.6033,-2.6608,-2.7183,-2.7419,-2.7523,-2.7523,-2.7523,-2.7523,-2.7523,-2.7523,-2.7523,-2.7523,-2.7523,-2.7523,-2.7523,-2.7523,-2.7732,-2.8098,-2.8686,-2.9078,-2.934,-3.0281,-3.079,-3.0986,-3.0986,-3.0986,-3.0986,-3.0986,-3.0986,-3.0986,-3.0986,-3.0986,-3.0986,-3.0986,-3.0986,-3.0986,-3.0986,-3.0986,-3.0986,-3.0986,-3.0986,-3.0986,-3.0986,-3.0986,-3.0986,-3.0986,-3.0986,-3.0986,-3.0986,-3.0986,-3.0986,-3.0986,-3.0986,-3.0986,-3.0986,-3.1408,-3.1763,-3.1763,-3.216,-3.2506,-3.2506,-3.3143,-3.3561,-3.3561,-3.4259,-3.4758,-3.4758,-3.5213,-3.5504,-3.5504,-3.5504,-3.5504,-3.5504,-3.5504,-3.5504,-3.5504,-3.5504,-3.5504,-3.5504,-3.5504,-3.5504,-3.5504,-3.5504,-3.5504,-3.5504,-3.5504,-3.5504,-3.5504,-3.5504,-3.5504,-3.5504,-3.5504,-3.5504,-3.5504,-3.5504,-3.5504,-3.5504,-3.5504,-3.5504,-3.5504,0.0,0.0,0.0,0.0,0.0,0.0,0.0,0.0,0.0,-2.4112,0.0,0.0,0.0,0.0,-2.5772,-2.6347,-2.6739,-2.7118,-2.751,-2.7523,-2.7523,-2.7523,-2.7523,-2.7523,-2.7523,-2.7523,-2.7523,-2.7523,-2.7523,-2.7523,-2.7523,-2.7523,-2.7837,-2.8412,-2.9013,-2.9379,-2.9627,-3.0581,-3.0986,-3.0986,-3.0986,-3.0986,-3.0986,-3.0986,-3.0986,-3.0986,-3.0986,-3.0986,-3.0986,-3.0986,-3.0986,-3.0986,-3.0986,-3.0986,-3.0986,-3.0986,-3.0986,-3.0986,-3.0986,-3.0986,-3.0986,-3.0986,-3.0986,-3.0986,-3.0986,-3.0986,-3.0986,-3.0986,-3.0986,-3.0986,-3.0986,-3.0986,-3.0986,-3.0986,-3.1394,-3.1736,-3.1736,-3.2376,-3.2861,-3.2861,-3.3478,-3.4041,-3.4312,-3.4758,-3.5213,-3.5504,-3.5504,0.0,-3.5504,-3.5504,-3.5504,-3.5504,-3.5504,-3.5504,-3.5504,-3.5504,-3.5504,-3.5504,-3.5504,-3.5504,-3.5504,-3.5504,-3.5504,-3.5504,-3.5504,-3.5504,-3.5504,-3.5504,-3.5504,-3.5504,-3.5504,-3.5504,-3.5504,-3.5504,-3.5504,-3.5504,0.0,0.0,0.0,0.0,0.0,0.0,0.0,0.0,-2.4151,-2.4151,0.0,0.0,0.0,0.0,0.0,-2.7471,-2.7523,-2.7523,-2.7523,-2.7523,-2.7523,-2.7523,-2.7523,-2.7523,-2.7523,-2.7523,-2.7523,-2.7523,-2.7523,-2.7523,-2.7523,-2.7549,-2.7863,-2.8438,-2.9039,-2.9627,-3.0189,-3.0751,-3.0986,-3.0986,-3.0986,-3.0986,-3.0986,-3.0986,-3.0986,-3.0986,-3.0986,-3.0986,-3.0986,-3.0986,-3.0986,-3.0986,-3.0986,-3.0986,-3.0986,-3.0986,-3.0986,-3.0986,0.0,0.0,0.0,-3.0986,-3.0986,-3.0986,-3.096,-3.096,-3.096,-3.096,-3.096,-3.096,-3.0986,-3.0986,-3.0986,-3.0986,-3.0986,-3.0986,-3.0986,-3.1603,-3.2087,-3.2087,-3.272,-3.3422,-3.4177,-3.4245,-3.461,-3.5424,-3.5439,-3.5504,-3.5504,-3.5504,-3.5504,-3.5504,-3.5504,-3.5504,-3.5504,-3.5504,-3.5504,-3.5504,-3.5504,-3.5504,-3.5504,-3.5504,-3.5504,-3.5504,-3.5504,-3.5504,-3.5504,-3.5504,-3.5504,-3.5504,-3.5504,-3.5504,-3.5504,-3.5504,-3.5504,-3.5504,0.0,0.0,0.0,0.0,0.0,0.0,-2.4112,-2.4465,-2.4726,0.0,0.0,0.0,-2.6151,-2.6857,-2.7353,-2.751,-2.7523,-2.7523,-2.7523,-2.7523,-2.7523,-2.7523,-2.7523,-2.7523,-2.7523,-2.7523,-2.7523,-2.7523,-2.7523,-2.7523,-2.7536,-2.7954,-2.8464,-2.9052,-2.964,-3.0215,-3.0764,-3.0921,-3.0986,-3.0986,-3.0986,-3.0986,-3.0986,-3.0986,-3.0986,-3.0986,-3.0986,-3.0986,-3.0986,-3.0986,-3.0986,-3.0986,-3.0986,-3.0986,-3.0986,-3.0986,-3.0986,-3.0986,-3.0986,0.0,0.0,0.0,0.0,0.0,-3.0464,-3.0372,-3.0372,-3.0372,-3.0372,-3.049,-3.0908,-3.0986,-3.0986,-3.0986,-3.0986,-3.0986,-3.0986,-3.1198,-3.1334,-3.1334,-3.1955,-3.2506,-3.2706,-3.3199,-3.3837,0.0,-3.461,-3.4905,-3.5439,-3.5504,-3.5504,-3.5504,-3.5504,-3.5504,-3.5504,-3.5504,-3.5504,-3.5504,-3.5504,-3.5504,-3.5504,-3.5504,-3.5504,-3.5504,-3.5504,-3.5504,-3.5504,-3.5504,-3.5504,-3.5504,-3.5504,-3.5504,-3.5504,-3.5504,-3.5504,-3.5439,0.0,0.0,0.0,0.0,0.0,-2.4191,-2.4439,-2.4753,-2.5053,0.0,0.0,0.0,-2.6974,-2.7327,-2.7523,-2.7523,-2.7523,-2.7523,-2.7523,-2.7523,-2.7523,-2.7523,-2.7523,-2.7523,-2.7523,-2.7523,-2.7523,-2.7523,-2.7523,-2.7654,-2.7889,-2.8229,-2.883,-2.9653,-2.9993,-3.0451,-3.0986,-3.0986,-3.0986,-3.0986,-3.0986,-3.0986,-3.0986,-3.0986,-3.0986,-3.0986,-3.0986,-3.0986,-3.0986,-3.0986,-3.0986,-3.0986,-3.0986,-3.0986,-3.0986,-3.0986,-3.0986,-3.0986,-3.0986,-3.0817,-3.062,-3.062,0.0,0.0,-2.9849,-2.9784,-2.9784,-2.9784,-2.9784,-2.9876,-3.0215,-3.0281,-3.0346,-3.0594,-3.062,-3.0712,-3.0947,-3.0986,-3.0986,-3.0986,-3.1408,-3.1736,-3.2074,-3.2506,-3.3073,-3.3768,-3.3837,-3.4192,-3.4986,-3.5294,-3.5504,-3.5504,-3.5504,-3.5504,-3.5504,-3.5504,-3.5504,-3.5504,-3.5504,-3.5504,-3.5504,-3.5504,-3.5504,-3.5504,-3.5504,-3.5504,-3.5504,-3.5504,-3.5504,-3.5504,-3.5504,-3.5504,-3.5504,-3.5504,-3.5279,-3.4905,0.0,0.0,-2.4112,-2.4112,-2.4178,-2.4387,-2.4896,-2.514,-2.5341,0.0,-2.6412,-2.6961,-2.7471,-2.7523,-2.7523,-2.7523,-2.7523,-2.7523,-2.7523,-2.7523,-2.7523,-2.7523,-2.7523,-2.7523,-2.7523,-2.7523,-2.7562,-2.7628,-2.7628,-2.7915,-2.8477,-2.8543,-2.9131,-3.0137,-3.0202,-3.0516,-3.0986,-3.0911,-3.0911,-3.0986,-3.0986,-3.0986,-3.0986,-3.0986,-3.0986,-3.0986,-3.0986,-3.0986,-3.0986,-3.0986,-3.0986,-3.0986,-3.0986,-3.0986,-3.0986,-3.0986,-3.0986,-3.0973,-3.0908,-3.0516,-3.0124,-3.0059,-2.9653,0.0,-2.9196,-2.9183,-2.9183,-2.9183,-2.9183,-2.9196,-2.9274,-2.9274,-2.9444,-2.9954,-3.0045,-3.0268,-3.0895,-3.0986,-3.0986,-3.0986,-3.0986,-3.1259,-3.1942,-3.2015,-3.229,-3.3003,-3.3143,-3.3492,-3.4245,-3.4986,-3.5424,-3.5504,-3.5504,-3.5504,-3.5504,-3.5504,-3.5504,-3.5504,-3.5504,-3.5504,-3.5504,-3.5504,-3.5504,-3.5504,-3.5504,-3.5504,-3.5504,-3.5504,-3.5504,-3.5504,-3.5504,-3.5504,-3.5504,-3.5424,-3.4905,-3.4312,0.0,-2.4112,-2.4112,-2.4112,-2.4491,-2.4831,-2.5009,-2.5746,-2.6386,-2.6491,-2.7,-2.7406,-2.7523,-2.7523,-2.7523,-2.7523,-2.7523,-2.7523,-2.7523,-2.7523,-2.7523,-2.7523,-2.7523,-2.7523,-2.7523,-2.7523,-2.7758,-2.8203,-2.8203,-2.8516,-2.9118,-2.9575,-2.9915,-3.015,-3.062,-3.0882,-3.0986,-3.0266,-3.0343,-3.0986,-3.0986,-3.0986,-3.0986,-3.0986,-3.0986,-3.0986,-3.0986,-3.0986,-3.0986,-3.0986,-3.0986,-3.0986,-3.0986,-3.0986,-3.0986,-3.0986,-3.0986,-3.0882,-3.0424,-3.0215,-3.0019,-2.9562,-2.9366,0.0,-2.8673,-2.8556,-2.8556,-2.8556,-2.8556,-2.8699,-2.9196,-2.9274,-2.9314,-2.9431,-2.9444,-2.981,-3.0843,-3.0986,-3.0986,-3.0986,-3.0986,-3.1061,-3.1185,-3.1185,-3.1542,-3.229,-3.2861,-3.3492,-3.4245,-3.4461,-3.4824,-3.5504,-3.5504,-3.5504,-3.5504,-3.5504,-3.5504,-3.5504,-3.5504,-3.5504,-3.5504,-3.5504,-3.5504,-3.5504,-3.5504,-3.5504,-3.5504,-3.5504,-3.5504,-3.5504,-3.5504,-3.5504,-3.5424,-3.4758,-3.4461,-3.4095,-2.4112,-2.4112,-2.4204,-2.4491,-2.4779,-2.5219,-2.5733,-2.6308,-2.6778,-2.7053,-2.7353,-2.7523,-2.7523,-2.7523,-2.7523,-2.7523,-2.7523,-2.7523,-2.7523,-2.7523,-2.7523,-2.7523,-2.7523,-2.7667,-2.7941,-2.7954,-2.8242,-2.883,-2.883,-2.9131,-2.9719,-2.9516,-2.9638,-2.9933,-3.0215,-3.0101,-2.9704,-2.9704,-2.9947,-3.0343,-3.0343,-3.0583,-3.0986,-3.0986,-3.0986,-3.0986,-3.0986,-3.0986,-3.0986,-3.0986,-3.0986,-3.0986,-3.0986,-3.0986,-3.0986,-3.0986,-3.079,-3.0503,-3.0215,-2.9706,-2.9196,-2.8908,-2.8621,0.0,0.0,-2.7954,-2.7954,-2.7954,-2.7954,-2.8046,-2.8347,-2.8399,-2.8503,-2.8778,-2.883,-2.9144,-3.0019,-3.0137,-3.0137,-3.0137,-3.0137,-3.0137,-3.0137,-3.0385,-3.0808,-3.1516,-3.2232,-3.2777,-3.3199,-3.3891,-3.4461,-3.4905,-3.5279,-3.5504,-3.5504,-3.5504,-3.5504,-3.5504,-3.5504,-3.5504,-3.5504,-3.5504,-3.5504,-3.5504,-3.5504,-3.5504,-3.5504,-3.5504,-3.5504,-3.5439,-3.5052,-3.4905,-3.4839,-3.4056,-3.3547,-3.3129,-2.4112,-2.4204,-2.4426,-2.4883,-2.5205,-2.5664,-2.653,-2.6765,-2.7,-2.7471,-2.7523,-2.7523,-2.7523,-2.739,-2.7323,-2.7323,-2.7323,-2.7361,-2.7478,-2.7626,-2.7745,-2.7863,-2.7876,-2.8072,-2.8543,-2.8556,-2.8843,-2.9444,-2.9288,-2.9502,-2.9986,-2.9101,-2.9011,-2.9459,-2.9459,-2.9057,-2.8426,-2.8991,-2.9394,-2.9704,-2.9537,-3.0101,-3.0986,-3.0986,-3.0986,-3.0986,-3.0986,-3.0986,-3.0986,-3.0986,-3.0986,-3.0986,-3.0986,-3.0986,-3.0986,-3.0986,-3.066,-3.0255,-3.0032,-2.9274,-2.8503,-2.8268,-2.7863,-2.7523,0.0,0.0,0.0,-2.7523,-2.7523,-2.7523,-2.7523,-2.7523,-2.768,-2.8137,-2.8216,-2.8386,-2.8869,-2.8935,-2.9026,-2.9248,-2.9274,-2.9274,-2.9274,-2.9797,-3.032,-3.079,-3.1476,-3.1942,-3.2074,-3.3199,-3.4027,-3.4312,-3.4905,-3.5344,-3.5504,-3.5504,-3.5504,-3.5504,-3.5504,-3.5504,-3.5504,-3.5504,-3.5504,-3.5504,-3.5504,-3.5504,-3.5504,-3.5344,-3.5279,-3.5198,-3.4528,-3.4312,-3.4163,-3.3283,-3.2577,-3.2074,-2.4112,-2.4517,-2.4896,-2.5022,-2.5874,-2.6517,-2.6661,-2.7105,-2.7458,-2.7523,-2.7523,-2.7523,-2.7523,-2.6905,-2.6483,-2.6483,-2.6483,-2.6766,-2.7328,-2.7924,-2.8516,-2.9052,-2.9078,-2.9118,-2.917,-2.9183,-2.9457,-3.0045,-2.9234,-2.9126,-2.9693,-2.888,-2.8445,-2.8585,-2.8585,-2.8505,-2.8347,-2.773,-2.8371,-2.9626,-2.8821,-2.9537,-3.0986,-3.0986,-3.0986,-3.0986,-3.0986,-3.0986,-3.0986,-3.0986,-3.0986,-3.0986,-3.0986,-3.0986,-3.0986,-3.0986,-3.0934,-3.0673,-2.9653,-2.9274,-2.8935,-2.7889,-2.7575,-2.7523,-2.7523,0.0,-2.7523,-2.7523,0.0,-2.7523,-2.7523,0.0,0.0,-2.7615,-2.7628,-2.7654,-2.7719,-2.7732,-2.8111,-2.9157,-2.9274,-2.9274,-2.9274,-2.9797,-3.0163,-3.0228,-3.0773,-3.1394,-3.2087,-3.229,-3.2918,-3.4245,-3.438,-3.4758,-3.5504,-3.5504,-3.5504,-3.5504,-3.5504,-3.5504,-3.5504,-3.5504,-3.5504,-3.5504,-3.5504,-3.5504,-3.5424,-3.4758,-3.4461,-3.4461,-3.4312,-3.4312,-3.4095,-3.2706,-3.2146,-3.2015,-2.4549,-2.4805,-2.5232,-2.5837,-2.6347,-2.6778,-2.7118,-2.7379,-2.7523,-2.7523,-2.7523,-2.7523,-2.7523,-2.754,-2.7263,-2.6452,-2.713,-2.7493,-2.7289,-2.8027,-2.8647,-2.9248,-2.9274,-2.9204,-2.9039,-2.8979,-2.9024,-2.9123,-2.8725,-2.8668,-2.89,-2.8119,-2.773,-2.773,-2.773,-2.7406,-2.6928,-2.7103,-2.758,-2.8279,-2.8347,-2.9147,-3.0266,-3.0823,-3.0986,-3.0986,-3.0986,-3.0986,-3.0986,0.0,-3.0986,-3.0986,-3.0986,-3.0986,-3.0986,-3.0986,-3.0751,-3.0385,-2.9902,-2.9274,-2.8634,-2.815,-2.7771,-2.7523,-2.7523,-2.7523,-2.7523,-2.7523,0.0,0.0,0.0,0.0,0.0,0.0,-2.7523,-2.7523,-2.7523,-2.7523,-2.7719,-2.8203,0.0,0.0,-2.8726,-2.8974,-2.9405,-3.0085,-3.0346,-3.0769,-3.1455,-3.1882,-3.2349,-3.2989,-3.3822,-3.4461,-3.4824,-3.5279,-3.5504,-3.5504,-3.5504,-3.5504,-3.5504,-3.5504,-3.5504,-3.5504,-3.5504,-3.5213,-3.4758,-3.4461,-3.4041,-3.363,-3.3199,-3.3045,-3.2918,-3.1809,-3.1468,-3.1394,-2.4683,-2.5172,-2.5694,-2.6259,-2.6661,-2.7053,-2.7471,-2.7323,-2.7188,-2.7188,-2.7101,-2.7122,-2.7122,-2.7411,-2.7222,-2.6257,-2.7076,-2.7591,-2.7441,-2.8112,-2.8808,-2.9417,-2.943,-2.9157,-2.8672,-2.8684,-2.8574,-2.8426,-2.8187,-2.8028,-2.8039,-2.7255,-2.6857,-2.6857,-2.6857,-2.6456,-2.5895,-2.6539,-2.694,-2.7267,-2.7799,-2.8755,-2.9781,-3.0672,-3.0986,-3.0986,-3.0986,-3.0986,-3.0986,-3.0986,-3.0986,0.0,-3.0986,-3.0986,-3.0986,-3.0986,-3.0699,-3.0333,-3.0176,0.0,-2.8817,0.0,0.0,0.0,0.0,0.0,0.0,0.0,-2.7523,0.0,0.0,0.0,-2.7523,-2.7523,0.0,-2.7523,-2.7523,-2.7523,-2.7523,-2.7523,-2.7523,0.0,0.0,-2.8281,-2.8726,-2.9588,-2.9954,-3.032,-3.0725,-3.1449,-3.1869,-3.2074,-3.3129,-3.3891,-3.4312,-3.4905,-3.5279,-3.5504,-3.5504,-3.5504,-3.5504,-3.5504,-3.5504,-3.5504,-3.5279,-3.4839,-3.4245,-3.3891,-3.3408,-3.2804,-3.2087,-3.1809,-3.1736,-3.1185,-3.0986,-3.0986,-2.4326,-2.5589,-2.6414,-2.5693,-2.6629,-2.751,-2.7523,-2.6905,-2.6414,-2.6414,-2.622,-2.6033,-2.6033,-2.5855,-2.5635,-2.5624,-2.5635,-2.6228,-2.7625,-2.8411,-2.9051,-2.9628,-2.9654,-2.9266,-2.8402,-2.8402,-2.8414,-2.8426,-2.7649,-2.7267,-2.7185,-2.6385,-2.5895,-2.5895,-2.5895,-2.5895,-2.5895,-2.5895,-2.6467,-2.7185,-2.7267,-2.8211,-2.9781,0.0,-3.0986,-3.0986,-3.0986,0.0,0.0,-3.0986,-3.0986,0.0,0.0,0.0,0.0,0.0,0.0,0.0,0.0,0.0,0.0,-2.9392,0.0,0.0,0.0,0.0,-2.7523,0.0,0.0,-2.7523,-2.7523,-2.7523,-2.7523,-2.7523,-2.7523,0.0,0.0,-2.7523,-2.7523,-2.7523,-2.7523,-2.7536,0.0,-2.8059,-2.8399,-2.8438,-2.9497,-3.015,-3.0163,-3.0686,-3.132,-3.2074,-3.2146,-3.2847,-3.4312,-3.4312,-3.4758,-3.5504,-3.5504,-3.5504,-3.5504,-3.5504,-3.5504,-3.5439,-3.4677,-3.4312,-3.4177,-3.2777,-3.2146,-3.2074,-3.1334,-3.1061,-3.1048,-3.0986,-3.0986,-3.0986,-2.4119,-2.5081,-2.566,-2.544,-2.5738,-2.607,-2.607,-2.5861,-2.5773,-2.6115,-2.5804,-2.5697,-2.5949,-2.5932,-2.5753,-2.5164,-2.5931,-2.6571,-2.6819,-2.8069,-2.8785,-2.8876,-2.9381,-2.9069,-2.7649,-2.7568,-2.7325,-2.6775,-2.6456,-2.6302,-2.6302,-2.6063,-2.5895,-2.5895,-2.5895,-2.5895,-2.5895,-2.5895,-2.6063,-2.6456,-2.7568,-2.8676,-2.9781,0.0,-3.0986,-3.0986,-3.0986,-3.0986,0.0,-3.0986,-3.0986,-3.0986,-3.0986,-3.0986,-3.0986,-3.0986,-3.0583,-3.0215,0.0,0.0,-2.8524,-2.8859,0.0,0.0,0.0,0.0,0.0,0.0,0.0,0.0,-2.7523,-2.7523,-2.7523,-2.7523,-2.7523,-2.7523,0.0,-2.7523,-2.7523,-2.7523,-2.7523,-2.7523,-2.7523,-2.7693,-2.7968,-2.8347,-2.8752,-2.9314,-3.0098,-3.032,-3.0729,-3.1307,-3.1882,-3.2362,-3.2847,-3.3353,-3.3973,-3.4691,-3.4691,-3.4971,-3.5504,-3.4986,-3.4691,-3.4677,-3.3905,-3.3283,-3.2777,-3.229,-3.1809,-3.1294,-3.0629,-3.0424,-3.0464,-3.0843,-3.0751,-3.0372,-2.3638,-2.4143,-2.4587,-2.4862,-2.4862,-2.4933,-2.5241,-2.5254,-2.5205,-2.5323,-2.5113,-2.5129,-2.5431,-2.5541,-2.5396,-2.5057,-2.5827,-2.6294,-2.6358,-2.7645,-2.8378,-2.8176,-2.8912,-2.8609,-2.7267,-2.7021,-2.6693,-2.6135,-2.5979,-2.5895,-2.5895,-2.5895,-2.5895,-2.5895,-2.5895,-2.5895,-2.5895,-2.5895,-2.5895,-2.6063,-2.7718,-2.8743,0.0,0.0,-3.0986,-3.0986,0.0,-3.0986,-3.0986,-3.0986,-3.0986,-3.0986,-3.0986,-3.0823,-3.0508,-3.0508,-2.9947,-2.9381,-2.9947,-2.8966,0.0,-2.8528,-2.7819,0.0,-2.7213,0.0,-2.7356,0.0,0.0,0.0,0.0,-2.7323,-2.7523,-2.7523,-2.7523,-2.739,0.0,-2.6905,-2.6701,-2.6701,-2.7175,-2.7523,-2.7523,-2.7523,-2.768,-2.8046,-2.8268,-2.8712,-2.947,-2.9902,-3.0307,-3.0673,-3.1362,-3.1809,-3.2074,-3.2577,-3.3283,-3.4312,-3.4312,-3.4743,-3.5439,-3.4677,-3.4312,-3.423,-3.3199,-3.2506,-3.206,-3.1581,-3.109,-3.062,-3.0059,-2.9836,-2.9876,-3.0241,-3.015,-2.9745,-2.3001,-2.3001,-2.3213,-2.3902,-2.4047,-2.4276,-2.5123,-2.4947,-2.4631,-2.4185,-2.4314,-2.4465,-2.4486,-2.4486,-2.4672,-2.5212,-2.5256,-2.5558,-2.6427,-2.7289,-2.781,-2.7799,-2.8211,-2.8063,-2.7185,-2.6775,-2.6528,-2.6528,-2.6135,-2.5895,-2.5895,-2.5895,-2.5895,-2.5895,-2.5895,-2.5895,-2.5895,-2.5895,-2.5895,-2.6063,-2.7718,-2.8347,-2.8505,-3.0266,-3.0898,-3.0898,-3.0898,-3.0911,-3.0898,-3.0911,-3.0898,-3.0898,-3.0898,-3.0266,-2.9626,-2.9626,-2.8978,-2.8347,-2.8426,-2.8347,-2.8267,-2.8347,-2.7963,0.0,0.0,0.0,-2.7569,0.0,0.0,0.0,0.0,-2.6905,-2.739,-2.739,-2.739,-2.7188,-2.6414,-2.5721,-2.5312,-2.5382,-2.6552,-2.7456,-2.7456,-2.7469,-2.7523,-2.7523,-2.8033,-2.8347,-2.8386,-2.9444,-3.0059,-3.0098,-3.0647,-3.1281,-3.196,-3.206,-3.2777,-3.4163,-3.4163,-3.461,-3.5359,-3.4543,-3.4148,-3.4052,-3.2593,-3.196,-3.1879,-3.0586,-3.0098,-3.0032,-2.9457,-2.9222,-2.9196,-2.9222,-2.9235,-2.9157,-2.3001,-2.3001,-2.3075,-2.3287,-2.3276,-2.3483,-2.3999,-2.3779,-2.3696,-2.4327,-2.415,-2.4071,-2.4454,-2.4486,-2.4821,-2.5583,-2.5628,-2.6015,-2.6955,-2.782,-2.8051,-2.7418,-2.8063,-2.8063,-2.7185,-2.6775,-2.6528,-2.6528,-2.6135,-2.5895,-2.5895,-2.5895,-2.5895,-2.5895,-2.5895,-2.5895,-2.5895,-2.5895,-2.5895,-2.5979,-2.7092,-2.7487,-2.7649,0.0,-2.9069,-2.9147,-2.9781,-3.0024,-2.9935,-2.9303,-2.9069,-2.9069,-2.9069,-2.89,-2.8743,-2.8743,-2.8119,-2.7649,-2.8267,-2.7476,-2.6775,-2.7718,-2.7151,-2.6563,0.0,0.0,0.0,0.0,0.0,0.0,0.0,0.0,-2.5861,-2.5861,-2.5861,-2.5791,-2.5581,-2.5441,-2.5511,-2.607,-2.6414,-2.6701,-2.6701,-2.7175,-2.7523,-2.7523,-2.7667,-2.7941,-2.836,0.0,-2.9039,-2.9483,-3.0059,-3.042,-3.0626,-3.1048,-3.1736,-3.2635,-3.2635,-3.3073,-3.3782,-3.3003,-3.2386,-3.1972,-3.1034,-3.0375,-2.9966,-2.9633,-2.9497,-2.9444,-2.8843,-2.8347,-2.8033,-2.8451,-2.8608,-2.8529,-2.3224,-2.315,-2.3001,-2.3001,-2.315,-2.3312,-2.3372,-2.3362,-2.3602,-2.4388,-2.441,-2.4628,-2.5349,-2.5392,-2.5602,-2.608,-2.6357,-2.6553,-2.6864,-2.7716,-2.8007,-2.7534,-2.8167,-2.8247,-2.7765,-2.736,-2.7126,-2.7126,-2.6456,-2.6135,-2.6135,-2.5979,-2.5895,-2.5895,-2.5895,-2.5895,-2.5895,-2.6052,-2.6135,-2.6302,-2.7336,-2.7661,0.0,-2.8359,-2.8585,-2.8426,-2.8597,-2.8834,-2.9057,-2.8585,-2.8426,-2.8426,-2.8426,-2.8187,-2.7879,-2.7879,-2.7244,-2.6693,-2.7162,-2.6775,-2.629,-2.7092,-2.6857,-2.6543,-2.6978,-2.7057,-2.6734,0.0,-2.6202,-2.6115,0.0,0.0,0.0,-2.5312,-2.5004,-2.4791,-2.4791,-2.4515,-2.4576,-2.5334,-2.5405,-2.5627,-2.6346,-2.704,-2.7523,-2.7523,-2.7523,-2.7667,-2.7994,0.0,-2.8529,-2.8882,-2.9457,-2.9758,-2.9758,-3.0085,-3.0652,-3.1384,-3.1384,-3.1722,-3.2412,-3.1722,-3.1194,-3.0812,-3.009,-2.9575,-2.9261,-2.9,-2.8882,-2.883,-2.8242,-2.7811,-2.7562,-2.7889,-2.8007,-2.7968,-2.3593,-2.3298,-2.3001,-2.3001,-2.3427,-2.3642,-2.3326,-2.3623,0.0,-2.4588,-2.5113,-2.576,-2.6615,-2.6808,-2.6885,-2.6794,-2.7218,-2.7267,-2.6759,-2.7554,-2.7962,-2.7962,-2.8283,-2.851,-2.851,-2.8122,-2.7893,-2.7893,-2.7033,-2.6528,-2.6528,-2.6135,-2.5979,-2.5895,-2.5895,-2.5895,-2.5895,-2.6373,-2.6528,-2.661,-2.7822,-2.8063,-2.7799,-2.853,-2.8597,-2.8108,-2.7418,-2.7649,-2.8267,-2.8108,-2.8108,-2.8108,-2.8108,-2.7568,-2.7021,-2.7103,-2.6539,-2.5895,-2.6063,-2.629,-2.6528,-2.661,-2.694,-2.7103,-2.6775,-2.7162,-2.7175,-2.5577,-2.6014,-2.6269,0.0,0.0,0.0,-2.5099,-2.4492,-2.4047,-2.4047,-2.3423,-2.3276,-2.4047,-2.4108,0.0,-2.6139,-2.6905,-2.739,-2.7456,-2.7523,-2.7523,-2.7523,0.0,-2.8268,-2.8268,-2.8843,-2.9157,-2.9157,-2.9248,-2.9601,-3.0255,-3.0255,-3.0583,-3.1188,-3.0515,-3.0201,-3.0133,-2.9495,-2.9118,-2.9013,-2.849,-2.8268,-2.8216,-2.7719,-2.7523,-2.7523,-2.7523,-2.7523,-2.7523,-2.3677,-2.3298,-2.3001,-2.3001,-2.3705,-2.4419,-2.4747,-2.4792,-2.4948,-2.5472,-2.6378,-2.6992,-2.716,-2.7912,-2.8383,-2.8267,-2.8327,-2.8269,-2.8164,-2.8303,-2.8351,-2.8351,-2.8431,-2.851,-2.851,-2.8122,-2.7893,-2.7893,-2.736,-2.6857,-2.6528,-2.6445,-2.6218,-2.5895,-2.5895,-2.5895,-2.5895,-2.6373,0.0,-2.6528,-2.7185,-2.7336,-2.7336,-2.7499,-2.7499,-2.7418,-2.7267,-2.7255,-2.7336,-2.661,-2.6373,-2.6373,-2.6373,-2.6218,-2.6218,-2.6528,-2.629,-2.6063,-2.6787,-2.6775,-2.6693,-2.7464,-2.7452,-2.7278,-2.7626,-2.7196,-2.6546,-2.5809,-2.5464,-2.5124,-2.4498,0.0,0.0,0.0,0.0,0.0,0.0,-2.3287,-2.3276,-2.4047,-2.4108,-2.448,-2.537,-2.6139,-2.6837,-2.7456,-2.7523,-2.7523,-2.7523,0.0,-2.768,0.0,-2.8229,-2.8543,0.0,0.0,-2.9345,-2.9473,-2.9473,-2.9544,-2.9671,-2.9544,-2.9197,-2.8723,-2.8599,-2.8268,-2.7824,-2.7719,-2.768,-2.7667,-2.7562,-2.7523,-2.7523,-2.7523,-2.7523,-2.7523,-2.3751,-2.3446,-2.3375,-2.3705,-2.454,0.0,0.0,-2.6817,-2.7334,-2.736,-2.7804,-2.8282,-2.8706,-2.9431,-2.9631,-2.9092,-2.9284,-2.9117,-2.8558,-2.851,-2.851,-2.851,-2.851,-2.851,-2.851,-2.8283,-2.8203,-2.8203,-2.7788,-2.7452,-2.7208,-2.6693,-2.6373,-2.6207,-2.6207,-2.6135,0.0,0.0,0.0,-2.694,-2.7592,-2.7777,-2.7534,-2.7534,-2.7441,-2.7185,-2.7185,-2.7185,-2.7103,-2.6704,-2.6373,-2.6207,-2.6456,-2.6373,-2.629,-2.6693,-2.6693,-2.6704,-2.7103,-2.7196,-2.729,-2.78,-2.7708,-2.7534,-2.7534,-2.7033,-2.6461,-2.6214,-2.5766,-2.5284,-2.4782,-2.4237,0.0,0.0,0.0,0.0,0.0,-2.3446,-2.3508,-2.4047,-2.3768,-2.3998,-2.5158,-2.5205,-2.5697,-2.6824,-2.6905,-2.7108,-2.7469,0.0,-2.7523,0.0,0.0,0.0,-2.7941,0.0,-2.8373,-2.8373,-2.8373,-2.8373,-2.8373,-2.8373,-2.8216,-2.7941,-2.7941,-2.7785,-2.7523,-2.7523,-2.7523,-2.7523,-2.7523,-2.7523,-2.7523,-2.7523,-2.7523,-2.7523,-2.4107,-2.4062,-2.4213,-2.4785,-2.5761,-2.6662,-2.7481,-2.8787,-2.9526,-2.9005,-2.908,-2.9519,-3.0316,-3.0758,-3.0702,-2.9662,-2.9917,-2.9641,-2.8582,-2.851,-2.851,-2.851,-2.851,-2.851,-2.851,-2.851,-2.851,0.0,0.0,-2.7962,-2.7881,-2.7126,-2.6775,-2.6693,0.0,0.0,0.0,0.0,-2.7708,-2.7441,-2.8179,-2.8283,-2.8042,-2.8042,-2.7777,-2.751,-2.751,-2.751,-2.751,-2.751,-2.7103,-2.6693,-2.7092,-2.694,-2.6775,-2.7185,-2.7278,-2.7267,-2.7429,-2.7696,-2.7893,-2.7893,-2.7893,-2.7719,-2.7185,-2.6857,-2.661,-2.6528,-2.6208,-2.5722,-2.5044,-2.4379,0.0,0.0,0.0,0.0,0.0,0.0,-2.3728,-2.4059,-2.3423,-2.3508,-2.4802,-2.4276,-2.4409,-2.5849,-2.6208,-2.662,-2.7255,-2.739,-2.7523,0.0,0.0,-2.7523,-2.7523,0.0,-2.7523,-2.7523,-2.7523,-2.7523,-2.7523,-2.7523,-2.7523,-2.7523,-2.7523,-2.7523,-2.7523,-2.7523,-2.7523,-2.7523,-2.7523,-2.7523,-2.7523,-2.7523,-2.7523,-2.7523,-2.5218,-2.5472,-2.5793,0.0,0.0,-2.8645,-2.9176,-3.0131,-3.0455,-2.9456,-3.0132,-3.0754,-3.0836,-3.1306,-3.124,-3.0097,-3.0086,-2.9641,-2.8582,-2.851,-2.851,-2.851,-2.851,-2.851,-2.851,-2.851,-2.851,0.0,0.0,-2.8283,0.0,-2.78,-2.7534,0.0,0.0,0.0,0.0,-2.7626,-2.7881,-2.7881,-2.8351,-2.851,-2.8431,-2.8431,-2.8431,-2.8339,-2.8339,-2.8339,-2.8339,-2.8339,-2.7846,-2.7185,-2.7185,-2.7185,-2.7267,-2.7708,-2.7534,-2.7348,-2.8179,-2.8111,-2.7893,-2.7893,-2.7893,-2.7638,-2.6775,-2.6857,-2.701,-2.661,-2.6336,-2.5983,-2.4976,-2.5016,-2.5028,0.0,0.0,0.0,0.0,0.0,-2.3751,-2.4116,-2.3519,-2.3224,-2.374,-2.3361,-2.3412,-2.4253,-2.5627,-2.6427,-2.6483,-2.7121,-2.7523,-2.7523,-2.7523,-2.7523,-2.7523,-2.7523,-2.7523,-2.7523,-2.7523,-2.7523,-2.7523,-2.7523,-2.7523,-2.7523,-2.7523,-2.7523,-2.7523,-2.7523,-2.7523,-2.7523,-2.7523,-2.7523,-2.7523,-2.7523,-2.7523,-2.7523,0.0,0.0,0.0,0.0,0.0,0.0,0.0,-3.0913,-3.1276,-3.0787,-3.1133,-3.1395,-3.1395,-3.1572,-3.124,-3.0182,-3.0086,-2.9641,-2.8582,-2.851,-2.851,-2.851,-2.851,-2.851,-2.851,-2.851,-2.851,0.0,0.0,0.0,0.0,0.0,0.0,0.0,0.0,-2.7441,-2.7267,-2.7938,-2.8122,-2.7973,-2.8351,-2.851,-2.851,-2.851,-2.851,-2.851,-2.851,-2.851,-2.851,-2.851,-2.8111,-2.7696,-2.7926,-2.7777,-2.7708,-2.8111,-2.8111,-2.8099,-2.8431,-2.8203,-2.7962,-2.8203,-2.7857,-2.7452,-2.7371,-2.7278,-2.7105,-2.6875,-2.6464,-2.6077,-2.566,-2.5266,-2.5052,-2.5123,0.0,0.0,0.0,0.0,-2.4273,-2.42,-2.3666,-2.3446,-2.3593,-2.3224,-2.3139,-2.3423,-2.4409,-2.5405,-2.6346,-2.6701,-2.704,-2.7456,0.0,-2.7523,-2.7523,-2.7523,-2.7523,-2.7523,-2.7523,-2.7523,-2.7523,-2.7523,-2.7523,-2.7523,-2.7523,-2.7523,-2.7523,-2.7523,-2.7523,-2.7523,-2.7523,-2.7523,-2.7523,-2.7523,-2.7523,-2.7523,-2.7672,0.0,-2.8277,0.0,-2.9747,-3.0405,-3.1048,-3.1432,-3.1661,-3.1661,-3.1661,-3.1661,-3.1661,-3.1529,-3.1072,-3.017,-2.9941,-2.9472,-2.857,-2.851,-2.851,-2.851,-2.851,0.0,-2.851,-2.851,-2.851,-2.851,-2.851,0.0,0.0,0.0,0.0,0.0,-2.795,-2.7869,-2.7603,-2.8259,-2.8363,-2.8122,-2.8363,-2.851,-2.851,-2.851,-2.851,-2.851,-2.851,-2.851,-2.851,-2.851,-2.8283,-2.8122,-2.8431,-2.8283,-2.8122,-2.8431,-2.851,-2.851,-2.851,-2.8271,-2.8122,-2.8271,-2.7857,-2.7441,-2.7626,-2.7418,-2.7104,-2.683,-2.6399,-2.6045,-2.5889,-2.5362,-2.5052,-2.5241,0.0,0.0,0.0,-2.4861,0.0,-2.4418,-2.3897,-2.3593,-2.3593,-2.3224,-2.3001,0.0,0.0,-2.4696,-2.6,-2.6277,0.0,0.0,0.0,0.0,-2.7523,-2.7523,-2.7523,-2.7523,-2.7523,-2.7523,-2.7523,-2.7523,-2.7523,-2.7523,-2.7523,-2.7523,-2.7523,-2.7523,-2.7523,-2.7523,-2.7523,-2.7523,-2.7523,-2.7523,-2.7523,-2.7523,-2.9172,-2.9701,-3.0218,-3.0759,-3.13,-3.1649,-3.1661,-3.1661,-3.1661,-3.1661,-3.1661,-3.1661,-3.1661,-3.1204,-3.0675,-3.0134,-2.9605,-2.9076,-2.8546,-2.851,-2.851,0.0,0.0,-2.851,-2.851,-2.851,-2.851,-2.851,0.0,0.0,-2.851,0.0,-2.851,-2.851,-2.851,-2.851,-2.851,-2.851,-2.851,-2.851,-2.851,-2.851,-2.851,-2.851,-2.851,-2.851,-2.851,-2.851,-2.851,-2.851,-2.851,-2.851,-2.851,-2.851,-2.851,-2.851,-2.851,-2.851,-2.851,-2.851,-2.8431,-2.8042,-2.7893,-2.7788,-2.7278,-2.7115,-2.6931,-2.626,-2.6105,-2.5937,-2.5408,-2.5312,-2.5312,-2.5312,0.0,0.0,0.0,-2.4981,0.0,-2.479,-2.4127,-2.3593,-2.3593,-2.3224,-2.3001,0.0,0.0,0.0,0.0,0.0,0.0,-2.7469,-2.7523,0.0,-2.7523,-2.7523,-2.7523,-2.7523,-2.7523,-2.7523,-2.7523,-2.7523,-2.7523,-2.7523,-2.7523,-2.7523,-2.7523,-2.7523,-2.7523,-2.7523,-2.7523,-2.7523,-2.7523,-2.7523,-2.7523,-2.7523,-3.0266,-3.0506,-3.0783,-3.1312,-3.1553,-3.1661,-3.1661,-3.1661,-3.1661,-3.1661,-3.1661,-3.1661,-3.1661,-3.1192,-3.0663,0.0,-2.9605,-2.9076,0.0,-2.851,-2.851,-2.851,-2.851,-2.851,-2.851,-2.851,-2.851,-2.851,0.0,0.0,0.0,-2.851,-2.851,-2.851,-2.851,-2.851,-2.851,-2.851,-2.851,-2.851,-2.851,-2.851,-2.851,-2.851,-2.851,-2.851,-2.851,-2.851,-2.851,-2.851,-2.851,-2.851,-2.851,-2.851,-2.851,-2.851,-2.851,-2.851,-2.851,-2.8283,-2.8122,-2.8271,-2.7838,-2.7408,-2.7486,-2.6942,-2.6354,-2.6166,-2.5817,-2.5504,-2.5336,-2.5312,-2.5312,-2.5312,-2.5312,0.0,-2.5312,0.0,-2.479,-2.479,-2.4116,-2.3593,-2.3593,-2.3224,0.0,0.0,0.0,0.0,0.0,0.0,0.0,0.0,-2.7523,0.0,-2.7523,-2.7523,-2.7523,-2.7523,-2.7523,-2.7523,-2.7523,-2.7523,-2.7523,-2.7523,-2.7523,-2.7523,-2.7523,-2.7523,-2.7523,-2.7523,-2.7523,-2.7523,-2.7523,-2.7523,-2.7523,-2.7523,-3.1108,-3.1168,-3.1276,-3.1613,-3.1661,-3.1661,-3.1661,-3.1661,-3.1661,-3.1661,-3.1661,-3.1661,-3.1661,-3.1011,0.0,-3.0122,-2.9424,-2.8871,-2.8534,-2.851,-2.851,-2.851,-2.851,-2.851,-2.851,-2.851,0.0,-2.851,-2.851,-2.851,-2.851,-2.851,-2.851,-2.851,-2.851,-2.851,-2.851,-2.851,-2.851,-2.851,-2.851,-2.851,-2.851,-2.851,-2.851,-2.851,-2.851,-2.851,-2.851,-2.851,-2.851,-2.851,-2.851,-2.8378,-2.8246,-2.845,-2.851,-2.851,-2.851,-2.8351,-2.8155,-2.8191,-2.7722,-2.7287,-2.7124,-2.6586,-2.6045,-2.5841,-2.554,-2.5312,-2.5312,-2.5312,-2.5312,-2.5312,-2.5312,-2.5312,-2.5312,0.0,-2.4718,0.0,0.0,0.0,0.0,-2.3224,-2.3075,0.0,0.0,0.0,0.0,0.0,0.0,-2.7469,-2.7523,-2.7523,-2.7523,-2.7523,-2.7523,-2.7523,-2.7523,-2.7523,-2.7523,-2.7523,-2.7523,-2.7523,-2.7523,-2.7523,-2.7523,-2.7523,-2.7523,-2.7523,-2.7523,-2.7523,-2.7523,-2.7523,-2.7523,-2.7523,-3.1661,-3.1661,-3.1661,-3.1661,-3.1661,-3.1661,-3.1661,-3.1661,-3.1661,-3.1661,-3.1661,-3.1649,-3.1613,-3.0699,-3.0074,-3.0037,0.0,0.0,-2.851,-2.851,-2.851,-2.851,-2.851,-2.851,-2.851,-2.851,-2.851,-2.851,-2.851,-2.851,-2.851,-2.851,-2.851,-2.851,-2.851,-2.851,-2.851,-2.851,-2.851,-2.851,-2.851,-2.851,-2.851,-2.851,-2.851,-2.851,-2.851,-2.851,-2.851,-2.851,-2.851,-2.8498,-2.8474,-2.8114,-2.7813,-2.8318,-2.8426,-2.8402,-2.8402,-2.8402,-2.8282,-2.7789,-2.7633,-2.7332,-2.6286,-2.6045,-2.5901,-2.5408,-2.5312,-2.5312,-2.5312,-2.5312,-2.5312,-2.5312,-2.5312,-2.5312,-2.5312,-2.4981,-2.4646,0.0,0.0,0.0,-2.3666,-2.3298,-2.3224,0.0,0.0,0.0,0.0,0.0,-2.5931,-2.739,-2.7456,-2.7523,-2.7523,-2.7523,-2.7523,-2.7523,-2.7523,-2.7523,-2.7523,-2.7523,-2.7523,-2.7523,-2.7523,-2.7523,-2.7523,-2.7523,-2.7523,-2.7523,-2.7523,-2.7523,-2.7523,-2.7523,-2.7523,-2.7523,0.0,0.0,-3.1661,-3.1661,-3.1661,-3.1661,-3.1661,-3.1661,-3.1661,-3.1661,-3.1661,-3.1517,-3.1108,-3.0482,-2.9929,-2.952,-2.8883,-2.851,-2.851,-2.851,-2.851,-2.851,-2.851,-2.851,-2.851,-2.851,-2.851,-2.851,-2.851,-2.851,-2.851,-2.851,-2.851,-2.851,-2.851,-2.851,-2.851,-2.851,-2.851,-2.851,-2.851,-2.851,-2.851,-2.851,-2.851,-2.851,-2.851,-2.851,-2.851,-2.851,-2.851,-2.8438,-2.8041,-2.7825,-2.7741,-2.7873,-2.7621,-2.7308,-2.7308,-2.7308,-2.7284,-2.7152,-2.6791,-2.631,-2.5648,-2.5492,-2.5456,-2.5336,-2.5312,-2.5312,-2.5312,-2.5312,-2.5312,-2.5312,-2.5312,-2.5312,-2.5312,-2.4981,-2.479,0.0,-2.4273,-2.4043,-2.4043,-2.397,-2.397,0.0,0.0,-2.3936,-2.4564,-2.442,-2.5052,-2.662,-2.7188,-2.7523,-2.7523,-2.7523,-2.7523,-2.7523,-2.7523,-2.7523,-2.7523,-2.7523,-2.7523,-2.7523,-2.7523,-2.7523,-2.7523,-2.7523,-2.7523,-2.7523,-2.7523,-2.7523,-2.7523,-2.7523,-2.7523,-2.7523,-3.1661,-3.1661,-3.1661,-3.1661,-3.1661,-3.1661,-3.1661,-3.1661,-3.1661,-3.1661,-3.1661,-3.1456,-3.0927,-3.0398,-2.9869,-2.9352,-2.8823,-2.851,-2.851,-2.851,-2.851,-2.851,-2.851,-2.851,-2.851,-2.851,-2.851,-2.851,-2.851,-2.851,-2.851,-2.851,-2.851,-2.851,-2.851,-2.851,-2.851,-2.851,-2.851,-2.851,-2.851,-2.851,-2.851,-2.851,-2.851,-2.851,-2.851,-2.851,-2.851,-2.851,-2.8354,-2.8102,-2.7813,-2.738,-2.6983,-2.6983,-2.6959,-2.6935,-2.6935,-2.6935,-2.6875,-2.661,-2.6142,-2.5661,-2.5372,-2.5312,-2.5312,-2.5312,-2.5312,-2.5312,-2.5312,-2.5312,-2.5312,-2.5312,-2.5312,-2.5312,-2.5312,-2.4981,-2.479,-2.479,-2.4418,-2.4273,-2.449,-2.4345,-2.4273,-2.449,-2.4127,0.0,-2.4455,-2.485,-2.5405,-2.6346,-2.6769,-2.7188,-2.7523,-2.7523,-2.7523,-2.7523,-2.7523,-2.7523,-2.7523,-2.7523,-2.7523,-2.7523,-2.7523,-2.7523,-2.7523,-2.7523,-2.7523,-2.7523,-2.7523,-2.7323,-2.6973,-2.6973,-2.6769,-2.6483,-3.1661,-3.1661,-3.1661,-3.1661,-3.1661,-3.1661,-3.1661,-3.1661,-3.1661,-3.1661,-3.1589,-3.1336,-3.0819,-3.029,-2.9749,-2.9232,-2.8775,-2.851,-2.851,-2.851,-2.851,-2.851,-2.851,-2.851,-2.851,-2.851,-2.851,-2.851,-2.851,-2.851,-2.851,-2.851,-2.851,-2.851,-2.851,-2.851,-2.851,-2.851,-2.851,-2.851,-2.851,-2.851,-2.851,-2.851,-2.851,-2.851,-2.851,-2.851,-2.8498,-2.8414,-2.8089,-2.7693,-2.7524,-2.6839,-2.6081,-2.5997,-2.631,-2.6683,-2.6683,-2.6683,-2.6574,-2.6093,-2.5636,-2.5312,-2.5312,-2.5312,-2.5312,-2.5312,-2.5312,-2.5312,-2.5312,-2.5312,-2.5312,-2.5312,-2.5312,-2.5312,-2.5312,0.0,-2.4861,-2.4861,-2.4562,-2.4478,-2.4861,-2.4562,-2.449,-2.4861,-2.449,-2.4273,-2.4273,-2.5229,-2.5918,-2.6139,-2.6483,-2.6905,-2.7456,-2.7523,-2.7523,-2.7523,-2.7523,-2.7456,-2.7323,-2.7456,-2.7456,-2.7323,-2.7456,-2.7523,-2.7456,-2.739,-2.7323,-2.7323,-2.7188,-2.6769,-2.6208,-2.6208,-2.5861,-2.5312,-3.1661,-3.1661,-3.1661,-3.1661,-3.1661,-3.1661,-3.1661,-3.1661,-3.1661,-3.1661,-3.1276,-3.0795,-3.0266,-2.9737,-2.9208,-2.8679,-2.8558,-2.851,-2.851,-2.851,-2.851,-2.851,-2.851,-2.851,-2.851,-2.851,-2.851,-2.851,-2.851,-2.851,-2.851,-2.851,-2.851,-2.851,-2.851,-2.851,-2.851,-2.851,-2.851,-2.851,-2.851,-2.851,-2.851,-2.851,-2.851,-2.851,-2.851,-2.851,-2.8438,-2.7993,-2.7789,-2.756,-2.6635,-2.6238,-2.6009,-2.5564,-2.5492,-2.5564,-2.5564,-2.5564,-2.554,-2.5444,-2.5372,-2.5312,-2.5312,-2.5312,-2.5312,-2.5312,-2.5312,-2.5312,-2.5312,-2.5312,-2.5312,-2.5312,-2.5312,-2.5312,-2.5312,0.0,-2.5241,-2.5241,-2.517,-2.517,-2.5241,-2.517,-2.517,-2.5241,-2.4921,-2.4718,-2.4718,-2.455,-2.4671,-2.4921,-2.6663,-2.7577,-2.7523,-2.7523,-2.7523,-2.7523,-2.7523,-2.7188,-2.6552,-2.7255,-2.7188,-2.6633,-2.7255,-2.7523,-2.7456,-2.6837,-2.6552,-2.6483,-2.5861,-2.5581,-2.5441,-2.5441,-2.5382,-2.5312,-3.1661,-3.1661,-3.1661,-3.1661,-3.1661,-3.1661,-3.1661,-3.1661,-3.1565,-3.1276,-3.1023,-3.0567,-2.9749,-2.9448,-2.9088,-2.8558,-2.851,-2.851,-2.851,-2.851,-2.851,-2.851,-2.851,-2.851,-2.851,-2.851,-2.851,-2.851,-2.851,-2.851,-2.851,-2.851,-2.851,-2.851,-2.851,-2.851,-2.851,-2.851,-2.851,-2.851,-2.851,-2.851,-2.851,-2.851,-2.851,-2.851,-2.851,-2.833,-2.8041,-2.7801,-2.7332,-2.6755,-2.625,-2.5901,-2.5624,-2.5384,-2.5312,-2.5312,-2.5312,-2.5312,-2.5312,-2.5312,-2.5312,-2.5312,-2.5312,-2.5312,-2.5312,-2.5312,-2.5312,-2.5312,-2.5312,-2.5312,-2.5312,-2.5312,-2.5312,0.0,-2.5312,-2.5312,-2.5312,-2.5312,-2.5312,-2.5312,-2.5312,-2.5312,-2.5312,-2.5312,-2.4992,-2.479,-2.479,-2.4683,-2.4659,-2.4707,-2.5836,-2.6688,-2.7255,-2.704,-2.7108,-2.7523,-2.7523,-2.7323,-2.6973,-2.7323,-2.7108,-2.6414,-2.6769,-2.6701,-2.6277,-2.5931,-2.5791,-2.5791,-2.5441,-2.5016,-2.4636,-2.4636,-2.4432,-2.4082,-3.1661,-3.1661,-3.1661,-3.1661,-3.1661,-3.1661,-3.1661,-3.1565,-3.1336,-3.0927,-3.0663,-3.0194,-2.9388,-2.9184,-2.8955,-2.8546,-2.851,-2.851,-2.851,-2.851,-2.851,-2.851,-2.851,-2.851,-2.851,-2.851,-2.851,-2.851,-2.851,-2.851,-2.851,-2.851,-2.851,-2.851,-2.851,-2.851,-2.851,-2.851,-2.851,-2.851,-2.851,-2.851,-2.851,-2.851,-2.851,-2.851,-2.851,-2.8174,-2.7705,-2.7584,-2.6899,-2.6069,-2.5949,-2.5636,-2.5312,-2.5312,-2.5312,-2.5312,-2.5312,-2.5312,-2.5312,-2.5312,-2.5312,-2.5312,-2.5312,-2.5312,-2.5312,-2.5312,-2.5312,-2.5312,-2.5312,-2.5312,-2.5312,-2.5312,0.0,-2.5312,-2.5312,-2.5312,-2.5312,-2.5312,-2.5312,-2.5312,-2.5312,-2.5312,-2.5312,-2.5312,-2.5052,-2.4921,-2.4921,-2.5028,-2.5004,-2.4862,-2.53,-2.5861,-2.662,-2.662,-2.6837,-2.7255,-2.7255,-2.7175,-2.6973,-2.6973,-2.6552,-2.5849,-2.6057,-2.5791,-2.5312,-2.5087,-2.5016,-2.5004,-2.4802,-2.436,-2.3829,-2.3829,-2.3486,-2.3001,-3.1661,-3.1661,-3.1661,-3.1661,-3.1661,-3.1661,-3.1661,-3.1252,-3.0915,-3.0879,-3.0025,-2.9388,-2.9304,-2.8871,-2.8546,-2.851,-2.851,-2.851,-2.851,-2.851,-2.851,-2.851,-2.851,-2.851,-2.851,-2.851,-2.851,-2.851,-2.851,-2.851,-2.851,-2.851,-2.851,-2.851,-2.851,-2.851,-2.851,-2.851,-2.851,-2.851,-2.851,-2.851,-2.851,-2.851,-2.851,-2.851,-2.851,-2.8174,-2.7645,-2.7152,-2.6598,-2.6009,-2.5528,-2.5336,-2.5312,-2.5312,-2.5312,-2.5312,-2.5312,-2.5312,-2.5312,-2.5312,-2.5312,-2.5312,-2.5312,-2.5312,-2.5312,-2.5312,-2.5312,-2.5312,-2.5312,-2.5312,-2.5312,-2.5312,0.0,0.0,-2.5312,-2.5312,-2.5312,-2.5312,-2.5312,-2.5312,-2.5312,-2.5312,-2.5312,-2.5312,-2.5312,-2.5241,-2.5241,-2.5241,-2.5241,-2.5241,-2.5931,-2.6,-2.5441,-2.6769,-2.7108,-2.6483,-2.6483,-2.6139,-2.5453,-2.5453,-2.5004,-2.4337,-2.5075,-2.5382,-2.5229,-2.4492,-2.4192,-2.412,-2.3423,-2.3139,-2.3065,-2.3065,-2.3075,-2.3001,-3.1661,-3.1661,-3.1661,-3.1661,-3.1661,-3.1553,-3.1216,-3.0999,-3.0639,-2.9977,-2.9544,-2.9172,-2.8847,-2.8631,-2.851,-2.851,-2.851,-2.851,-2.851,-2.851,-2.851,-2.851,-2.851,-2.851,-2.851,-2.851,-2.851,-2.851,-2.851,-2.851,-2.851,-2.851,-2.851,-2.851,-2.851,-2.851,-2.851,-2.851,-2.851,-2.851,-2.851,-2.851,-2.851,-2.851,-2.851,-2.851,-2.851,-2.7957,-2.72,-2.7007,-2.6346,-2.5576,-2.5372,-2.5312,-2.5312,-2.5312,-2.5312,-2.5312,-2.5312,-2.5312,-2.5312,-2.5312,-2.5312,-2.5312,-2.5312,-2.5312,-2.5312,-2.5312,-2.5312,-2.5312,-2.5312,-2.5312,-2.5312,-2.5312,0.0,-2.5312,-2.5312,-2.5312,-2.5312,-2.5312,-2.5312,-2.5312,-2.5312,-2.5312,-2.5312,-2.5312,-2.5111,-2.4909,-2.4611,-2.4166,-2.3863,-2.3863,-2.4564,-2.5063,-2.5312,-2.5346,-2.5475,-2.5721,-2.5721,-2.5581,-2.5312,-2.5312,-2.4862,-2.412,-2.4409,-2.4288,-2.3863,-2.3559,-2.3423,-2.3423,-2.3139,-2.3001,-2.3001,-2.3001,-2.3001,-2.3001,-3.1661,-3.1661,-3.1661,-3.1661,-3.1529,-3.1288,-3.0927,-3.0591,-3.0122,-2.94,-2.916,-2.8919,-2.8546,-2.851,-2.851,-2.851,-2.851,-2.851,-2.851,-2.851,-2.851,-2.851,-2.851,-2.851,-2.851,-2.851,-2.851,-2.851,-2.851,-2.851,-2.851,-2.851,-2.851,-2.851,-2.851,-2.851,-2.851,-2.851,-2.851,-2.851,-2.851,-2.851,-2.851,-2.851,-2.851,-2.8486,-2.8318,-2.7693,-2.6899,-2.6731,-2.6057,-2.5312,-2.5312,-2.5312,-2.5312,-2.5312,-2.5312,-2.5312,-2.5312,-2.5312,-2.5312,-2.5312,-2.5312,-2.5312,-2.5312,-2.5312,-2.5312,-2.5312,-2.5312,-2.5312,-2.5312,-2.5312,-2.5312,-2.5312,-2.5312,-2.5312,-2.5312,-2.5312,-2.5312,-2.5312,-2.5312,-2.5312,-2.5312,-2.5312,-2.5312,-2.5312,-2.4992,-2.4646,-2.4418,-2.3897,-2.3593,-2.3593,-2.3936,-2.4371,-2.4743,-2.4564,-2.4636,-2.4933,-2.4933,-2.4933,-2.4933,-2.4659,-2.4288,-2.3768,-2.3768,-2.3486,-2.3001,-2.3001,-2.3001,-2.3001,-2.3001,-2.3001,-2.3001,-2.3001,-2.3001,-2.3001,-3.1661,-3.1661,-3.1661,-3.1661,-3.1216,-3.0879,-3.0867,-2.9965,-2.9304,-2.9292,-2.8835,-2.851,-2.851,-2.851,-2.851,-2.851,-2.851,-2.851,-2.851,-2.851,-2.851,-2.851,-2.851,-2.851,-2.851,-2.851,-2.851,-2.851,-2.851,-2.851,-2.851,-2.851,-2.851,-2.851,-2.851,-2.851,-2.851,-2.851,-2.851,-2.851,-2.851,-2.851,-2.851,-2.851,-2.851,-2.8438,-2.7909,-2.738,-2.6839,-2.6286,-2.5745,-2.5312,-2.5312,-2.5312,-2.5312,-2.5312,-2.5312,-2.5312,-2.5312,-2.5312,-2.5312,-2.5312,-2.5312,-2.5312,-2.5312,-2.5312,-2.5312,-2.5312,-2.5312,-2.5312,-2.5312,-2.5312,-2.5312,-2.5312,-2.5312,-2.5312,-2.5312,-2.5312,-2.5312,-2.5312,-2.5312,-2.5312,-2.5312,-2.5312,-2.5312,-2.5312,-2.4992,-2.479,-2.479,-2.479,-2.479,-2.479,-2.4418,-2.397,-2.3593,-2.4743,-2.4862,-2.412,-2.412,-2.412,-2.4047,-2.335,-2.3001,-2.3001,-2.3001,-2.3001,-2.3001,-2.3001,-2.3001,-2.3001,-2.3001,-2.3001,-2.3001,-2.3001,-2.3001,-2.3001,-3.1849,-3.1761,-3.1541,-3.1168,-3.0975,-3.0627,-2.9881,-2.9508,-2.916,-2.8799,-2.8754,-2.8724,-2.8724,-2.8816,-2.8895,-2.8895,-2.8816,-2.8724,-2.8724,-2.8724,-2.8736,-2.8895,-2.8669,-2.851,-2.851,-2.851,-2.851,-2.851,-2.851,-2.851,-2.851,-2.851,-2.851,-2.851,-2.851,-2.851,-2.851,-2.851,-2.851,-2.851,-2.851,-2.851,-2.851,-2.851,-2.8282,-2.7933,-2.7777,-2.7128,-2.6322,-2.6154,-2.5745,-2.5312,-2.5312,-2.5312,-2.5312,-2.5312,-2.5312,-2.5312,-2.5312,-2.5312,-2.5312,-2.5312,-2.5312,-2.5312,-2.5312,-2.5312,-2.5312,-2.5312,-2.5312,-2.5312,-2.5312,-2.5312,-2.5312,-2.5312,-2.5312,-2.5312,-2.5312,-2.5312,-2.5312,-2.5312,-2.5312,-2.5312,-2.5312,-2.5312,-2.5312,-2.5312,-2.4992,-2.479,-2.479,-2.4502,-2.4345,-2.4345,-2.4273,-2.4116,-2.4043,-2.3801,-2.357,-2.335,-2.335,-2.335,-2.335,-2.3065,-2.3001,-2.3001,-2.3001,-2.3001,-2.3001,-2.3001,-2.3001,-2.3001,-2.3001,-2.3001,-2.3001,-2.3001,-2.3001,-2.3001,-3.1479,-3.1393,-3.1186,-3.087,-3.064,-3.0288,-2.9646,-2.9367,-2.91,-2.8785,-2.8816,-2.8882,-2.8882,-2.9052,-2.9131,-2.9131,-2.8961,-2.8882,-2.8882,-2.8882,-2.8961,-2.9131,-2.8895,-2.8749,-2.8749,-2.8749,-2.8749,-2.8749,-2.8657,-2.8657,-2.8657,-2.851,-2.851,-2.851,-2.851,-2.851,-2.851,-2.851,-2.851,-2.851,-2.851,-2.851,-2.8486,-2.8282,-2.7993,-2.7669,-2.7236,-2.6659,-2.6069,-2.5853,-2.5576,-2.5312,-2.5312,-2.5312,-2.5312,-2.5312,-2.5312,-2.5312,-2.5312,-2.5312,-2.5312,-2.5312,-2.5312,-2.5312,-2.5312,-2.5312,-2.5312,-2.5312,-2.5312,-2.5312,-2.5312,-2.5312,-2.5312,-2.5312,-2.5312,-2.5312,-2.5312,-2.5312,-2.5312,-2.5312,-2.5312,-2.5312,-2.5312,-2.5312,-2.5241,-2.5111,-2.4921,-2.479,-2.479,-2.4574,-2.4418,-2.4418,-2.4418,-2.4345,-2.42,-2.3751,-2.3372,-2.3224,-2.3075,-2.3001,-2.3001,-2.3001,-2.3001,-2.3001,-2.3001,-2.3001,-2.3001,-2.3001,-2.3001,-2.3001,-2.3001,-2.3001,-2.3001,-2.3001,-2.3001,-2.3001,-3.0741,-3.0741,-3.0646,-3.0679,-3.018,-2.9917,-2.988,-2.945,-2.9131,-2.9131,-2.9131,-2.9131,-2.9131,-2.9131,-2.9131,-2.9131,-2.9131,-2.9131,-2.9131,-2.9131,-2.9131,-2.9131,-2.9131,-2.9131,-2.9131,-2.9131,-2.9131,-2.9131,-2.8882,-2.8803,-2.8803,-2.8657,-2.859,-2.859,-2.859,-2.859,-2.859,-2.851,-2.851,-2.851,-2.851,-2.8474,-2.839,-2.7909,-2.7657,-2.744,-2.6454,-2.6069,-2.5949,-2.5468,-2.5312,-2.5312,-2.5312,-2.5312,-2.5312,-2.5312,-2.5312,-2.5312,-2.5312,-2.5312,-2.5312,-2.5312,-2.5312,-2.5312,-2.5312,-2.5312,-2.5312,-2.5312,-2.5312,-2.5312,-2.5312,-2.5312,-2.5312,-2.5312,-2.5312,-2.5312,-2.5312,-2.5312,-2.5312,-2.5312,-2.5312,-2.5312,-2.5312,-2.5312,-2.5182,-2.4861,-2.4861,-2.4861,-2.4861,-2.4861,-2.4861,-2.4861,-2.4861,-2.4646,-2.4273,-2.4154,-2.3998,-2.3677,-2.3224,-2.3054,-2.301,-2.2936,-2.2914,-2.287,-2.287,-2.287,-2.287,-2.287,-2.287,-2.287,-2.287,-2.287,-2.287,-2.287,-2.287,-2.287,-3.1001,-3.0823,-3.0606,-3.0188,-3.0016,-2.9794,-2.9376,-2.9204,-2.9131,-2.9131,-2.9275,-2.9341,-2.9341,-2.9534,-2.9624,-2.9624,-2.9443,-2.9341,-2.9341,-2.9341,-2.9443,-2.9624,-2.9624,-2.9624,-2.9624,-2.93,-2.9131,-2.9131,-2.9052,-2.904,-2.904,-2.8973,-2.8973,-2.8973,-2.8973,-2.8973,-2.8973,-2.8803,-2.8724,-2.8724,-2.8578,-2.827,-2.7885,-2.7765,-2.72,-2.6418,-2.6178,-2.5829,-2.5456,-2.5348,-2.5312,-2.5312,-2.5312,-2.5312,-2.5312,-2.5312,-2.5312,-2.5312,-2.5312,-2.5312,-2.5312,-2.5312,-2.5312,-2.5312,-2.5312,-2.5312,-2.5312,-2.5312,-2.5312,-2.5312,-2.5312,-2.5312,-2.5312,-2.5312,-2.5312,-2.5312,-2.5312,-2.5312,-2.5312,-2.5312,-2.5312,-2.5312,-2.5312,-2.5312,-2.5241,-2.5182,-2.5182,-2.5182,-2.5182,-2.5182,-2.5182,-2.5182,-2.5182,-2.504,-2.4646,-2.4012,-2.3798,-2.4043,-2.3677,-2.3245,-2.2938,-2.26,-2.2258,-2.1898,-2.1898,-2.1898,-2.1898,-2.1898,-2.1898,-2.1898,-2.1898,-2.1898,-2.1898,-2.1898,-2.1898,-2.1898,-3.0473,-3.0406,-3.0146,-2.994,-2.9878,-2.9791,-2.9506,-2.9456,-2.9456,-2.9456,-2.9534,-2.9599,-2.9599,-2.9702,-2.9792,-2.9792,-2.9689,-2.9599,-2.9599,-2.9599,-2.9689,-2.9792,-2.9792,-2.9792,-2.9792,-2.9546,-2.9456,-2.9456,-2.9287,-2.9197,-2.9131,-2.8973,-2.8895,-2.8816,-2.8816,-2.8816,-2.8816,-2.8736,-2.8657,-2.8633,-2.8234,-2.7969,-2.7669,-2.714,-2.6598,-2.6069,-2.5817,-2.554,-2.5312,-2.5312,-2.5312,-2.5312,-2.5312,-2.5312,-2.5312,-2.5312,-2.5312,-2.5312,-2.5312,-2.5312,-2.5312,-2.5312,-2.5312,-2.5312,-2.5312,-2.5312,-2.5312,-2.5312,-2.5312,-2.5312,-2.5312,-2.5312,-2.5312,-2.5312,-2.5312,-2.5312,-2.5312,-2.5312,-2.5312,-2.5312,-2.5312,-2.5312,-2.5312,-2.5312,-2.5312,-2.5312,-2.5312,-2.5312,-2.5312,-2.5312,-2.5312,-2.5312,-2.5059,-2.48,-2.4683,-2.3804,-2.3479,-2.3746,-2.2969,-2.255,-2.2306,-2.2035,-2.1832,-2.1592,-2.1592,-2.1592,-2.1592,-2.1592,-2.1592,-2.1592,-2.1592,-2.1592,-2.1592,-2.1592,-2.1592,-2.1592,-2.9792,-2.9792,-2.9792,-2.9792,-2.9792,-2.9792,-2.9792,-2.9792,-2.9792,-2.9792,-2.9792,-2.9792,-2.9792,-2.9792,-2.9792,-2.9792,-2.9792,-2.9792,-2.9792,-2.9792,-2.9792,-2.9792,-2.9792,-2.9792,-2.9792,-2.9792,-2.9792,-2.9792,-2.9599,-2.9353,-2.9221,-2.9052,-2.8895,-2.8749,-2.8657,-2.8657,-2.8669,-2.8578,-2.853,-2.8409,-2.7897,-2.7609,-2.7344,-2.6442,-2.6045,-2.5913,-2.5468,-2.5312,-2.5312,-2.5312,-2.5312,-2.5312,-2.5312,-2.5312,-2.5312,-2.5312,-2.5312,-2.5312,-2.5312,-2.5312,-2.5312,-2.5312,-2.5312,-2.5312,-2.5312,-2.5312,-2.5312,-2.5312,-2.5312,-2.5312,-2.5312,-2.5312,-2.5312,-2.5312,-2.5312,-2.5312,-2.5312,-2.5312,-2.5312,-2.5312,-2.5312,-2.5312,-2.5312,-2.5312,-2.5312,-2.5312,-2.5312,-2.5312,-2.5312,-2.5216,-2.5168,-2.5168,-2.4662,-2.4318,-2.4249,-2.3467,-2.3085,-2.294,-2.1981,-2.1523,-2.1531,-2.1531,-2.1417,-2.1341,-2.1341,-2.1341,-2.1341,-2.1341,-2.1341,-2.1341,-2.1341,-2.1341,-2.1341,-2.1341,-2.1341,-2.1341,-2.9792,-2.9792,-2.9792,-2.9792,-2.9792,-2.9792,-2.9792,-2.9792,-2.9792,-2.9792,-2.9792,-2.9792,-2.9792,-2.9792,-2.9792,-2.9792,-2.9792,-2.9792,-2.9792,-2.9792,-2.9792,-2.9792,-2.9792,-2.9792,-2.9792,-2.9792,-2.9792,-2.9792,-2.9792,-2.9702,-2.9714,-2.9714,-2.9624,-2.9624,-2.9365,-2.9263,-2.9263,-2.8882,-2.8458,-2.8033,-2.7818,-2.7152,-2.6298,-2.6154,-2.5817,-2.5408,-2.5336,-2.5312,-2.5312,-2.5312,-2.5312,-2.5312,-2.5312,-2.5312,-2.5312,-2.5312,-2.5312,-2.5312,-2.5312,-2.5312,-2.5312,-2.5312,-2.5312,-2.5312,-2.5312,-2.5312,-2.5312,-2.5312,-2.5312,-2.5312,-2.5312,-2.5312,-2.5312,-2.5312,-2.5312,-2.5312,-2.5312,-2.5312,-2.5312,-2.5312,-2.5312,-2.5312,-2.5312,-2.5312,-2.5312,-2.5312,-2.5312,-2.5312,-2.5312,-2.4879,-2.4626,-2.4626,-2.4133,-2.3735,-2.3376,-2.2881,-2.2437,-2.2085,-2.1518,-2.1334,-2.1408,-2.1151,-2.0729,-2.027,-2.027,-2.027,-2.027,-2.027,-2.027,-2.027,-2.027,-2.027,-2.027,-2.027,-2.027,-2.027,-2.9792,-2.9792,-2.9792,-2.9792,-2.9792,-2.9792,-2.9792,-2.9792,-2.9792,-2.9792,-2.9792,-2.9792,-2.9792,-2.9792,-2.9792,-2.9792,-2.9792,-2.9792,-2.9792,-2.9792,-2.9792,-2.9792,-2.9792,-2.9792,-2.9792,-2.9792,-2.9792,-2.9792,-2.9792,-2.9702,-2.9599,-2.9599,-2.9534,-2.9378,-2.9287,-2.9197,-2.9172,-2.8721,-2.8374,-2.8118,-2.7294,-2.6686,-2.6215,-2.5841,-2.5516,-2.5312,-2.5312,-2.5312,-2.5312,-2.5312,-2.5312,-2.5312,-2.5312,-2.5312,-2.5312,-2.5312,-2.5312,-2.5312,-2.5312,-2.5312,-2.5312,-2.5312,-2.5312,-2.5312,-2.5312,-2.5312,-2.5312,-2.5312,-2.5312,-2.5312,-2.5312,-2.5312,-2.5312,-2.5312,-2.5312,-2.5312,-2.5312,-2.5312,-2.5312,-2.5312,-2.5312,-2.5312,-2.5312,-2.5312,-2.5312,-2.5312,-2.5312,-2.518,-2.4879,-2.465,-2.4398,-2.4109,-2.3604,-2.3197,-2.2791,-2.2092,-2.1567,-2.1167,-2.0758,-2.0694,-2.096,-2.0775,-2.0468,-2.0085,-2.0085,-2.0085,-2.0085,-2.0085,-2.0085,-2.0085,-2.0085,-2.0085,-2.0085,-2.0085,-2.0085,-2.0085]},{"header":{"parameterUnit":"m.s-1","parameterCategory":1,"la1":30.6,"la2":28.766,"lo1":-90.7593,"lo2":-88.6598,"dy":0.0162,"dx":0.0183,"nx":116,"ny":114,"refTime":"2023-06-07T06:00:00:Z","depth":0,"parameterNumber":3,"parameterNumberName":"V-component_of_WINDS"},"data":[0.0,0.0,0.0,0.0,0.0,0.0,0.0,0.0,0.0,0.0,0.0,0.0,0.0,0.0,0.0,0.0,0.0,0.0,0.0,0.0,0.0,0.0,0.0,0.0,0.0,0.0,0.0,0.0,0.0,0.0,0.0,0.0,0.0,0.0,0.0,0.0,0.0,0.0,0.0,0.0,0.0,0.0,0.0,0.0,0.0,0.0,0.0,0.0,0.0,0.0,0.0,0.0,0.0,0.0,0.0,0.0,0.0,0.0,0.0,0.0,0.0,0.0,0.0,0.0,0.0,0.0,0.0,0.0,0.0,0.0,0.0,0.0,0.0,0.0,0.0,0.0,0.0,0.0,0.0,0.0,0.0,0.0,0.0,0.0,0.0,0.0,0.0,0.0,0.0,0.0,0.0,0.0,0.0,0.0,0.0,0.0,0.0,0.0,0.0,0.0,0.0,0.0,0.0,0.0,0.0,0.0,0.0,0.0,0.0,0.0,0.0,0.0,0.0,0.0,0.0,0.0,0.0,0.0,0.0,0.0,0.0,0.0,0.0,0.0,0.0,0.0,0.0,0.0,0.0,0.0,0.0,0.0,0.0,0.0,0.0,0.0,0.0,0.0,0.0,0.0,0.0,0.0,0.0,0.0,0.0,0.0,0.0,0.0,0.0,0.0,0.0,0.0,0.0,0.0,0.0,0.0,0.0,0.0,0.0,0.0,0.0,0.0,0.0,0.0,0.0,0.0,0.0,0.0,0.0,0.0,0.0,0.0,0.0,0.0,0.0,0.0,0.0,0.0,0.0,0.0,0.0,0.0,0.0,0.0,0.0,0.0,0.0,0.0,0.0,0.0,0.0,0.0,0.0,0.0,0.0,0.0,0.0,0.0,0.0,0.0,0.0,0.0,0.0,0.0,0.0,0.0,0.0,0.0,0.0,0.0,0.0,0.0,0.0,0.0,0.0,0.0,0.0,0.0,0.0,0.0,0.0,0.0,0.0,0.0,0.0,0.0,0.0,0.0,0.0,0.0,0.0,0.0,0.0,0.0,0.0,0.0,0.0,0.0,0.0,0.0,0.0,0.0,0.0,0.0,0.0,0.0,0.0,0.0,0.0,0.0,0.0,0.0,0.0,0.0,0.0,0.0,0.0,0.0,0.0,0.0,0.0,0.0,0.0,0.0,0.0,0.0,0.0,0.0,0.0,0.0,0.0,0.0,0.0,0.0,0.0,0.0,0.0,0.0,0.0,0.0,0.0,0.0,0.0,0.0,0.0,0.0,0.0,0.0,0.0,0.0,0.0,0.0,0.0,0.0,0.0,0.0,0.0,0.0,0.0,0.0,0.0,0.0,0.0,0.0,0.0,0.0,0.0,0.0,0.0,0.0,0.0,0.0,0.0,0.0,0.0,0.0,0.0,0.0,0.0,0.0,0.0,0.0,0.0,0.0,0.0,0.0,0.0,0.0,0.0,0.0,0.0,0.0,0.0,0.0,0.0,0.0,0.0,0.0,0.0,0.0,0.0,0.0,0.0,0.0,0.0,0.0,0.0,0.0,0.0,0.0,0.0,0.0,0.0,0.0,0.0,0.0,0.0,0.0,0.0,0.0,0.0,0.0,0.0,0.0,0.0,0.0,0.0,0.0,0.0,0.0,0.0,0.0,0.0,0.0,0.0,0.0,0.0,0.0,0.0,0.0,0.0,0.0,0.0,0.0,0.0,0.0,0.0,0.0,0.0,0.0,0.0,0.0,0.0,0.0,0.0,0.0,0.0,0.0,0.0,0.0,0.0,0.0,0.0,0.0,0.0,0.0,0.0,0.0,0.0,0.0,0.0,0.0,0.0,0.0,0.0,0.0,0.0,0.0,0.0,0.0,0.0,0.0,0.0,0.0,0.0,0.0,0.0,0.0,0.0,0.0,0.0,0.0,0.0,0.0,0.0,0.0,0.0,0.0,0.0,0.0,0.0,0.0,0.0,0.0,0.0,0.0,0.0,0.0,0.0,0.0,0.0,0.0,0.0,0.0,0.0,0.0,0.0,0.0,0.0,0.0,0.0,0.0,0.0,0.0,0.0,0.0,0.0,0.0,0.0,0.0,0.0,0.0,0.0,0.0,0.0,0.0,0.0,0.0,0.0,0.0,0.0,0.0,0.0,0.0,0.0,0.0,0.0,0.0,0.0,0.0,0.0,0.0,0.0,0.0,0.0,0.0,0.0,0.0,0.0,0.0,0.0,0.0,0.0,0.0,0.0,0.0,0.0,0.0,0.0,0.0,0.0,0.0,0.0,0.0,0.0,0.0,0.0,0.0,0.0,0.0,0.0,0.0,0.0,0.0,0.0,0.0,0.0,0.0,0.0,0.0,0.0,0.0,0.0,0.0,0.0,0.0,0.0,0.0,0.0,0.0,0.0,0.0,0.0,0.0,0.0,0.0,0.0,0.0,0.0,0.0,0.0,0.0,0.0,0.0,0.0,0.0,0.0,0.0,0.0,0.0,0.0,0.0,0.0,0.0,0.0,0.0,0.0,0.0,0.0,0.0,0.0,0.0,0.0,0.0,0.0,0.0,0.0,0.0,0.0,0.0,0.0,0.0,0.0,0.0,0.0,0.0,0.0,0.0,0.0,0.0,0.0,0.0,0.0,0.0,0.0,0.0,0.0,0.0,0.0,0.0,0.0,0.0,0.0,0.0,0.0,0.0,0.0,0.0,0.0,0.0,0.0,0.0,0.0,0.0,0.0,0.0,0.0,0.0,0.0,0.0,0.0,0.0,0.0,0.0,0.0,0.0,0.0,0.0,0.0,0.0,0.0,0.0,0.0,0.0,0.0,0.0,0.0,0.0,0.0,0.0,0.0,0.0,0.0,0.0,0.0,0.0,0.0,0.0,0.0,0.0,0.0,0.0,0.0,0.0,0.0,0.0,0.0,0.0,0.0,0.0,0.0,0.0,0.0,0.0,0.0,0.0,0.0,0.0,0.0,0.0,0.0,0.0,0.0,0.0,0.0,0.0,0.0,0.0,0.0,0.0,0.0,0.0,0.0,0.0,0.0,0.0,0.0,0.0,0.0,0.0,0.0,0.0,0.0,0.0,0.0,0.0,0.0,0.0,0.0,0.0,0.0,0.0,0.0,0.0,0.0,0.0,0.0,0.0,0.0,0.0,0.0,0.0,0.0,0.0,0.0,0.0,0.0,0.0,0.0,0.0,0.0,0.0,0.0,0.0,0.0,0.0,0.0,0.0,0.0,0.0,0.0,0.0,0.0,0.0,0.0,0.0,0.0,0.0,0.0,0.0,0.0,0.0,0.0,0.0,0.0,0.0,0.0,0.0,0.0,0.0,0.0,0.0,0.0,0.0,0.0,0.0,0.0,0.0,0.0,0.0,0.0,0.0,0.0,0.0,0.0,0.0,0.0,0.0,0.0,0.0,0.0,0.0,0.0,0.0,0.0,0.0,0.0,0.0,0.0,0.0,0.0,0.0,0.0,0.0,0.0,0.0,0.0,0.0,0.0,0.0,0.0,0.0,0.0,0.0,0.0,0.0,0.0,0.0,0.0,0.0,0.0,0.0,0.0,0.0,0.0,0.0,0.0,0.0,0.0,0.0,0.0,0.0,0.0,0.0,0.0,0.0,0.0,0.0,0.0,0.0,0.0,0.0,0.0,0.0,0.0,0.0,0.0,0.0,0.0,0.0,0.0,0.0,0.0,0.0,0.0,0.0,0.0,0.0,0.0,0.0,0.0,0.0,0.0,0.0,0.0,0.0,0.0,0.0,0.0,0.0,0.0,0.0,0.0,0.0,0.0,0.0,0.0,0.0,0.0,0.0,0.0,0.0,0.0,0.0,0.0,0.0,0.0,0.0,0.0,0.0,0.0,0.0,0.0,0.0,0.0,0.0,0.0,0.0,0.0,0.0,0.0,0.0,0.0,0.0,0.0,0.0,0.0,0.0,0.0,0.0,0.0,0.0,0.0,0.0,0.0,0.0,0.0,0.0,0.0,0.0,0.0,0.0,0.0,0.0,0.0,0.0,0.0,0.0,0.0,0.0,0.0,0.0,0.0,0.0,0.0,0.0,0.0,0.0,0.0,0.0,0.0,0.0,0.0,0.0,0.0,0.0,0.0,0.0,0.0,0.0,0.0,0.0,0.0,0.0,0.0,0.0,0.0,0.0,0.0,0.0,0.0,0.0,0.0,0.0,0.0,0.0,0.0,0.0,0.0,0.0,0.0,0.0,0.0,0.0,0.0,0.0,0.0,0.0,0.0,0.0,0.0,0.0,0.0,0.0,0.0,0.0,0.0,0.0,0.0,0.0,0.0,0.0,0.0,0.0,0.0,0.0,0.0,0.0,0.0,0.0,0.0,0.0,0.0,0.0,0.0,0.0,0.0,0.0,0.0,0.0,0.0,0.0,0.0,0.0,0.0,0.0,0.0,0.0,0.0,0.0,0.0,0.0,0.0,0.0,0.0,0.0,0.0,0.0,0.0,0.0,0.0,0.0,0.0,0.0,0.0,0.0,0.0,0.0,0.0,0.0,0.0,0.0,0.0,0.0,0.0,0.0,0.0,0.0,0.0,0.0,0.0,0.0,0.0,0.0,0.0,0.0,0.0,0.0,0.0,0.0,0.0,0.0,0.0,0.0,0.0,0.0,0.0,0.0,0.0,0.0,0.0,0.0,0.0,0.0,0.0,0.0,0.0,0.0,0.0,0.0,0.0,0.0,0.0,0.0,0.0,0.0,0.0,0.0,0.0,0.0,0.0,0.0,0.0,0.0,0.0,0.0,0.0,0.0,0.0,0.0,0.0,0.0,0.0,0.0,0.0,0.0,0.0,0.0,0.0,0.0,0.0,0.0,0.0,0.0,0.0,0.0,0.0,0.0,0.0,0.0,0.0,0.0,0.0,0.0,0.0,0.0,0.0,0.0,0.0,0.0,0.0,0.0,0.0,0.0,0.0,0.0,0.0,0.0,0.0,0.0,0.0,0.0,0.0,0.0,0.0,0.0,0.0,0.0,0.0,0.0,0.0,0.0,0.0,0.0,0.0,0.0,0.0,0.0,0.0,0.0,0.0,0.0,0.0,0.0,0.0,0.0,0.0,0.0,0.0,0.0,0.0,0.0,0.0,0.0,0.0,0.0,0.0,0.0,0.0,0.0,0.0,0.0,0.0,0.0,0.0,0.0,0.0,0.0,0.0,0.0,0.0,0.0,0.0,0.0,0.0,0.0,0.0,0.0,0.0,0.0,0.0,0.0,0.0,0.0,0.0,0.0,0.0,0.0,0.0,0.0,0.0,0.0,0.0,0.0,0.0,0.0,0.0,0.0,0.0,0.0,0.0,0.0,0.0,0.0,0.0,0.0,0.0,0.0,0.0,0.0,0.0,0.0,0.0,0.0,0.0,0.0,0.0,0.0,0.0,0.0,0.0,0.0,0.0,0.0,0.0,0.0,0.0,0.0,0.0,0.0,0.0,0.0,0.0,0.0,0.0,0.0,0.0,0.0,0.0,0.0,0.0,0.0,0.0,0.0,0.0,0.0,0.0,0.0,0.0,0.0,0.0,0.0,0.0,0.0,0.0,0.0,0.0,0.0,0.0,0.0,0.0,0.0,0.0,0.0,0.0,0.0,0.0,0.0,0.0,0.0,0.0,0.0,0.0,0.0,0.0,0.0,0.0,0.0,0.0,0.0,0.0,0.0,0.0,0.0,0.0,0.0,0.0,0.0,0.0,0.0,0.0,0.0,0.0,0.0,0.0,0.0,0.0,0.0,0.0,0.0,0.0,0.0,0.0,0.0,0.0,0.0,0.0,0.0,0.0,0.0,0.0,0.0,0.0,0.0,0.0,0.0,0.0,0.0,0.0,0.0,0.0,0.0,0.0,0.0,0.0,0.0,0.0,0.0,0.0,0.0,0.0,0.0,0.0,0.0,0.0,0.0,0.0,0.0,0.0,0.0,0.0,0.0,0.0,0.0,0.0,0.0,0.0,0.0,0.0,0.0,0.0,0.0,0.0,0.0,0.0,0.0,0.0,0.0,0.0,0.0,0.0,0.0,0.0,0.0,0.0,0.0,0.0,0.0,0.0,0.0,0.0,0.0,0.0,0.0,0.0,0.0,0.0,0.0,0.0,0.0,-2.3391,-2.3091,0.0,0.0,0.0,0.0,0.0,0.0,0.0,0.0,0.0,0.0,0.0,0.0,0.0,0.0,0.0,0.0,0.0,0.0,0.0,0.0,0.0,0.0,0.0,0.0,0.0,0.0,0.0,0.0,0.0,0.0,0.0,0.0,0.0,0.0,0.0,0.0,0.0,0.0,-2.0964,-2.0654,-2.0566,-2.0566,-2.0566,-2.0566,0.0,0.0,0.0,0.0,0.0,0.0,0.0,0.0,0.0,0.0,0.0,0.0,0.0,0.0,0.0,0.0,0.0,0.0,0.0,0.0,0.0,0.0,0.0,0.0,0.0,0.0,0.0,0.0,0.0,0.0,0.0,0.0,0.0,0.0,0.0,0.0,0.0,0.0,0.0,0.0,0.0,0.0,0.0,0.0,0.0,0.0,0.0,0.0,0.0,0.0,0.0,0.0,0.0,0.0,0.0,0.0,0.0,0.0,0.0,0.0,0.0,0.0,0.0,0.0,0.0,0.0,0.0,0.0,0.0,0.0,-2.3815,-2.3639,0.0,0.0,0.0,0.0,0.0,0.0,0.0,0.0,0.0,0.0,0.0,0.0,0.0,0.0,0.0,0.0,0.0,0.0,0.0,0.0,0.0,0.0,0.0,0.0,-2.3087,-2.3779,-2.4145,-2.465,0.0,0.0,0.0,0.0,0.0,0.0,0.0,-2.2916,-2.2166,-2.1492,-2.1195,-2.0886,-2.0566,-2.0644,-2.0644,-2.0644,-2.0644,0.0,0.0,0.0,0.0,0.0,0.0,0.0,0.0,0.0,0.0,0.0,0.0,0.0,0.0,0.0,0.0,0.0,0.0,0.0,0.0,0.0,0.0,0.0,0.0,0.0,0.0,0.0,0.0,0.0,0.0,0.0,0.0,0.0,0.0,0.0,0.0,0.0,0.0,0.0,0.0,0.0,0.0,0.0,0.0,0.0,0.0,0.0,0.0,0.0,0.0,0.0,0.0,0.0,0.0,0.0,0.0,0.0,0.0,0.0,0.0,0.0,0.0,0.0,-2.4778,-2.4778,-2.4778,-2.4778,-2.4778,-2.4757,-2.4385,-2.4343,-2.454,-2.454,0.0,0.0,0.0,0.0,0.0,0.0,0.0,0.0,0.0,0.0,0.0,0.0,0.0,0.0,0.0,0.0,0.0,0.0,0.0,0.0,0.0,-2.2258,-2.2702,-2.3676,-2.3954,-2.4468,0.0,0.0,0.0,0.0,0.0,0.0,-2.5324,-2.4348,-2.3902,-2.3975,-2.2424,-2.1318,-2.0566,-2.0819,-2.0829,-2.0829,-2.0654,-2.0566,-2.0566,0.0,0.0,0.0,0.0,0.0,0.0,0.0,0.0,0.0,0.0,0.0,0.0,0.0,0.0,0.0,0.0,0.0,0.0,0.0,0.0,0.0,0.0,0.0,0.0,0.0,0.0,0.0,0.0,0.0,0.0,0.0,0.0,0.0,0.0,0.0,0.0,0.0,0.0,0.0,0.0,0.0,-2.2319,-2.2205,0.0,0.0,0.0,0.0,0.0,0.0,0.0,0.0,0.0,0.0,0.0,0.0,0.0,-2.4612,-2.514,-2.5088,-2.5275,-2.5699,-2.5699,-2.5699,-2.5699,-2.5699,-2.5699,-2.5699,-2.5637,0.0,-2.454,-2.454,0.0,0.0,0.0,0.0,0.0,0.0,0.0,0.0,0.0,0.0,0.0,0.0,0.0,0.0,0.0,0.0,0.0,0.0,0.0,0.0,0.0,-2.275,-2.3007,-2.3821,-2.4159,-2.4643,-2.5557,-2.5688,0.0,0.0,0.0,-2.5606,-2.5241,-2.4264,-2.3379,-2.2596,-2.1614,-2.1098,-2.0964,-2.0906,-2.0906,-2.0906,-2.0896,-2.0964,-2.0964,-2.0819,0.0,0.0,0.0,0.0,0.0,0.0,0.0,0.0,0.0,0.0,0.0,0.0,0.0,0.0,0.0,0.0,0.0,0.0,0.0,0.0,0.0,0.0,0.0,0.0,0.0,0.0,0.0,0.0,0.0,0.0,0.0,0.0,0.0,0.0,0.0,0.0,0.0,0.0,0.0,-2.3176,-2.3079,-2.3068,-2.3362,-2.3527,0.0,0.0,0.0,0.0,0.0,0.0,0.0,0.0,0.0,-2.5285,-2.5295,-2.5388,-2.5595,-2.5595,-2.5689,-2.5875,-2.5875,-2.5875,-2.5875,-2.5875,-2.5875,-2.5875,-2.5875,-2.5658,-2.5295,-2.5295,-2.5295,-2.5295,0.0,0.0,0.0,0.0,-2.5295,-2.5295,0.0,0.0,0.0,0.0,0.0,0.0,0.0,0.0,0.0,0.0,0.0,0.0,-2.3027,-2.307,-2.3313,-2.3911,-2.4365,-2.4966,-2.5652,-2.5746,0.0,0.0,-2.598,-2.5758,-2.5312,-2.4492,-2.3327,-2.1731,-2.1527,-2.1346,-2.1298,-2.1262,-2.1233,-2.1233,-2.1348,-2.1238,-2.1138,-2.0984,-2.0984,-2.1051,0.0,0.0,0.0,0.0,0.0,0.0,0.0,0.0,0.0,0.0,0.0,0.0,0.0,0.0,0.0,0.0,0.0,0.0,0.0,0.0,0.0,0.0,0.0,0.0,0.0,0.0,0.0,0.0,0.0,0.0,0.0,0.0,0.0,0.0,0.0,0.0,0.0,-2.3918,-2.3819,-2.3897,-2.411,-2.4196,0.0,0.0,0.0,0.0,0.0,0.0,-2.5378,-2.5399,-2.5595,-2.6041,-2.6051,-2.6165,-2.6403,-2.6403,-2.6465,-2.6579,-2.6579,-2.6579,-2.6579,-2.6579,-2.6579,-2.6579,-2.6579,-2.6579,-2.6537,-2.6072,-2.5875,-2.5875,-2.5875,-2.5875,-2.5875,-2.5875,-2.5875,-2.5875,0.0,0.0,0.0,0.0,0.0,0.0,0.0,0.0,0.0,0.0,0.0,-2.3027,-2.2469,-2.2894,-2.3377,-2.3791,-2.4591,-2.5333,-2.5873,-2.6245,-2.6396,-2.6201,-2.6201,-2.6131,-2.6131,-2.591,-2.4957,-2.3224,-2.3373,-2.2819,-2.1521,-2.1947,-2.2135,-2.2116,-2.186,-2.144,-2.0906,-2.1138,-2.1205,-2.1282,-2.2069,0.0,0.0,0.0,0.0,0.0,0.0,0.0,0.0,0.0,0.0,0.0,0.0,0.0,0.0,0.0,0.0,0.0,0.0,0.0,0.0,0.0,0.0,0.0,0.0,0.0,0.0,0.0,0.0,0.0,0.0,0.0,0.0,0.0,0.0,0.0,0.0,0.0,0.0,-2.4196,-2.4368,0.0,0.0,0.0,0.0,-2.5114,-2.5575,-2.5823,-2.5844,-2.5844,-2.6061,-2.6517,-2.6527,-2.6951,-2.781,-2.7821,-2.8038,-2.8473,-2.8473,-2.8473,-2.8473,-2.8473,-2.8473,-2.8473,-2.8473,-2.8473,-2.8338,-2.6599,-2.5875,-2.5875,-2.5875,-2.5875,-2.5875,-2.5875,-2.5875,-2.5875,0.0,0.0,0.0,0.0,0.0,0.0,0.0,0.0,-2.4439,-2.5119,-2.4124,-2.3539,-2.4253,-2.4262,-2.4275,-2.4499,-2.5411,-2.5952,-2.5898,-2.605,-2.6188,-2.6396,-2.6396,-2.6107,-2.5453,-2.5565,-2.5151,-2.419,-2.437,-2.4371,-2.4304,-2.4323,-2.4003,-2.3524,-2.3515,-2.306,-2.211,-2.1379,-2.0984,-2.1051,-2.1776,-2.2616,0.0,0.0,0.0,0.0,0.0,0.0,0.0,0.0,0.0,0.0,0.0,0.0,0.0,0.0,0.0,0.0,0.0,0.0,0.0,0.0,0.0,0.0,0.0,0.0,0.0,0.0,0.0,0.0,0.0,0.0,0.0,0.0,0.0,0.0,0.0,0.0,0.0,-2.4779,-2.4898,0.0,-2.5378,-2.5554,-2.5771,-2.6072,-2.6237,-2.6579,-2.7158,-2.7189,-2.7407,-2.7872,-2.7883,-2.8038,-2.8359,-2.8369,-2.8452,-2.8618,-2.8618,-2.8618,-2.8618,-2.8618,-2.8618,-2.8618,-2.8618,-2.8618,-2.8566,-2.7914,-2.7634,-2.7634,-2.7634,-2.7634,-2.7634,-2.7634,-2.7634,-2.7634,0.0,0.0,0.0,0.0,0.0,0.0,0.0,0.0,-2.5147,-2.5879,-2.4824,-2.4239,-2.4951,-2.5161,-2.5179,-2.495,-2.5975,-2.6496,-2.6371,-2.6427,-2.6564,-2.685,-2.6589,-2.6251,-2.5707,-2.5901,-2.5799,-2.5379,-2.557,-2.5732,-2.5899,-2.5836,-2.5508,-2.4949,-2.4944,-2.44,-2.3339,-2.2257,-2.1716,-2.1736,-2.2387,-2.324,-2.4172,0.0,0.0,0.0,0.0,0.0,0.0,0.0,0.0,0.0,0.0,0.0,0.0,0.0,0.0,0.0,0.0,0.0,0.0,0.0,0.0,0.0,0.0,0.0,0.0,0.0,0.0,0.0,0.0,0.0,0.0,0.0,0.0,0.0,0.0,-2.4997,-2.4892,-2.5192,-2.5502,-2.5792,-2.6082,-2.6382,-2.6693,-2.7003,-2.7169,-2.7521,-2.8121,-2.8152,-2.8442,-2.9063,-2.9073,-2.9228,-2.9539,-2.9539,-2.9539,-2.9539,-2.9384,-2.9311,-2.9301,-2.9156,-2.9073,-2.9073,-2.9073,-2.9073,-2.9073,-2.9073,-2.9073,-2.9052,-2.8731,-2.8618,-2.8618,-2.8618,-2.8618,-2.8618,0.0,0.0,0.0,0.0,0.0,0.0,0.0,-2.5591,-2.5825,-2.5467,-2.5398,-2.5133,-2.4452,-2.5502,-2.5946,-2.5141,-2.624,-2.7095,-2.7229,-2.7417,-2.7484,-2.7484,-2.6863,-2.6659,-2.703,-2.7008,-2.6992,-2.6784,-2.6966,-2.6811,-2.6257,-2.6493,-2.6554,-2.6543,-2.606,-2.5352,-2.4516,-2.3896,-2.3496,-2.3306,-2.3945,-2.4151,-2.4083,0.0,0.0,0.0,0.0,0.0,0.0,0.0,0.0,0.0,0.0,0.0,0.0,0.0,0.0,0.0,0.0,0.0,0.0,0.0,0.0,0.0,0.0,0.0,0.0,0.0,0.0,0.0,0.0,0.0,0.0,0.0,0.0,0.0,-2.4227,-2.4779,-2.5244,-2.5285,-2.6061,-2.6599,-2.663,-2.7427,-2.7945,-2.7966,-2.839,-2.8659,-2.868,-2.869,-2.9104,-3.0005,-3.0036,-3.047,-3.1371,-3.1381,-3.1381,-3.1371,-3.0926,-3.0708,-3.0698,-3.0243,-3.0036,-3.0036,-3.0036,-3.0036,-3.0036,-3.0025,-3.0015,-2.9922,-2.9011,-2.8659,-2.8659,-2.8659,-2.8659,-2.8659,0.0,0.0,0.0,0.0,0.0,0.0,0.0,-2.615,-2.6258,-2.6096,-2.5687,-2.5467,-2.5701,-2.64,-2.6742,-2.6533,-2.7256,-2.7802,-2.792,-2.755,-2.7351,-2.7484,-2.7232,-2.713,-2.7197,-2.7827,-2.8226,-2.8325,-2.8614,-2.8717,-2.8741,-2.8627,-2.8359,-2.7959,-2.7577,-2.7094,-2.6352,-2.5469,-2.5107,-2.497,-2.3412,-2.341,-2.4416,0.0,0.0,0.0,0.0,0.0,0.0,0.0,0.0,0.0,0.0,0.0,0.0,0.0,0.0,0.0,0.0,0.0,0.0,0.0,0.0,0.0,0.0,0.0,0.0,0.0,0.0,0.0,0.0,0.0,0.0,0.0,-2.5786,-2.4959,-2.4959,-2.5063,-2.5595,-2.6589,-2.692,-2.7334,-2.7986,-2.8276,-2.8566,-2.8897,-2.9352,-2.9766,-3.0098,-3.0439,-3.0739,-3.0988,-3.0998,-3.1122,-3.1381,-3.1381,-3.1381,-3.1381,-3.1247,-3.1184,-3.1184,-3.106,-3.0998,-3.0998,-3.0998,-3.0998,-3.0967,-3.0636,-3.0501,-3.0439,-2.9849,-2.9622,-2.9622,-2.9622,-2.9622,-2.9622,0.0,0.0,0.0,0.0,0.0,0.0,0.0,-2.6204,-2.6258,-2.6233,-2.5934,-2.5909,-2.6588,-2.7201,-2.7583,-2.764,-2.8228,-2.8634,-2.8776,-2.8117,-2.7908,-2.8213,-2.7626,-2.7494,-2.7959,-2.845,-2.8887,-2.9289,-2.9449,-2.9611,-2.9792,-2.9611,-2.9365,-2.904,-2.8882,-2.8383,-2.7637,-2.7046,-2.6554,-2.6108,-2.4644,-2.4189,-2.4441,-2.4619,-2.5352,-2.6202,-2.5431,-2.5322,-2.5442,-2.427,0.0,0.0,0.0,0.0,0.0,0.0,0.0,0.0,0.0,0.0,0.0,0.0,0.0,0.0,0.0,0.0,0.0,0.0,0.0,0.0,0.0,0.0,0.0,0.0,-2.6574,-2.5816,-2.6552,-2.6344,-2.6444,-2.7417,-2.7883,-2.8328,-2.8856,-2.9073,-2.9384,-2.9849,-3.0129,-3.0491,-3.0946,-3.1236,-3.1464,-3.165,-3.165,-3.1754,-3.194,-3.194,-3.194,-3.194,-3.1754,-3.165,-3.165,-3.1464,-3.1381,-3.1381,-3.1381,-3.1381,-3.136,-3.1091,-3.0977,0.0,0.0,0.0,0.0,0.0,-2.9994,-2.9994,0.0,0.0,0.0,0.0,0.0,0.0,0.0,-2.5948,-2.6002,-2.6056,-2.6111,-2.6351,-2.7031,-2.7769,-2.828,-2.841,-2.8948,-2.9359,-2.9484,-2.8894,-2.8766,-2.916,-2.8061,-2.7921,-2.89,-2.8988,-2.9277,-2.9792,-2.9792,-2.9792,-2.9792,-2.9792,-2.9792,-2.9792,-2.9792,-2.9365,-2.8621,-2.8267,-2.7695,-2.6976,-2.6894,-2.5913,-2.4529,-2.47,-2.5179,-2.5652,-2.5652,-2.5652,-2.5735,-2.6047,0.0,0.0,0.0,0.0,0.0,0.0,0.0,0.0,0.0,0.0,0.0,0.0,0.0,0.0,0.0,0.0,0.0,0.0,0.0,0.0,0.0,0.0,0.0,0.0,-2.7097,-2.6971,-2.8664,-2.8295,-2.8009,-2.8223,-2.8904,-2.9321,-2.9568,-2.9902,-3.0243,-3.0657,-3.0781,-3.1019,-3.1433,-3.1505,0.0,0.0,0.0,-3.2313,-3.2727,-3.2727,-3.2727,-3.2727,-3.2313,-3.2116,-3.2106,-3.1712,-3.1536,-3.1536,-3.1536,-3.1536,-3.1526,-3.1474,-3.1422,-3.1288,-3.0419,-3.0077,-3.0067,-3.0015,-2.9994,-2.9994,0.0,0.0,0.0,0.0,0.0,0.0,0.0,-2.5784,-2.6165,-2.5948,-2.6002,-2.6406,-2.7197,-2.7826,-2.828,-2.8531,-2.9133,-2.9296,-2.8762,-2.9005,-2.8933,-2.8526,-2.8545,-2.8712,-2.8925,-2.939,-2.9679,-2.9792,-2.9792,-2.9792,-2.9792,-2.9599,-2.9599,-2.9792,-2.9599,-2.9521,-2.9468,-2.87,-2.8291,-2.8131,-2.7313,-2.673,-2.6329,-2.6494,-2.6577,-2.6565,-2.673,-2.6648,-2.6565,-2.6648,-2.6472,-2.6069,-2.5652,-2.5986,0.0,0.0,0.0,0.0,0.0,0.0,0.0,0.0,0.0,0.0,0.0,0.0,0.0,0.0,0.0,0.0,0.0,0.0,0.0,-2.8618,-2.9098,-2.9497,-2.9751,-3.0793,-3.1158,-3.0372,-2.9674,-2.9743,-3.1003,-3.0779,-3.0594,-3.0677,-3.136,-3.1816,-3.1909,-3.2261,-3.2509,-3.2592,-3.2602,-3.2644,-3.2727,-3.2727,-3.2727,-3.2727,0.0,0.0,-3.2592,-3.2509,-3.2468,-3.2468,-3.2468,-3.2468,-3.2437,-3.2064,-3.1702,-3.1319,-3.077,-3.0553,-3.0512,-3.0129,-2.9994,-2.9994,0.0,0.0,0.0,0.0,0.0,0.0,0.0,-2.5839,-2.6056,-2.5893,-2.6215,-2.6763,-2.7556,-2.8254,-2.8881,-2.9419,-2.9563,-2.9421,-2.9093,-2.8864,-2.8794,-2.8682,-2.8829,-2.9063,-2.9352,-2.9641,-2.9792,-2.9792,-2.9792,-2.9792,-2.9792,-2.9689,-2.9689,-2.9792,-2.9689,-2.9689,-2.9792,-2.9378,-2.9131,-2.9131,-2.8633,-2.8383,-2.8211,-2.7395,-2.7069,-2.6976,-2.6976,-2.6565,-2.6235,-2.6565,-2.6307,-2.5975,-2.5975,-2.6637,-2.7452,0.0,0.0,0.0,0.0,0.0,0.0,0.0,0.0,0.0,0.0,0.0,0.0,0.0,0.0,-3.0036,-2.9616,0.0,-3.0218,-3.0833,-3.0761,-3.0997,-3.1926,-3.2282,-3.2044,-3.0606,-3.0434,-3.0625,-3.1093,-3.0852,-3.0874,-3.1329,-3.1785,-3.2137,-3.2375,-3.2602,-3.2727,-3.2727,-3.2727,-3.2727,-3.2727,-3.2727,-3.2727,-3.2727,-3.2727,-3.2727,-3.2727,-3.2727,-3.2727,-3.2727,-3.2727,-3.2727,-3.2716,-3.2478,-3.225,-3.1981,-3.1298,-3.0884,-3.0626,-3.016,-2.9994,-2.9994,0.0,0.0,0.0,0.0,0.0,0.0,0.0,-2.5839,-2.5893,-2.5893,-2.6427,-2.7102,-2.7896,-2.8724,-2.9485,-3.0269,-2.987,-2.9484,-2.9359,-2.8811,-2.8582,-2.8815,-2.8908,-2.9202,-2.9779,-2.9792,-2.9792,-2.9792,-2.9792,-2.9792,-2.9792,-2.9792,-2.9792,-2.9792,-2.9792,-2.9792,-2.9792,-2.9792,-2.9792,-2.9792,-2.9792,-2.9792,-2.9624,-2.8223,-2.7637,-2.7557,-2.7476,-2.6894,-2.64,-2.6976,-2.6625,-2.6036,-2.6719,-2.7533,-2.8267,-2.8039,-2.8609,0.0,0.0,0.0,0.0,0.0,0.0,0.0,0.0,-2.9509,-2.9546,-2.993,-3.0306,-3.0566,-3.0493,-3.0891,-3.1577,-3.2649,-3.2328,-3.2347,-3.3767,-3.3396,-3.2336,-3.0546,-3.1084,-3.1473,-3.1042,-3.1071,-3.136,-3.1981,-3.234,-3.2548,-3.2706,-3.2727,-3.2727,-3.2727,-3.2727,-3.2727,-3.2727,-3.2727,-3.2727,-3.2727,-3.2727,-3.2727,-3.2727,-3.2727,-3.2727,-3.2727,-3.2727,-3.2727,-3.2727,-3.2727,-3.2727,-3.2633,-3.1733,-3.1153,-3.076,-3.0201,-2.9994,-2.9994,0.0,0.0,0.0,0.0,0.0,0.0,0.0,0.0,-2.5893,-2.5893,-2.6427,-2.7102,-2.7896,-2.8724,-2.9545,-3.0524,-2.9993,-2.9233,-2.8441,-2.8864,-2.8844,-2.7974,-2.855,-2.9202,-2.9779,-2.9792,-2.9792,-2.9792,-2.9792,-2.9792,-2.9792,-2.9792,-2.9792,-2.9792,-2.9792,-2.9792,-2.9792,-2.9792,-2.9792,-2.9792,-2.9792,-2.9792,-2.9792,-2.9546,-2.9468,-2.9468,-2.9456,-2.9378,-2.93,-2.9378,-2.9197,-2.8846,-2.8371,-2.87,-2.9172,-2.8621,-2.8858,-2.9419,-2.9341,-2.9341,-2.9431,-2.9624,-2.9714,-2.9714,0.0,-2.9792,-2.993,-3.0419,-3.057,-3.0505,-3.0214,-3.1612,-3.2649,-3.2001,-3.3617,-3.473,-3.4076,-3.4294,-3.3813,-3.1677,-3.1575,-3.1771,-3.2054,-3.2594,-3.2642,-3.2002,-3.3396,-3.3765,-3.2727,-3.2727,-3.2727,-3.2727,-3.2727,-3.2727,-3.2727,-3.2727,-3.2727,-3.2727,-3.2727,-3.2727,-3.2727,-3.2727,-3.2727,-3.2727,-3.2727,-3.2727,-3.2727,-3.2727,-3.2727,-3.2633,-3.1733,-3.135,-3.1195,-3.0315,-2.9994,-2.9994,0.0,0.0,0.0,0.0,0.0,0.0,0.0,0.0,0.0,0.0,-2.6427,-2.7059,-2.7808,-2.8859,-2.9797,-3.0358,-2.9345,-2.8505,-2.8247,-2.7926,-2.7685,-2.7379,-2.8238,-2.8975,-2.9289,-2.9616,-2.9792,-2.9792,-2.9792,-2.9792,-2.9792,-2.9792,-2.9792,-2.9792,-2.9792,-2.9702,-2.9599,-2.9702,-2.9702,-2.9599,-2.9702,-2.9792,-2.9792,-2.9792,-2.9792,-2.9792,-2.9792,-2.9456,0.0,-2.9624,-2.9365,-2.8858,-2.8542,-2.9028,-2.9443,-2.8712,-2.904,-2.9611,-2.9611,-2.9611,-2.9689,-2.9792,-2.9792,-2.9792,-2.9792,-3.0043,-3.0331,-3.057,-3.111,-3.153,-3.1314,-3.2536,-3.3571,-3.3529,-3.4603,-3.5469,-3.538,-3.5614,-3.4969,-3.2789,-3.3089,-3.3298,-3.2856,-3.2394,-3.2508,-3.3364,-3.3487,-3.3275,-3.2727,-3.2727,-3.2727,-3.2727,-3.2727,-3.2727,-3.2727,-3.2727,-3.2727,-3.2727,-3.2727,-3.2727,-3.2727,-3.2727,-3.2727,-3.2727,-3.2727,-3.2727,-3.2727,-3.2727,-3.2727,-3.2633,-3.1733,-3.1381,-3.1267,-3.0336,-2.9994,-2.9994,0.0,0.0,0.0,0.0,0.0,0.0,0.0,0.0,0.0,0.0,-2.6427,-2.7116,-2.7989,-2.9124,-2.9946,-3.0205,-2.9282,-2.8505,-2.8103,-2.7456,-2.7022,-2.6828,-2.768,-2.84,-2.885,-2.9263,-2.9641,-2.9792,-2.9792,-2.9792,-2.9792,-2.9702,-2.9702,-2.9702,-2.9702,-2.9599,-2.9419,-2.9702,-2.9702,-2.9521,-2.9702,-2.9792,-2.9792,-2.9792,-2.9792,-2.9792,-2.9792,-2.9378,-2.8961,-2.9624,-2.9378,-2.887,-2.887,-2.9287,-2.9714,-2.904,-2.9287,-2.9702,-2.9702,-2.9702,-2.9702,-2.9792,-2.9792,-2.9829,-2.998,-3.0331,-3.0696,-3.0997,-3.1675,-3.2265,-3.2416,-3.337,-3.4261,-3.4663,-3.5316,-3.5906,-3.6307,-3.6156,-3.5271,-3.34,-3.4023,-3.4345,-3.3659,-3.2824,-3.291,-3.4403,-3.3717,-3.3058,-3.2737,-3.2727,-3.2727,-3.2727,-3.2727,-3.2727,-3.2727,-3.2727,-3.2727,-3.2727,-3.2727,-3.2727,-3.2727,-3.2727,-3.2727,-3.2727,-3.2727,-3.2727,-3.2727,-3.2727,-3.2654,-3.2457,-3.1681,-3.1298,-3.1091,-3.0294,-2.9994,-2.9994,0.0,0.0,0.0,0.0,0.0,0.0,0.0,0.0,0.0,0.0,0.0,0.0,0.0,-2.9426,-2.9884,-3.0111,-3.0205,-2.9532,-2.7828,-2.7986,-2.7665,-2.6456,-2.6662,-2.7409,-2.8699,-2.8737,-2.9087,-2.9792,-2.9792,-2.9792,-2.9792,-2.9509,-2.9419,-2.9419,-2.9419,-2.9419,-2.9419,-2.9702,-2.9792,-2.9792,-2.9792,-2.9792,-2.9792,-2.9792,-2.9792,-2.9792,-2.9792,-2.9792,-2.9792,-2.9792,-2.9792,-2.9792,-2.9792,-2.9792,-2.9792,-2.9792,-2.9611,-2.9419,-2.9419,-2.9419,-2.9509,-2.9702,-2.9792,-2.993,-3.047,-3.0608,-3.0909,-3.1951,-3.219,-3.239,-3.2943,-3.396,-3.47,-3.4726,-3.5629,-3.6345,-3.6358,-3.5463,-3.4483,-3.33,-3.3738,-3.4233,-3.4717,-3.467,-3.4577,-3.4515,-3.448,-3.3931,-3.2727,-3.2727,-3.2727,-3.2727,-3.2727,-3.2727,-3.2727,-3.2727,-3.2727,-3.2727,-3.2727,-3.2727,-3.2727,-3.2727,-3.2727,-3.2727,-3.2727,-3.2727,-3.2727,-3.2727,-3.2468,-3.2012,-3.1557,-3.1102,-3.0646,-3.017,-2.9994,-2.9994,0.0,0.0,0.0,0.0,0.0,0.0,0.0,0.0,0.0,0.0,0.0,0.0,0.0,0.0,0.0,0.0,-2.917,-2.8684,-2.7749,-2.7258,-2.6888,-2.6609,-2.6559,-2.6797,-2.7323,-2.8263,-2.8811,-2.9074,-2.9347,-2.9509,-2.9521,-2.9287,-2.9197,-2.9197,-2.9197,-2.9118,-2.9028,-2.9209,-2.9378,-2.9378,-2.9443,-2.9611,-2.9792,-2.9792,-2.9792,-2.9792,0.0,-2.9792,-2.9792,-2.9792,-2.9792,-2.9792,-2.9792,-2.9792,-2.9792,-2.9792,-2.9702,-2.9702,-2.9702,-2.9702,-2.9702,-2.9792,-3.0068,-3.0382,-3.057,-3.116,-3.1775,-3.2139,-3.2516,-3.2842,-3.3043,-3.3684,-3.4299,-3.4663,-3.5341,-3.5943,-3.6307,-3.6061,-3.5463,-3.4385,-3.5342,-3.6072,-3.5884,-3.4781,-3.4519,-3.5497,-3.4145,-3.3172,-3.2727,-3.2727,-3.2727,-3.2727,-3.2727,-3.2727,-3.2727,-3.2727,-3.2727,-3.2727,-3.2727,-3.2727,-3.2727,-3.2727,-3.2727,-3.2727,-3.2727,-3.2727,-3.2706,-3.2395,-3.2178,-3.1971,-3.1215,-3.0822,-3.0626,-3.016,-2.9994,-2.9994,0.0,0.0,0.0,0.0,0.0,0.0,0.0,0.0,0.0,0.0,0.0,0.0,0.0,0.0,0.0,0.0,0.0,-2.8312,-2.7644,-2.6921,-2.6389,-2.6195,-2.6064,-2.6201,-2.6553,-2.7718,-2.8362,-2.856,-2.908,-2.9341,-2.9275,-2.9118,-2.8961,-2.8961,-2.8961,-2.8961,-2.8882,-2.9118,-2.9176,-2.9093,-2.9434,-2.9487,-2.9503,-2.9716,-2.9792,0.0,-2.9792,-2.9792,-2.9792,-2.9792,-2.9792,-2.9792,-2.9792,-2.9792,-2.9792,-2.9792,-2.9792,-2.9792,-2.9792,-2.9792,-2.9842,-3.0043,-3.0357,-3.0721,-3.1097,-3.1574,-3.2039,-3.2441,-3.2654,-3.283,-3.3043,-3.3533,-3.4085,-3.4625,-3.519,-3.573,-3.6282,-3.6358,-3.5966,-3.4969,-3.6245,-3.6997,-3.6404,-3.5573,-3.5335,-3.6151,-3.4032,-3.2727,-3.2727,-3.2727,-3.2727,-3.2727,-3.2727,-3.2727,-3.2727,-3.2571,-3.2406,-3.225,-3.225,-3.225,-3.225,-3.225,-3.225,-3.225,-3.225,-3.225,-3.223,-3.193,-3.1702,-3.1495,-3.0915,-3.0584,-3.0398,-3.0098,-2.9994,-2.9994,0.0,0.0,0.0,0.0,0.0,0.0,0.0,0.0,0.0,0.0,0.0,0.0,0.0,0.0,0.0,0.0,0.0,0.0,-2.7537,-2.6976,-2.6296,-2.5441,-2.5312,-2.5624,-2.6347,-2.7091,-2.7705,-2.8206,-2.8966,-2.9238,-2.9052,-2.8882,-2.8803,-2.8803,-2.8803,-2.8882,-2.9052,-2.9263,-2.9185,-2.89,-2.9451,-2.9326,-2.8875,-2.9503,-2.9729,-2.9754,-2.9741,-2.9767,-2.9792,-2.9792,-2.9792,-2.9792,-2.9792,-2.9792,-2.9792,-2.9792,-2.9792,-2.9792,-2.9792,-2.9817,-2.9955,-3.0482,-3.0658,-3.0959,-3.1938,-3.1788,-3.1725,-3.278,-3.2554,-3.234,-3.293,-3.3458,-3.401,-3.4587,-3.514,-3.5692,-3.6245,-3.6345,-3.6061,-3.4981,-3.6245,-3.6984,-3.6468,-3.6807,-3.6789,-3.6298,0.0,-3.2727,-3.2727,-3.2727,-3.2727,-3.2727,-3.2706,-3.2696,-3.2696,-3.224,-3.1795,-3.1381,-3.1381,-3.1381,-3.1381,-3.1381,-3.1381,-3.1381,-3.1381,-3.1381,-3.1381,-3.135,-3.1081,-3.0688,-3.0657,-3.0387,-2.9994,-2.9994,-2.9994,-2.9994,0.0,0.0,0.0,0.0,0.0,0.0,0.0,0.0,0.0,0.0,0.0,0.0,0.0,0.0,0.0,0.0,0.0,0.0,-2.7524,-2.7338,-2.7204,-2.6934,-2.5918,-2.5654,-2.635,-2.6611,-2.6944,-2.748,-2.8093,-2.857,-2.8882,-2.8657,-2.8578,-2.8578,-2.8578,-2.8578,-2.8669,-2.8736,-2.8499,-2.8243,-2.839,-2.8196,-2.7854,-2.8151,-2.8562,-2.9012,-2.9075,-2.9428,-2.9792,-2.9792,-2.9792,-2.9792,-2.9792,-2.9792,-2.9792,-2.9792,-2.9792,-2.9792,-2.9792,-3.0093,-3.0444,-3.0583,-3.121,-3.1775,-3.1625,-3.1813,-3.1964,-3.1851,-3.17,-3.1763,-3.2328,-3.2541,-3.2968,-3.3947,-3.4575,-3.5127,-3.568,-3.6107,-3.6263,-3.6061,-3.6751,-3.7139,-3.6972,-3.667,-3.641,-3.6335,-3.493,-3.3604,-3.2727,-3.2727,-3.2727,-3.2727,-3.2395,-3.2219,-3.2219,-3.1774,-3.1495,-3.1381,-3.1381,-3.1381,-3.1381,-3.1381,-3.1381,-3.1381,-3.1381,-3.1381,-3.135,-3.1008,-3.0791,-3.0657,-3.0315,-3.0098,-2.9994,-2.9994,-2.9994,-2.9994,0.0,0.0,0.0,0.0,0.0,0.0,0.0,0.0,0.0,0.0,0.0,0.0,0.0,0.0,0.0,0.0,0.0,0.0,0.0,-2.7007,-2.7015,-2.7015,-2.5918,-2.5664,-2.6346,-2.6414,-2.6469,-2.6698,-2.7306,-2.773,-2.7956,-2.7813,-2.7813,-2.7813,-2.7813,-2.7813,-2.7956,-2.7956,-2.773,0.0,0.0,-2.7544,-2.7164,-2.7545,-2.7903,-2.8375,-2.87,-2.9226,-2.9792,-2.9792,-2.9792,-2.9792,-2.9792,-2.9792,-2.9792,-2.9792,-2.9792,-2.9792,-2.9792,-3.0193,-3.067,-3.0896,-3.1399,-3.1838,-3.1763,-3.1625,-3.1486,-3.1399,-3.121,-3.121,-3.175,-3.2051,-3.2503,-3.3395,-3.4211,-3.4914,-3.5374,-3.6019,-3.6358,-3.6358,-3.6634,-3.6923,-3.7161,-3.685,-3.6412,-3.5612,-3.4914,-3.4054,-3.2865,-3.2754,-3.2553,-3.2137,-3.1878,-3.165,-3.1454,-3.1195,-3.0967,-3.077,-3.077,-3.077,-3.077,-3.077,-3.077,-3.077,-3.077,-3.077,-3.075,-3.0491,-3.0387,-3.0356,-3.0098,-2.9994,-2.9994,-2.9994,-2.9994,-2.9994,0.0,0.0,0.0,0.0,0.0,0.0,0.0,0.0,0.0,0.0,0.0,0.0,0.0,0.0,0.0,0.0,0.0,0.0,0.0,0.0,-2.6463,-2.6539,-2.5861,-2.5861,-2.6676,-2.647,-2.6323,-2.6239,-2.6784,-2.6989,-2.6935,-2.6935,-2.6935,-2.6935,-2.6935,-2.6998,-2.7136,-2.7136,-2.698,-2.6674,-2.7115,-2.698,-2.6576,0.0,-2.7385,-2.7693,-2.8412,-2.9149,-2.9792,-2.9792,-2.9792,-2.9792,-2.9792,-2.9792,-2.9792,-2.9792,-2.9792,-2.9792,-2.9792,-3.0193,-3.0721,-3.1173,-3.1336,-3.1499,-3.1901,-3.1286,-3.0721,-3.1097,-3.0821,-3.067,-3.1185,-3.1738,-3.229,-3.2867,-3.3884,-3.4801,-3.5353,-3.5906,-3.6282,-3.6358,-3.6358,-3.6546,-3.7023,-3.7073,-3.6456,-3.5058,-3.4796,-3.4232,-3.2994,-3.2899,-3.2362,-3.1397,-3.1288,-3.106,-3.0594,-3.0594,-3.0387,-2.9994,-2.9994,-2.9994,-2.9994,-2.9994,-2.9994,-2.9994,-2.9994,-2.9994,-2.9994,-2.9994,-2.9994,-2.9994,-2.9994,-2.9994,-2.9994,-2.9994,-2.9994,-2.9994,0.0,0.0,0.0,0.0,0.0,0.0,0.0,0.0,0.0,0.0,-2.5839,-2.5893,0.0,0.0,0.0,0.0,0.0,0.0,0.0,0.0,0.0,-2.7258,-2.6607,-2.6799,-2.8103,-2.6969,-2.6582,-2.703,-2.6554,-2.6478,-2.6935,-2.6935,-2.6935,-2.6935,-2.6935,-2.6935,-2.6923,-2.6923,-2.6685,-2.6178,-2.6348,-2.5985,-2.5598,-2.5849,0.0,0.0,-2.8201,-2.9149,-2.9792,-2.9792,-2.9792,-2.9792,-2.9792,-2.9792,-2.9792,-2.9792,-2.9792,-2.9792,-2.9792,-3.0193,-3.0633,-3.0733,-3.1072,-3.1298,-3.0972,-3.0746,-3.0507,-3.0143,-2.9993,-3.0093,-3.0645,-3.1185,-3.1712,-3.2265,-3.3307,-3.4236,-3.4788,-3.5341,-3.5855,-3.6307,-3.6358,-3.6408,-3.6496,-3.6508,-3.6438,-3.6131,-3.6047,-3.5115,-3.3057,-3.2899,-3.2212,-3.0919,-3.0801,-3.0584,-3.0118,-3.0118,-3.0077,-2.9994,-2.9994,-2.9994,-2.9994,-2.9994,-2.9994,-2.9994,-2.9994,0.0,-2.9994,-2.9994,-2.9994,-2.9994,-2.9994,-2.9994,-2.9994,-2.9994,-2.9994,-2.9994,0.0,0.0,0.0,0.0,0.0,0.0,0.0,-2.5893,-2.5893,-2.5893,-2.5893,-2.5784,-2.5453,-2.5729,-2.5716,0.0,0.0,0.0,0.0,0.0,0.0,0.0,0.0,0.0,-2.7986,-2.6934,-2.6553,-2.6816,0.0,-2.5829,-2.6093,-2.6093,-2.6093,-2.6093,-2.6093,-2.6093,-2.6093,-2.6093,-2.5937,-2.5685,-2.5685,-2.554,-2.5312,0.0,0.0,0.0,-2.7854,-2.8811,-2.9599,-2.9779,-2.9792,-2.9792,-2.9792,-2.9792,-2.9792,-2.9792,-2.9792,-2.9792,-2.9792,-3.0193,-3.062,-3.062,-3.0809,-3.0922,-3.067,-3.0394,-3.0118,-2.9842,-2.9792,-2.988,-3.0143,-3.062,-3.116,-3.17,-3.2729,-3.3771,-3.4613,-3.5203,-3.5742,-3.6295,-3.6358,-3.6358,-3.6358,-3.6358,-3.6156,-3.5571,-3.6061,-3.5684,-3.3968,-3.2875,-3.1653,-3.0336,-3.0325,-3.0222,-2.9994,-2.9994,-2.9994,-2.9994,-2.9994,-2.9994,-2.9994,-2.9994,-2.9994,-2.9994,-2.9994,-2.9994,-2.9994,-2.9994,-3.0287,-3.0785,-3.0785,-3.1187,-3.1699,-3.1699,-3.1699,-3.1699,0.0,0.0,0.0,0.0,0.0,0.0,0.0,-2.5893,-2.5893,-2.5893,-2.5893,-2.5674,-2.5061,-2.5564,-2.5425,0.0,0.0,0.0,0.0,0.0,0.0,0.0,0.0,0.0,0.0,0.0,0.0,-2.6867,-2.5988,0.0,0.0,0.0,0.0,0.0,-2.5312,-2.5312,-2.5312,-2.5312,-2.5312,0.0,0.0,-2.5312,0.0,0.0,0.0,0.0,0.0,-2.8412,-2.9282,-2.9664,-2.9792,-2.9792,-2.9792,-2.9792,-2.9792,-2.9792,-2.9792,-2.9792,-2.9792,-3.0105,-3.0444,-3.0444,-3.0444,-3.0444,-3.0444,-3.0105,-2.9792,-2.9792,-2.9792,-2.9792,-2.9792,-3.0244,-3.0758,-3.116,-3.2164,-3.3232,-3.4223,-3.4951,-3.5567,-3.6119,-3.6282,-3.6358,-3.6358,-3.6358,-3.6061,-3.5174,-3.5966,-3.5966,-3.4884,-3.2978,-3.1483,-3.0391,-3.0088,-2.9994,-2.9994,-2.9994,-2.9994,-2.9994,-2.9994,-2.9994,-2.9994,-2.9994,-2.9994,-2.9994,-2.9994,-3.0088,-3.0287,-3.0287,-3.0991,-3.1982,-3.1982,-3.2488,-3.3201,-3.3201,-3.3201,-3.3201,0.0,0.0,0.0,0.0,0.0,0.0,0.0,-2.5893,-2.5893,-2.5893,-2.5893,-2.5674,-2.5061,-2.5564,-2.5605,0.0,0.0,0.0,0.0,0.0,0.0,0.0,0.0,0.0,0.0,0.0,0.0,-2.8298,-2.6934,0.0,0.0,0.0,0.0,0.0,0.0,-2.5312,-2.5312,-2.5312,0.0,0.0,0.0,0.0,0.0,0.0,0.0,0.0,0.0,-2.8189,-2.8861,-2.9539,-2.9792,-2.9792,-2.9792,-2.9792,-2.9792,-2.9792,-2.9792,-2.9792,-2.9792,-2.9829,-2.9867,-2.9867,-2.9867,-2.9867,-2.9867,-2.9829,-2.9792,-2.9792,-2.9792,-2.9792,-2.9792,-3.0244,-3.0633,-3.0683,-3.1587,-3.2516,-3.3144,-3.4135,-3.5002,-3.5554,-3.6056,-3.6358,-3.6358,-3.6358,-3.6358,-3.6263,-3.6358,-3.5966,-3.4884,-3.3697,-3.2588,-3.1483,-3.0495,-2.9994,-2.9994,-2.9994,-2.9994,-2.9994,-2.9994,-2.9994,-2.9994,-2.9994,-2.9994,-2.9994,-2.9994,-3.0588,0.0,-3.1483,-3.2083,-3.3101,-3.3101,-3.3101,-3.3201,-3.3201,-3.3201,-3.3201,0.0,0.0,0.0,0.0,0.0,0.0,-2.5893,-2.5893,-2.5893,-2.5893,-2.5893,-2.5674,-2.5061,-2.5564,-2.5481,-2.4509,0.0,0.0,0.0,0.0,0.0,0.0,0.0,0.0,0.0,0.0,-2.8492,-2.8492,-2.7524,0.0,0.0,0.0,0.0,0.0,0.0,-2.5931,-2.5931,-2.5523,0.0,0.0,0.0,0.0,0.0,0.0,0.0,0.0,0.0,0.0,-2.9003,-2.9639,-2.9792,-2.9792,-2.9792,-2.9792,-2.9792,-2.9792,-2.9792,-2.9792,-2.9792,-2.9792,-2.9792,-2.9792,-2.9792,-2.9792,-2.9792,-2.9792,-2.9792,-2.9792,-2.9792,-2.9792,-2.9792,-2.9967,-3.0231,-3.0557,-3.1235,-3.2039,-3.2955,-3.3746,-3.4562,-3.5441,-3.573,-3.5994,-3.632,-3.6358,-3.6358,-3.6358,-3.6358,-3.625,-3.5763,-3.4775,-3.3685,-3.2588,-3.1483,-3.0991,-3.0991,-3.0991,-3.0692,-2.9994,-3.0692,-3.0588,-2.9994,-2.9994,-2.9994,-2.9994,-2.9994,-3.0588,0.0,-3.1575,-3.2577,-3.419,-3.419,-3.4581,-3.5174,-3.5174,-3.5174,-3.5174,0.0,0.0,0.0,0.0,0.0,-2.5893,-2.5893,-2.5893,-2.5893,-2.5893,-2.5893,-2.5729,-2.5286,-2.5674,-2.5536,-2.4667,-2.537,0.0,0.0,0.0,0.0,0.0,0.0,0.0,0.0,0.0,-2.8839,-2.8839,-2.813,-2.7802,0.0,0.0,-2.7484,-2.7484,0.0,0.0,0.0,0.0,0.0,0.0,0.0,0.0,0.0,0.0,0.0,0.0,0.0,0.0,0.0,0.0,0.0,-2.9792,-2.9792,-2.9792,-2.9792,-2.9792,-2.9792,-2.9792,-2.9792,-2.9792,-2.9792,-2.9792,-2.9792,-2.9792,-2.9792,-2.9792,-2.9792,-2.9792,-2.9792,-2.9792,-2.9792,-2.9792,-2.9917,-3.0306,-3.0821,-3.1499,-3.2441,-3.3206,-3.401,-3.4951,-3.5353,-3.5705,-3.6081,-3.627,-3.6358,-3.6358,-3.6358,-3.6358,-3.6358,-3.5667,-3.4775,-3.3697,-3.2588,-3.2083,-3.2083,-3.2083,-3.1688,-3.1002,-3.1688,-3.1688,-3.0899,-3.0899,-3.0899,-3.0899,-3.0899,-3.1597,0.0,-3.2577,-3.3575,-3.5271,-3.5271,-3.5763,-3.6358,-3.6358,-3.6257,-3.6119,0.0,0.0,0.0,0.0,0.0,0.0,-2.5893,-2.5893,-2.5893,-2.5893,-2.5893,-2.5893,-2.5893,-2.5893,-2.5893,-2.5893,-2.5893,0.0,0.0,0.0,0.0,0.0,0.0,0.0,0.0,0.0,-2.9602,-2.9602,-2.8839,-2.8492,-2.8492,-2.7802,-2.7484,-2.7484,0.0,0.0,0.0,0.0,0.0,0.0,0.0,0.0,0.0,0.0,0.0,0.0,0.0,0.0,0.0,0.0,0.0,0.0,0.0,-2.9792,-2.9792,-2.9792,-2.9792,-2.9792,-2.9792,-2.9792,-2.9792,-2.9792,-2.9792,-2.9792,-2.9792,-2.9792,-2.9792,-2.9792,-2.9792,-2.9792,-2.9792,-2.9792,-2.9792,-2.9804,-3.0269,-3.0809,-3.1336,-3.2378,-3.3294,-3.3847,-3.4876,-3.5542,-3.5554,-3.6044,-3.6358,-3.6358,-3.6358,0.0,-3.6358,-3.6358,-3.587,-3.4787,-3.3697,-3.3201,-3.3201,-3.3201,-3.3201,-3.3201,-3.3201,-3.3201,-3.3201,-3.3201,-3.3201,-3.3201,-3.3201,-3.3796,0.0,-3.4775,-3.5379,-3.6358,-3.6358,-3.6358,-3.6358,-3.6358,-3.6019,-3.5554,0.0,0.0,0.0,0.0,0.0,0.0,0.0,-2.5893,-2.5893,-2.5893,-2.5893,-2.5893,-2.5893,-2.5893,-2.5893,-2.5893,-2.5893,0.0,0.0,0.0,0.0,0.0,0.0,0.0,0.0,0.0,-2.9602,-2.9602,-2.9401,-2.9261,-2.9261,-2.9008,-2.8944,-2.8944,-2.839,-2.8182,0.0,0.0,0.0,0.0,0.0,0.0,0.0,0.0,0.0,0.0,0.0,0.0,0.0,0.0,0.0,0.0,0.0,0.0,0.0,-2.9792,-2.9792,-2.9792,-2.9792,-2.9792,-2.9792,-2.9792,-2.9792,-2.9792,-2.9792,-2.9792,-2.9792,-2.9792,-2.9792,-2.9792,-2.9792,-2.9792,-2.9792,-2.9792,-3.0256,-3.0796,-3.1323,-3.2026,-3.2842,-3.3796,-3.4876,-3.5692,-3.6069,-3.6257,-3.6358,-3.6358,-3.6358,-3.6358,-3.6358,-3.6358,-3.6263,-3.5858,-3.4872,-3.4288,-3.4288,-3.4288,-3.3895,-3.3201,-3.3993,-3.3895,-3.3201,-3.3201,-3.3201,-3.3201,-3.3201,-3.3796,-3.4775,-3.4775,-3.5475,-3.632,-3.5956,-3.5805,-3.5755,-3.5378,-3.5127,-3.4989,0.0,0.0,0.0,0.0,0.0,0.0,0.0,-2.5893,-2.5893,-2.5893,-2.5893,-2.5893,-2.5893,-2.5893,-2.5893,-2.5893,-2.5893,0.0,0.0,0.0,0.0,0.0,0.0,0.0,0.0,-2.8942,-2.9378,-2.9602,-2.9602,-2.9602,-2.9602,-2.9602,-2.9602,-2.9602,-2.9121,-2.8917,0.0,0.0,0.0,0.0,0.0,0.0,-2.8319,0.0,0.0,0.0,0.0,0.0,0.0,0.0,0.0,0.0,0.0,0.0,0.0,0.0,-2.9792,-2.9792,-2.9792,-2.9792,-2.9792,-2.9792,-2.9792,-2.9792,-2.9792,-2.9792,-2.9792,-2.9792,-2.9792,-2.9792,-2.9792,-2.9792,-2.9792,-2.9792,-3.008,-3.0557,-3.1286,-3.1687,-3.2403,-3.3746,-3.4688,-3.5454,-3.5994,-3.6245,-3.6358,-3.6358,-3.6358,-3.6358,-3.6358,-3.6358,-3.6358,-3.6358,-3.5763,-3.5367,-3.5367,-3.5367,-3.5078,-3.4385,-3.5078,-3.5078,-3.4385,-3.4385,-3.4385,-3.4385,-3.4385,-3.4775,0.0,-3.5159,-3.5466,-3.5994,-3.5454,-3.524,-3.519,-3.4851,-3.4587,-3.4412,0.0,0.0,0.0,0.0,0.0,0.0,0.0,-2.5893,-2.5893,-2.5893,-2.5893,-2.5893,-2.5893,-2.5893,-2.5893,-2.5893,0.0,0.0,0.0,0.0,0.0,0.0,0.0,0.0,-2.7762,-2.838,-2.8998,-2.9602,-2.9602,-2.9602,-2.9602,-2.9602,-2.9602,-2.9602,-2.9602,-2.9602,0.0,0.0,0.0,0.0,0.0,0.0,0.0,0.0,0.0,0.0,0.0,0.0,0.0,0.0,0.0,0.0,0.0,0.0,0.0,0.0,0.0,0.0,0.0,-2.9792,-2.9792,-2.9792,-2.9792,-2.9792,-2.9792,-2.9792,0.0,-2.9792,-2.9792,-2.9792,-2.9792,-2.9792,-2.9792,-2.9792,-2.9792,-3.0168,-3.1235,-3.1461,-3.2102,-3.3709,-3.4349,-3.4876,-3.5429,-3.5981,-3.6307,-3.6307,-3.6345,-3.6358,-3.6358,-3.6358,-3.6358,-3.6358,-3.6358,-3.6358,-3.6358,-3.6358,-3.6358,-3.6358,-3.6358,-3.6358,-3.6358,-3.6358,-3.6358,0.0,-3.632,-3.6307,-3.6257,-3.5717,-3.5399,-3.5429,-3.4876,-3.4663,-3.4663,-3.4625,-3.4274,-3.3847,0.0,0.0,0.0,0.0,0.0,0.0,0.0,0.0,0.0,0.0,-2.5893,-2.5893,-2.5893,-2.5893,-2.5893,0.0,0.0,0.0,0.0,0.0,0.0,0.0,0.0,0.0,-2.7762,-2.838,-2.8998,-2.9602,-2.9602,-2.9602,-2.9602,-2.9602,-2.9602,-2.9602,-2.9602,-2.9651,0.0,0.0,0.0,0.0,0.0,0.0,0.0,0.0,0.0,0.0,-3.0983,-3.0641,0.0,0.0,0.0,0.0,0.0,0.0,0.0,0.0,-2.9792,-2.9792,-2.9792,0.0,-2.9792,-2.9792,-2.9792,-2.9792,0.0,-2.9792,-2.9792,-2.9792,-2.9792,-2.9792,-2.9792,-2.9792,-2.9792,-2.9792,-2.9792,-3.0168,-3.1235,-3.2127,-3.298,-3.3796,-3.401,-3.4311,-3.4864,-3.5416,-3.573,-3.573,-3.6119,-3.6358,-3.6358,-3.6358,-3.6358,-3.6358,-3.6358,-3.6358,-3.6358,-3.6358,-3.6358,-3.6358,-3.6358,-3.6358,-3.6358,-3.6358,-3.6358,-3.6332,-3.5918,-3.573,-3.5692,-3.514,-3.4914,-3.4864,-3.4311,-3.4098,-3.4035,-3.3621,-3.3382,-3.3269,0.0,0.0,0.0,0.0,0.0,0.0,0.0,0.0,0.0,0.0,0.0,0.0,0.0,0.0,0.0,0.0,0.0,0.0,0.0,0.0,0.0,0.0,0.0,-2.6821,-2.7762,-2.8099,-2.8717,-2.9602,-2.9602,-2.9602,-2.9602,-2.9602,-2.9602,-2.9602,-2.9651,-2.9775,0.0,0.0,0.0,0.0,-3.1099,0.0,0.0,0.0,0.0,0.0,-3.2154,-3.1769,0.0,-3.1044,-3.0908,-3.0797,0.0,0.0,0.0,0.0,-2.9792,-2.9792,-2.9792,-2.9792,-2.9792,-2.9792,-2.9792,-2.9792,-2.9792,-2.9792,-2.9792,-2.9792,-2.9792,-2.9792,-2.9792,-2.9792,-2.9792,-2.9792,-2.9792,-3.0168,-3.1235,-3.2365,-3.3181,-3.3483,-3.3746,-3.401,-3.4311,-3.4851,-3.5165,-3.5165,-3.5441,-3.5717,-3.5968,-3.5994,-3.6094,-3.6358,-3.6358,-3.6358,-3.6358,-3.6358,-3.6358,-3.6358,-3.6358,-3.6219,-3.5994,-3.5994,-3.5843,-3.5592,-3.529,-3.5165,-3.5127,-3.4575,-3.4349,-3.4286,-3.3734,-3.352,-3.3483,-3.3181,-3.3081,-3.3081,0.0,0.0,0.0,0.0,0.0,0.0,0.0,0.0,0.0,0.0,0.0,0.0,0.0,0.0,0.0,0.0,0.0,0.0,0.0,0.0,0.0,0.0,0.0,-2.6483,-2.7748,-2.7776,-2.838,-2.9602,-2.9602,-2.9602,-2.9602,-2.9602,-2.9602,-2.9602,-2.9761,-2.9898,0.0,0.0,0.0,0.0,-3.157,0.0,0.0,0.0,0.0,0.0,0.0,0.0,0.0,-3.1476,-3.1623,-3.1869,-3.0583,0.0,0.0,0.0,0.0,0.0,-2.9869,-2.9792,-2.9792,-2.9792,-2.9792,-2.9792,-2.9792,-2.9792,-2.9792,-2.9792,-2.9792,-2.9792,-2.9792,-2.9792,-2.9792,-2.9792,-2.9867,-3.0269,-3.1248,-3.229,-3.298,-3.3068,-3.3483,-3.3771,-3.3771,-3.4274,-3.46,-3.46,-3.4675,-3.4926,-3.5391,-3.5416,-3.5629,-3.6094,-3.6107,-3.6107,-3.6107,-3.6194,-3.6194,-3.6107,-3.6107,-3.5868,-3.5416,-3.5416,-3.5165,-3.4713,0.0,0.0,-3.4562,-3.3997,-3.3771,-3.3721,-3.3257,-3.3081,-3.3081,-3.3081,-3.3081,-3.3081,0.0,0.0,0.0,0.0,0.0,0.0,0.0,0.0,0.0,0.0,0.0,0.0,0.0,0.0,0.0,0.0,0.0,0.0,0.0,0.0,0.0,-2.5893,-2.5893,-2.6483,-2.7748,-2.7776,-2.838,-2.9602,-2.9602,-2.9602,-2.9602,-2.9602,-2.9602,-2.9602,-2.9761,-2.9898,-3.0154,-3.0683,-3.1142,-3.155,-3.2522,0.0,0.0,0.0,0.0,0.0,0.0,0.0,0.0,-3.2861,-3.2506,-3.2074,-3.1796,0.0,0.0,0.0,0.0,0.0,-2.9998,-2.9792,-2.9792,-2.9792,-2.9792,-2.9792,-2.9792,-2.9792,-2.9792,-2.9792,-2.9792,-2.9792,-2.9792,-2.9792,-2.9792,-2.9792,-3.0181,-3.0696,-3.1298,-3.1938,-3.2528,-3.3018,-3.3156,-3.3206,-3.3206,-3.3709,-3.4022,-3.4022,-3.4462,-3.4763,-3.4851,-3.4851,-3.4889,-3.4977,-3.4977,-3.4977,-3.4977,-3.5429,-3.5429,-3.4977,-3.4977,-3.4926,-3.4851,-3.4851,-3.4801,-3.47,0.0,-3.4022,-3.3985,-3.3432,-3.3206,-3.3194,-3.3106,-3.3081,-3.3081,-3.3081,-3.3081,-3.3081,0.0,0.0,0.0,0.0,0.0,0.0,0.0,0.0,0.0,0.0,0.0,0.0,0.0,0.0,0.0,0.0,0.0,0.0,0.0,0.0,0.0,-2.5893,-2.5893,-2.6483,-2.7748,-2.7776,-2.838,-2.9602,-2.9602,-2.9602,-2.9602,-2.9602,-2.9665,-2.9713,-2.9898,-3.0021,-3.0233,-3.0657,-3.13,-3.2106,0.0,0.0,0.0,0.0,0.0,0.0,0.0,0.0,0.0,0.0,-3.3227,-3.3171,-3.2376,0.0,0.0,0.0,0.0,0.0,-2.9856,-2.9792,-2.9792,-2.9792,-2.9792,-2.9792,-2.9792,-2.9792,-2.9792,-2.9792,-2.9792,-2.9792,-2.9792,-2.9792,-2.9792,-2.9792,-3.0256,-3.0796,-3.1323,-3.1863,-3.2428,-3.3006,-3.3081,-3.3081,-3.3081,-3.3307,-3.3458,-3.3458,-3.3696,-3.396,-3.4261,-3.4274,-3.4412,-3.4713,-3.4726,-3.4575,-3.4274,-3.4525,-3.4675,-3.4726,-3.4726,-3.4562,-3.4274,-3.4274,-3.411,-3.3822,0.0,-3.3458,-3.3432,-3.3181,-3.3081,-3.3081,-3.3081,-3.3081,-3.3119,-3.342,-3.352,-3.352,0.0,0.0,0.0,0.0,0.0,0.0,0.0,0.0,0.0,0.0,0.0,0.0,0.0,0.0,0.0,0.0,0.0,0.0,0.0,0.0,-2.5893,-2.5893,-2.5893,-2.6483,-2.7748,-2.7776,-2.838,-2.9602,-2.9602,-2.9602,-2.9602,-2.9665,-2.9713,-2.9808,-3.0021,-3.0205,-3.0326,-3.0667,-3.1467,-3.2527,0.0,0.0,0.0,0.0,0.0,0.0,0.0,0.0,0.0,0.0,0.0,0.0,0.0,0.0,0.0,-3.1489,-3.0921,-3.0508,-3.0152,-3.0075,-2.9998,-2.9856,-2.9792,-2.9792,-2.9792,-2.9792,-2.9792,-2.9792,-2.9792,-2.9792,-2.9792,-2.9792,-2.9792,-2.9792,-3.0143,-3.0608,-3.1135,-3.1675,-3.2227,-3.2805,-3.2993,-3.3081,-3.3081,-3.3081,-3.3081,-3.3081,-3.3081,-3.3257,-3.3684,-3.3709,-3.3897,-3.4324,-3.4336,-3.4135,-3.3709,-3.3709,-3.3922,-3.4336,-3.4336,-3.411,-3.3709,-3.3709,-3.3483,-3.3081,-3.3081,-3.3081,-3.3081,-3.3219,-3.3269,-3.3282,-3.342,-3.3382,-3.3282,-3.3445,-3.3508,-3.3483,0.0,0.0,0.0,0.0,0.0,0.0,0.0,0.0,0.0,0.0,0.0,0.0,0.0,0.0,0.0,0.0,0.0,0.0,0.0,0.0,-2.5893,-2.5893,-2.5893,-2.6483,-2.7748,-2.7776,-2.838,-2.9602,-2.9602,-2.9602,-2.9602,-2.9699,-2.9808,-2.9808,-3.0129,-3.0312,-3.0355,-3.113,-3.1859,-3.2571,-3.3166,0.0,0.0,0.0,0.0,0.0,0.0,0.0,0.0,0.0,0.0,0.0,0.0,0.0,-3.3977,-3.2448,-3.2434,-3.2635,-3.118,-3.082,-3.0696,-2.9998,-2.9792,-2.9792,-2.9792,-2.9792,-2.9792,-2.9792,-2.9792,-2.9792,-2.9792,-2.9792,-2.9792,-2.9792,-2.9829,-3.0043,-3.0595,-3.1122,-3.165,-3.2202,-3.2754,-3.3081,-3.3081,-3.3081,-3.3081,-3.3081,-3.3081,-3.3093,-3.3131,-3.3131,-3.3156,-3.3194,-3.3194,-3.3181,-3.3131,-3.3131,-3.3156,-3.3194,-3.3194,-3.3169,-3.3131,-3.3131,-3.3119,-3.3081,-3.3081,-3.3081,-3.3119,-3.3633,-3.3847,-3.3884,-3.4399,-3.4299,-3.3721,-3.2704,-3.2328,-3.2252,0.0,0.0,0.0,0.0,0.0,0.0,0.0,0.0,0.0,0.0,0.0,0.0,0.0,0.0,0.0,0.0,0.0,0.0,0.0,-2.5893,-2.5893,-2.5893,-2.6259,-2.6877,-2.7762,-2.7776,-2.838,-2.9602,-2.9602,-2.9602,-2.9602,-2.9761,-2.9884,-2.9974,-3.0205,-3.0387,-3.0522,-3.0829,-3.154,-3.2542,-3.2788,-3.3499,0.0,0.0,0.0,0.0,0.0,0.0,0.0,0.0,-3.4414,-3.4346,-3.4045,-3.3811,-3.352,-3.2946,-3.2277,-3.1769,-3.1709,-3.0921,-3.0279,-3.0406,-3.0139,-2.9792,-2.9792,-2.9792,-2.9792,-2.9792,-2.9792,-2.9792,-2.9792,-2.9792,-2.9792,-2.9792,-2.9792,-2.998,-3.0532,-3.0783,-3.1097,-3.1637,-3.2202,-3.2541,-3.2541,-3.2867,-3.3081,-3.3081,-3.3081,-3.3081,-3.3081,-3.3081,-3.3081,-3.3081,-3.3081,-3.3081,-3.3081,-3.3081,-3.3081,-3.3081,-3.3081,-3.3081,-3.3081,-3.3081,-3.3081,-3.3081,-3.3081,-3.3081,-3.3093,-3.3307,-3.3382,-3.337,-3.3219,-3.3031,-3.2792,-3.2378,-3.2215,-3.2177,0.0,0.0,0.0,0.0,0.0,0.0,0.0,0.0,0.0,0.0,0.0,0.0,0.0,0.0,0.0,0.0,0.0,0.0,-2.5893,-2.5893,-2.5893,-2.5893,-2.6483,-2.7116,-2.7762,-2.7973,-2.8577,-2.9602,-2.9602,-2.9602,-2.9651,-2.9837,-3.0021,-3.0158,-3.0341,-3.0447,-3.0582,-3.0785,-3.1511,-3.2527,-3.273,-3.3456,0.0,0.0,0.0,0.0,0.0,0.0,0.0,0.0,-3.4414,-3.4414,-3.4414,-3.4045,-3.3589,-3.3589,-3.2861,-3.206,-3.2362,-3.1649,-3.0859,-3.0895,-3.0545,-3.0075,-2.9856,-2.9792,-2.9792,-2.9792,-2.9792,-2.9792,-2.9792,-2.9792,-2.9792,-2.9792,-2.9792,-2.993,-3.0306,-3.0507,-3.0746,-3.1097,-3.1625,-3.1951,-3.1951,-3.2315,-3.2616,-3.2792,-3.2805,-3.288,-3.3068,-3.3081,-3.3081,-3.3081,-3.3081,-3.3081,-3.3081,-3.3081,-3.3081,-3.3081,-3.3081,-3.3081,-3.3081,-3.3081,-3.3081,-3.3081,-3.3081,-3.3081,-3.3081,-3.3081,-3.3081,-3.3018,-3.2441,-3.2215,-3.2177,-3.1838,-3.1712,-3.1687,0.0,0.0,0.0,0.0,0.0,0.0,0.0,0.0,0.0,0.0,0.0,0.0,0.0,0.0,0.0,0.0,0.0,0.0,-2.5893,-2.5893,-2.5893,-2.5893,-2.6483,-2.7116,-2.7762,-2.8394,-2.8998,-2.9602,-2.9602,-2.9651,-2.9822,-3.0036,-3.0158,-3.0312,-3.0507,-3.0568,-3.0611,-3.125,-3.1903,-3.2571,-3.3209,-3.3848,-3.4414,0.0,0.0,0.0,0.0,0.0,0.0,0.0,-3.4414,-3.4414,-3.4414,-3.4414,-3.4414,-3.4414,-3.4414,-3.4196,-3.3437,-3.3213,-3.2847,-3.1328,-3.0895,-3.0683,-3.0011,-2.9792,-2.9792,-2.9792,-2.9792,-2.9792,-2.9792,-2.9792,-2.9792,-2.9792,-2.9792,-2.9792,-2.9792,-3.0269,-3.0608,-3.0608,-3.1072,-3.1386,-3.1386,-3.1386,-3.1625,-3.2164,-3.2202,-3.2453,-3.3031,-3.3068,-3.3068,-3.3068,-3.3081,-3.3081,-3.3081,-3.3081,-3.3081,-3.3081,-3.3068,-3.3068,-3.3081,-3.3081,-3.3081,-3.3068,-3.3068,-3.3068,-3.3056,-3.3056,-3.3056,-3.3006,-3.2416,-3.219,-3.2064,-3.0997,-3.0608,-3.0532,0.0,0.0,0.0,0.0,0.0,0.0,0.0,0.0,0.0,0.0,0.0,0.0,0.0,0.0,0.0,0.0,0.0,0.0,-2.5893,-2.5893,-2.5893,-2.5893,-2.6919,-2.7579,-2.7776,-2.8802,-2.9482,-2.9761,-2.9761,-2.9837,-3.0036,-3.0144,-3.0266,-3.0312,-3.0507,-3.0568,-3.0611,-3.125,-3.1903,-3.2571,-3.3209,-3.3848,-3.4414,0.0,0.0,0.0,0.0,0.0,0.0,0.0,0.0,0.0,-3.4414,-3.4414,-3.4414,-3.4414,-3.3977,-3.3604,-3.3962,-3.3241,-3.229,-3.1856,-3.1341,-3.0683,-3.0011,-2.9792,-2.9792,-2.9792,-2.9792,-2.9792,-2.9792,-2.9792,-2.9792,-2.9792,-2.9792,-2.9792,-2.9792,-2.993,-3.0043,-3.0043,-3.052,-3.0846,-3.0846,-3.1173,-3.1461,-3.1625,-3.1637,-3.1712,-3.1876,-3.2252,-3.2466,-3.2466,-3.2867,-3.3081,-3.3081,-3.3081,-3.3081,-3.3068,-3.2667,-3.2679,-3.3081,-3.3081,-3.2855,-3.2466,-3.2466,-3.2252,-3.1888,-3.1888,-3.1675,-3.1323,-3.116,-3.0859,-3.047,-3.0156,-3.0043,-3.0018,0.0,0.0,0.0,0.0,0.0,0.0,0.0,0.0,0.0,0.0,0.0,0.0,0.0,0.0,0.0,0.0,0.0,0.0,0.0,-2.5948,-2.606,-2.6355,-2.7285,-2.8001,-2.8493,-2.9285,-2.9775,-2.9898,-2.9822,-2.9946,-3.0158,-3.0266,-3.0326,-3.0447,-3.0568,-3.0568,-3.064,-3.154,-3.215,-3.26,-3.3485,-3.408,-3.4414,0.0,0.0,0.0,0.0,0.0,0.0,0.0,0.0,0.0,-3.4414,-3.4414,-3.4414,-3.4414,-3.4045,-3.3742,-3.4264,-3.3756,-3.2889,-3.2218,-3.2001,-3.1563,-3.0495,-2.9998,-2.9792,-2.9792,-2.9792,-2.9792,-2.9792,-2.9792,-2.9792,-2.9792,-2.9792,-2.9792,-2.9792,-2.9792,-2.9792,-2.9792,-3.0093,-3.0281,-3.0281,-3.057,-3.0846,-3.1072,-3.1085,-3.1173,-3.1386,-3.17,-3.1888,-3.1888,-3.2227,-3.2403,-3.2403,-3.2403,-3.2403,-3.2403,-3.2051,-3.2064,-3.2403,-3.2403,-3.2215,-3.1888,-3.1888,-3.1587,-3.1085,-3.1085,-3.0771,-3.0281,-3.0281,-3.008,-2.9792,-2.9792,-2.9792,-2.9792,0.0,0.0,0.0,0.0,0.0,0.0,0.0,0.0,0.0,0.0,0.0,0.0,0.0,0.0,0.0,0.0,0.0,0.0,0.0,0.0,-2.6284,-2.7073,-2.7596,-2.8468,-2.9651,-2.9761,-2.9884,-3.0111,-2.9946,-3.0007,-3.0312,-3.0312,-3.0447,-3.0568,-3.0568,-3.0611,-3.0742,-3.199,-3.2556,-3.2716,-3.392,-3.4414,-3.4414,-3.4414,0.0,0.0,0.0,0.0,0.0,0.0,0.0,0.0,-3.4414,-3.4414,-3.4414,-3.4414,-3.4414,-3.4414,-3.4414,-3.4414,-3.4045,-3.2591,-3.2577,-3.2635,-3.1254,-3.0343,-2.9792,-2.9792,-2.9792,-2.9792,-2.9792,-2.9792,-2.9792,-2.9792,-2.9792,-2.9792,-2.9792,-2.9792,-2.9792,-2.9792,-2.9792,-2.9792,-2.9792,-2.9792,-2.9993,-3.0507,-3.0545,-3.0746,-3.1223,-3.1286,-3.1323,-3.1323,-3.1361,-3.1386,-3.1386,-3.1386,-3.1386,-3.1386,-3.1336,-3.1323,-3.1323,-3.1361,-3.1361,-3.1311,-3.126,-3.0984,-3.0545,-3.0545,-3.0244,-2.9792,-2.9792,-2.9792,-2.9792,-2.9792,-2.9792,-2.9792,0.0,0.0,0.0,0.0,0.0,0.0,0.0,0.0,0.0,0.0,0.0,0.0,0.0,0.0,0.0,0.0,0.0,0.0,0.0,0.0,-2.6394,-2.724,-2.8166,-2.9057,-2.9974,-2.9898,-2.9946,-3.0266,-3.019,-3.0312,-3.0507,-3.0507,-3.0568,-3.0568,-3.0568,-3.0843,-3.1366,-3.2179,-3.2803,-3.3325,-3.4109,-3.4414,-3.4414,-3.4414,-3.4414,0.0,0.0,0.0,0.0,0.0,0.0,0.0,-3.4414,-3.4414,-3.4414,-3.4414,-3.4414,-3.4414,-3.4414,-3.4414,-3.4196,-3.3227,-3.2205,-3.1328,-3.097,-3.0343,-2.9792,-2.9792,-2.9792,-2.9792,-2.9792,-2.9792,-2.9792,-2.9792,-2.9792,-2.9792,-2.9792,-2.9792,-2.9792,-2.9792,-2.9792,-2.9792,-2.9792,-2.9792,-2.9842,-2.9955,-2.9967,-3.0018,-3.0131,-3.0545,-3.0783,-3.0783,-3.1173,-3.1386,-3.1386,-3.1386,-3.1386,-3.1386,-3.0972,-3.0783,-3.0796,-3.1198,-3.1173,-3.0758,-3.0331,-3.0068,-2.9967,-2.9967,-2.9892,-2.9792,-2.9792,-2.9792,-2.9792,-2.9792,-2.9792,-2.9792,0.0,0.0,0.0,0.0,0.0,0.0,0.0,0.0,0.0,0.0,0.0,0.0,0.0,0.0,0.0,0.0,0.0,0.0,0.0,0.0,-2.7142,-2.814,-2.9083,-2.9754,-3.0111,-3.0083,-3.0129,-3.0312,-3.0387,-3.0507,-3.0568,-3.0568,-3.0568,-3.0568,-3.0568,-3.093,-3.1555,-3.2237,-3.289,-3.3514,-3.4167,-3.4414,-3.4414,-3.4414,-3.4414,-3.4414,-3.4414,0.0,0.0,0.0,0.0,0.0,0.0,0.0,-3.4414,-3.4414,-3.4414,-3.4414,-3.4414,-3.4414,-3.4264,-3.3894,-3.2648,-3.1563,-3.1915,-3.1429,-3.0872,-3.0872,-3.0292,-2.9792,-2.9792,-2.9792,-2.9792,-2.9792,-2.9792,-2.9792,-2.9792,-2.9792,-2.9792,-2.9792,-2.9792,-2.9792,-2.9792,-2.9792,-2.9792,-2.9792,-2.9792,-2.9792,-2.9792,-3.0068,-3.0218,-3.0218,-3.0482,-3.062,-3.062,-3.062,-3.062,-3.062,-3.0344,-3.0218,-3.0231,-3.0507,-3.0482,-3.0206,-2.9917,-2.9792,-2.9792,-2.9792,-2.9792,-2.9792,-2.9792,-2.9792,-2.9792,-2.9792,-2.9792,-2.9792,0.0,0.0,0.0,0.0,0.0,0.0,0.0,0.0,0.0,0.0,0.0,0.0,0.0,0.0,0.0,0.0,0.0,0.0,0.0,0.0,0.0,-2.9185,-2.9935,-3.0266,-3.0172,-3.0266,-3.0312,-3.0326,-3.0507,-3.0568,-3.0568,-3.0568,-3.0568,-3.0568,-3.0568,-3.0988,-3.1729,-3.228,-3.2948,-3.3674,-3.4196,-3.4414,-3.4414,-3.4414,-3.4414,-3.4414,-3.4414,-3.4414,-3.4414,-3.4414,0.0,0.0,0.0,0.0,-3.4414,-3.4414,-3.4414,-3.4414,-3.4414,-3.4414,-3.4414,-3.4414,-3.3311,-3.2434,-3.3073,-3.2648,-3.2074,-3.2074,-3.1009,-2.9998,-2.9998,-2.9869,-2.9792,-2.9792,-2.9792,-2.9792,-2.9792,-2.9792,-2.9792,-2.9792,-2.9792,-2.9792,-2.9792,-2.9792,-2.9792,-2.9792,-2.9792,-2.9792,-2.9792,-2.9792,-2.9792,-2.9792,-2.9792,-2.9792,-2.9792,-2.9792,-2.9792,-2.9792,-2.9792,-2.9792,-2.9792,-2.9792,-2.9792,-2.9792,-2.9792,-2.9792,-2.9792,-2.9792,-2.9792,-2.9792,-2.9792,-2.9792,-2.9792,-2.9792,-2.9792,-2.9792,0.0,0.0,0.0,0.0,0.0,0.0,0.0,0.0,0.0,0.0,0.0,0.0,0.0,0.0,0.0,0.0,0.0,0.0,-2.7509,0.0,0.0,-2.9376,-2.9981,-3.0387,-3.0522,-3.0387,-3.0387,-3.0568,-3.0568,-3.0568,-3.0568,-3.0568,-3.0568,-3.0568,-3.0568,-3.125,-3.2396,-3.2483,-3.3209,-3.4298,-3.4385,-3.4414,-3.4414,-3.4414,-3.4414,-3.4414,-3.4414,-3.4414,-3.4414,-3.4414,-3.4414,0.0,0.0,0.0,-3.4414,-3.4414,-3.4414,-3.4414,-3.4414,-3.4414,-3.4414,-3.4414,-3.3742,-3.3073,-3.3143,-3.2648,-3.2074,-3.2074,-3.1415,-3.0758,-3.0758,-3.0203,-2.9792,-2.9792,-2.9792,-2.9792,-2.9792,-2.9792,-2.9792,-2.9792,-2.9792,-2.9792,-2.9792,-2.9792,-2.9792,-2.9792,-2.9792,-2.9792,-2.9792,-2.9792,-2.9792,-2.9792,-2.9792,-2.9792,-2.9792,-2.9792,-2.9792,-2.9792,-2.9792,-2.9792,-2.9792,-2.9792,-2.9792,-2.9792,-2.9792,-2.9792,-2.9792,-2.9792,-2.9792,-2.9792,-2.9792,-2.9792,-2.9792,-2.9792,-2.9792,-2.9792,0.0,0.0,0.0,0.0,0.0,0.0,0.0,0.0,0.0,0.0,0.0,0.0,0.0,0.0,0.0,-2.6779,-2.7113,-2.7737,-2.8724,-2.9319,-2.9725,-3.0073,-3.0303,-3.0507,-3.0568,-3.0507,-3.0507,-3.0568,-3.0568,-3.0568,-3.0568,-3.0568,-3.0568,-3.0582,-3.0945,-3.1627,-3.2542,-3.2904,-3.3572,-3.4414,-3.4414,-3.4414,-3.4414,-3.4414,-3.4414,-3.4414,-3.4414,-3.4414,-3.4414,-3.4414,-3.4414,-3.4414,-3.4414,0.0,0.0,0.0,-3.4414,-3.4414,-3.4414,-3.4414,-3.4414,-3.4414,-3.4113,-3.3894,-3.3894,-3.3604,-3.3395,-3.3395,-3.272,-3.206,-3.1636,-3.1281,-3.1084,-3.1084,-3.0709,-3.0419,-3.0419,-3.0075,-2.9792,-2.9792,-2.9792,-2.9792,-2.9792,-2.9792,-2.9792,-2.9792,-2.9792,-2.9792,-2.9792,-2.9792,-2.9792,-2.9792,-2.9792,-2.9792,-2.9792,-2.9792,-2.9792,-2.9792,-2.9792,-2.9792,-2.9792,-2.9792,-2.9792,-2.9792,-2.9792,-2.9792,-2.9792,-2.9792,-2.9792,-2.9792,-2.9792,-2.9792,-2.9792,-2.9792,-2.9792,-2.9792,0.0,0.0,0.0,0.0,0.0,0.0,0.0,0.0,0.0,0.0,0.0,0.0,0.0,0.0,0.0,0.0,-2.7607,-2.8434,-2.9552,-2.9784,-3.0074,-3.0553,-3.0568,-3.0568,-3.0568,-3.0568,-3.0568,-3.0568,-3.0568,-3.0568,-3.0568,-3.0568,-3.0568,-3.0611,-3.1235,-3.1888,-3.2556,-3.3195,-3.3833,-3.4414,-3.4414,-3.4414,-3.4414,-3.4414,-3.4414,-3.4414,-3.4414,-3.4414,-3.4414,-3.4414,-3.4414,-3.4414,-3.4414,-3.4414,0.0,0.0,0.0,-3.4414,-3.4414,-3.4414,-3.4414,-3.4414,-3.4414,-3.4414,-3.4414,-3.4414,-3.4414,-3.4414,-3.3894,-3.3311,-3.2804,-3.2376,-3.2074,-3.2074,-3.1636,-3.118,-3.118,-3.0558,-3.0075,-3.0075,-2.9934,-2.9792,-2.9792,-2.9792,-2.9792,-2.9792,-2.9792,-2.9792,-2.9792,-2.9792,-2.9792,-2.9792,-2.9792,-2.9792,-2.9792,-2.9792,-2.9792,-2.9792,-2.9792,-2.9792,-2.9792,-2.9792,-2.9792,-2.9792,-2.9792,-2.9792,-2.9792,-2.9792,-2.9792,-2.9792,-2.9792,-2.9792,-2.9792,-2.9792,-2.9792,-2.9792,0.0,0.0,0.0,0.0,0.0,0.0,0.0,0.0,0.0,0.0,0.0,0.0,-2.6779,-2.7316,-2.7679,-2.7679,-2.826,-2.8913,-2.9581,-3.019,-3.0539,-3.0568,-3.0568,0.0,-3.0568,-3.0568,-3.0568,-3.0568,-3.0568,-3.0568,-3.0568,-3.0568,-3.0568,-3.0611,-3.1235,-3.1888,-3.2556,-3.3195,-3.3833,-3.4414,-3.4414,-3.4414,-3.4414,-3.4414,-3.4414,-3.4414,-3.4414,-3.4414,-3.4414,-3.4414,-3.4414,-3.4414,-3.4414,-3.4414,-3.4414,0.0,0.0,0.0,-3.4414,-3.4414,-3.4414,-3.4414,-3.4414,-3.4414,-3.4414,-3.4414,-3.4414,-3.4414,-3.4346,-3.4346,-3.4278,-3.3101,-3.2074,-3.2074,-3.2074,-3.2015,-3.2015,-3.1341,-3.082,-3.082,-3.0203,-2.9792,-2.9792,-2.9792,-2.9792,-2.9792,-2.9792,-2.9792,-2.9792,-2.9792,-2.9792,-2.9792,-2.9792,-2.9792,-2.9792,-2.9792,-2.9792,-2.9792,-2.9792,-2.9792,-2.9792,-2.9792,-2.9792,-2.9792,-2.9792,-2.9792,-2.9792,-2.9792,-2.9792,-2.9792,-2.9792,-2.9792,-2.9792,-2.9792,-2.9792,-2.9792,0.0,0.0,0.0,0.0,0.0,0.0,0.0,0.0,0.0,0.0,0.0,0.0,0.0,-2.7592,-2.7897,-2.8303,-2.8913,-2.9552,-3.019,-3.0451,-3.0568,-3.0568,-3.0568,-3.0568,-3.0568,-3.0568,-3.0568,-3.0568,-3.0568,-3.0568,-3.0568,-3.0568,-3.08,-3.1206,-3.1859,-3.2295,-3.2585,-3.363,-3.4196,-3.4414,-3.4414,-3.4414,-3.4414,-3.4414,-3.4414,-3.4414,-3.4414,-3.4414,-3.4414,-3.4414,-3.4414,-3.4414,-3.4414,-3.4414,-3.4414,-3.4414,-3.4414,-3.4414,-3.4414,-3.4414,-3.4414,-3.4414,-3.4414,-3.4414,-3.4414,-3.4414,-3.4414,-3.4414,-3.4414,-3.4414,-3.4414,-3.3977,-3.3618,-3.3618,-3.3157,-3.2791,-3.2791,-3.2146,-3.1709,-3.1709,-3.0983,-3.0482,-3.0482,-3.0075,-2.9792,-2.9792,-2.9792,-2.9792,-2.9792,-2.9792,-2.9792,-2.9792,-2.9792,-2.9792,-2.9792,-2.9792,-2.9792,-2.9792,-2.9792,-2.9792,-2.9792,-2.9792,-2.9792,-2.9792,-2.9792,-2.9792,-2.9792,-2.9792,-2.9792,-2.9792,-2.9792,-2.9792,-2.9792,-2.9792,-2.9792,-2.9792,0.0,0.0,0.0,0.0,0.0,0.0,0.0,0.0,0.0,-2.6779,0.0,0.0,0.0,0.0,-2.8623,-2.9261,-2.9697,-3.0118,-3.0553,-3.0568,-3.0568,-3.0568,-3.0568,-3.0568,-3.0568,-3.0568,-3.0568,-3.0568,-3.0568,-3.0568,-3.0568,-3.0568,-3.0916,-3.1555,-3.2222,-3.2629,-3.2904,-3.3964,-3.4414,-3.4414,-3.4414,-3.4414,-3.4414,-3.4414,-3.4414,-3.4414,-3.4414,-3.4414,-3.4414,-3.4414,-3.4414,-3.4414,-3.4414,-3.4414,-3.4414,-3.4414,-3.4414,-3.4414,-3.4414,-3.4414,-3.4414,-3.4414,-3.4414,-3.4414,-3.4414,-3.4414,-3.4414,-3.4414,-3.4414,-3.4414,-3.4414,-3.4414,-3.4414,-3.4414,-3.3962,-3.3589,-3.3589,-3.2946,-3.2434,-3.2434,-3.1769,-3.1193,-3.0895,-3.0482,-3.0075,-2.9792,-2.9792,0.0,-2.9792,-2.9792,-2.9792,-2.9792,-2.9792,-2.9792,-2.9792,-2.9792,-2.9792,-2.9792,-2.9792,-2.9792,-2.9792,-2.9792,-2.9792,-2.9792,-2.9792,-2.9792,-2.9792,-2.9792,-2.9792,-2.9792,-2.9792,-2.9792,-2.9792,-2.9792,-2.9792,-2.9792,0.0,0.0,0.0,0.0,0.0,0.0,0.0,0.0,-2.6823,-2.6823,0.0,0.0,0.0,0.0,0.0,-3.051,-3.0568,-3.0568,-3.0568,-3.0568,-3.0568,-3.0568,-3.0568,-3.0568,-3.0568,-3.0568,-3.0568,-3.0568,-3.0568,-3.0568,-3.0568,-3.0597,-3.0945,-3.1584,-3.2251,-3.2904,-3.3529,-3.4153,-3.4414,-3.4414,-3.4414,-3.4414,-3.4414,-3.4414,-3.4414,-3.4414,-3.4414,-3.4414,-3.4414,-3.4414,-3.4414,-3.4414,-3.4414,-3.4414,-3.4414,-3.4414,-3.4414,-3.4414,0.0,0.0,0.0,-3.4414,-3.4414,-3.4414,-3.4385,-3.4385,-3.4385,-3.4385,-3.4385,-3.4385,-3.4414,-3.4414,-3.4414,-3.4414,-3.4414,-3.4414,-3.4414,-3.3742,-3.3227,-3.3227,-3.2577,-3.1856,-3.1044,-3.097,-3.062,-2.9856,-2.9869,-2.9792,-2.9792,-2.9792,-2.9792,-2.9792,-2.9792,-2.9792,-2.9792,-2.9792,-2.9792,-2.9792,-2.9792,-2.9792,-2.9792,-2.9792,-2.9792,-2.9792,-2.9792,-2.9792,-2.9792,-2.9792,-2.9792,-2.9792,-2.9792,-2.9792,-2.9792,-2.9792,-2.9792,-2.9792,0.0,0.0,0.0,0.0,0.0,0.0,-2.6779,-2.7171,-2.7461,0.0,0.0,0.0,-2.9044,-2.9827,-3.0379,-3.0553,-3.0568,-3.0568,-3.0568,-3.0568,-3.0568,-3.0568,-3.0568,-3.0568,-3.0568,-3.0568,-3.0568,-3.0568,-3.0568,-3.0568,-3.0582,-3.1047,-3.1613,-3.2266,-3.2919,-3.3558,-3.4167,-3.4341,-3.4414,-3.4414,-3.4414,-3.4414,-3.4414,-3.4414,-3.4414,-3.4414,-3.4414,-3.4414,-3.4414,-3.4414,-3.4414,-3.4414,-3.4414,-3.4414,-3.4414,-3.4414,-3.4414,-3.4414,-3.4414,0.0,0.0,0.0,0.0,0.0,-3.3833,-3.3732,-3.3732,-3.3732,-3.3732,-3.3862,-3.4327,-3.4414,-3.4414,-3.4414,-3.4414,-3.4414,-3.4414,-3.4196,-3.4045,-3.4045,-3.3381,-3.2791,-3.2563,-3.206,-3.1415,0.0,-3.062,-3.0343,-2.9869,-2.9792,-2.9792,-2.9792,-2.9792,-2.9792,-2.9792,-2.9792,-2.9792,-2.9792,-2.9792,-2.9792,-2.9792,-2.9792,-2.9792,-2.9792,-2.9792,-2.9792,-2.9792,-2.9792,-2.9792,-2.9792,-2.9792,-2.9792,-2.9792,-2.9792,-2.9792,-2.9869,0.0,0.0,0.0,0.0,0.0,-2.6866,-2.7142,-2.749,-2.7824,0.0,0.0,0.0,-2.9958,-3.035,-3.0568,-3.0568,-3.0568,-3.0568,-3.0568,-3.0568,-3.0568,-3.0568,-3.0568,-3.0568,-3.0568,-3.0568,-3.0568,-3.0568,-3.0568,-3.0713,-3.0974,-3.1351,-3.2019,-3.2933,-3.3311,-3.3819,-3.4414,-3.4414,-3.4414,-3.4414,-3.4414,-3.4414,-3.4414,-3.4414,-3.4414,-3.4414,-3.4414,-3.4414,-3.4414,-3.4414,-3.4414,-3.4414,-3.4414,-3.4414,-3.4414,-3.4414,-3.4414,-3.4414,-3.4414,-3.4225,-3.4008,-3.4008,0.0,0.0,-3.3151,-3.3079,-3.3079,-3.3079,-3.3079,-3.318,-3.3558,-3.363,-3.3703,-3.3978,-3.4008,-3.4109,-3.437,-3.4414,-3.4414,-3.4414,-3.3977,-3.3589,-3.3213,-3.2791,-3.2218,-3.1489,-3.1415,-3.1057,-3.0279,-3.0011,-2.9792,-2.9792,-2.9792,-2.9792,-2.9792,-2.9792,-2.9792,-2.9792,-2.9792,-2.9792,-2.9792,-2.9792,-2.9792,-2.9792,-2.9792,-2.9792,-2.9792,-2.9792,-2.9792,-2.9792,-2.9792,-2.9792,-2.9792,-2.9792,-2.9998,-3.0343,0.0,0.0,-2.6779,-2.6779,-2.6852,-2.7084,-2.765,-2.7799,-2.8144,0.0,-2.9334,-2.9943,-3.051,-3.0568,-3.0568,-3.0568,-3.0568,-3.0568,-3.0568,-3.0568,-3.0568,-3.0568,-3.0568,-3.0568,-3.0568,-3.0568,-3.0611,-3.0684,-3.0684,-3.1003,-3.1627,-3.17,-3.2353,-3.347,-3.3543,-3.3891,-3.4414,-3.4481,-3.4481,-3.4414,-3.4414,-3.4414,-3.4414,-3.4414,-3.4414,-3.4414,-3.4414,-3.4414,-3.4414,-3.4414,-3.4414,-3.4414,-3.4414,-3.4414,-3.4414,-3.4414,-3.4414,-3.4399,-3.4327,-3.3891,-3.3456,-3.3383,-3.2933,0.0,-3.2425,-3.2411,-3.2411,-3.2411,-3.2411,-3.2425,-3.2513,-3.2513,-3.2701,-3.3267,-3.3369,-3.3616,-3.4312,-3.4414,-3.4414,-3.4414,-3.4414,-3.4113,-3.3367,-3.3297,-3.3003,-3.229,-3.2146,-3.1783,-3.097,-3.0279,-2.9856,-2.9792,-2.9792,-2.9792,-2.9792,-2.9792,-2.9792,-2.9792,-2.9792,-2.9792,-2.9792,-2.9792,-2.9792,-2.9792,-2.9792,-2.9792,-2.9792,-2.9792,-2.9792,-2.9792,-2.9792,-2.9792,-2.9792,-2.9856,-3.0343,-3.0895,0.0,-2.6779,-2.6779,-2.6779,-2.72,-2.7578,-2.7654,-2.8594,-2.9305,-2.9421,-2.9987,-3.0437,-3.0568,-3.0568,-3.0568,-3.0568,-3.0568,-3.0568,-3.0568,-3.0568,-3.0568,-3.0568,-3.0568,-3.0568,-3.0568,-3.0568,-3.0829,-3.1322,-3.1322,-3.1671,-3.2338,-3.2846,-3.3224,-3.3485,-3.4008,-3.4298,-3.4414,-3.4971,-3.4905,-3.4414,-3.4414,-3.4414,-3.4414,-3.4414,-3.4414,-3.4414,-3.4414,-3.4414,-3.4414,-3.4414,-3.4414,-3.4414,-3.4414,-3.4414,-3.4414,-3.4414,-3.4414,-3.4298,-3.379,-3.3558,-3.334,-3.2832,-3.2614,0.0,-3.1845,-3.1714,-3.1714,-3.1714,-3.1714,-3.1874,-3.2425,-3.2513,-3.2556,-3.2687,-3.2701,-3.3108,-3.4254,-3.4414,-3.4414,-3.4414,-3.4414,-3.4346,-3.4182,-3.4182,-3.3825,-3.3003,-3.2434,-3.1783,-3.097,-3.0758,-3.0406,-2.9792,-2.9792,-2.9792,-2.9792,-2.9792,-2.9792,-2.9792,-2.9792,-2.9792,-2.9792,-2.9792,-2.9792,-2.9792,-2.9792,-2.9792,-2.9792,-2.9792,-2.9792,-2.9792,-2.9792,-2.9792,-2.9856,-3.0482,-3.0758,-3.1106,-2.6779,-2.6779,-2.6881,-2.72,-2.752,-2.7885,-2.8579,-2.9218,-2.974,-3.0045,-3.0379,-3.0568,-3.0568,-3.0568,-3.0568,-3.0568,-3.0568,-3.0568,-3.0568,-3.0568,-3.0568,-3.0568,-3.0568,-3.0727,-3.1032,-3.1047,-3.1366,-3.2019,-3.2019,-3.2353,-3.3006,-3.3657,-3.4095,-3.4434,-3.4758,-3.5088,-3.54,-3.54,-3.5219,-3.4905,-3.4905,-3.4721,-3.4414,-3.4414,-3.4414,-3.4414,-3.4414,-3.4414,-3.4414,-3.4414,-3.4414,-3.4414,-3.4414,-3.4414,-3.4414,-3.4414,-3.4196,-3.3877,-3.3558,-3.2991,-3.2425,-3.2106,-3.1787,0.0,0.0,-3.1047,-3.1047,-3.1047,-3.1047,-3.1148,-3.1482,-3.154,-3.1656,-3.1961,-3.2019,-3.2367,-3.334,-3.347,-3.347,-3.347,-3.347,-3.347,-3.347,-3.3746,-3.3917,-3.3796,-3.3087,-3.2492,-3.206,-3.1328,-3.0758,-3.0343,-2.9998,-2.9792,-2.9792,-2.9792,-2.9792,-2.9792,-2.9792,-2.9792,-2.9792,-2.9792,-2.9792,-2.9792,-2.9792,-2.9792,-2.9792,-2.9792,-2.9792,-2.9869,-3.0203,-3.0343,-3.0419,-3.1206,-3.1696,-3.2132,-2.6779,-2.6881,-2.7128,-2.7636,-2.7871,-2.8378,-2.9464,-2.9726,-2.9987,-3.051,-3.0568,-3.0568,-3.0568,-3.0687,-3.0747,-3.0747,-3.0747,-3.0791,-3.0922,-3.0817,-3.0814,-3.0945,-3.0959,-3.1177,-3.17,-3.1714,-3.2034,-3.2701,-3.2815,-3.32,-3.3893,-3.4528,-3.5037,-3.5578,-3.5578,-3.5882,-3.6384,-3.5961,-3.5657,-3.54,-3.5514,-3.5088,-3.4414,-3.4414,-3.4414,-3.4414,-3.4414,-3.4414,-3.4414,-3.4414,-3.4414,-3.4414,-3.4414,-3.4414,-3.4414,-3.4414,-3.4051,-3.3601,-3.3354,-3.2513,-3.1656,-3.1395,-3.0945,-3.0568,0.0,0.0,0.0,-3.0568,-3.0568,-3.0568,-3.0568,-3.0568,-3.0742,-3.125,-3.1337,-3.1526,-3.2063,-3.2135,-3.2237,-3.2483,-3.2513,-3.2513,-3.2513,-3.3093,-3.3674,-3.4196,-3.3754,-3.3367,-3.3213,-3.206,-3.118,-3.0895,-3.0343,-2.9921,-2.9792,-2.9792,-2.9792,-2.9792,-2.9792,-2.9792,-2.9792,-2.9792,-2.9792,-2.9792,-2.9792,-2.9792,-2.9792,-2.9921,-2.9998,-3.0062,-3.0683,-3.0895,-3.1031,-3.2001,-3.272,-3.3213,-2.6779,-2.7229,-2.765,-2.7668,-2.861,-2.945,-2.961,-3.0103,-3.0495,-3.0568,-3.0568,-3.0568,-3.0568,-3.1087,-3.1422,-3.1422,-3.1422,-3.1617,-3.2139,-3.1701,-3.1671,-3.2266,-3.2295,-3.2338,-3.2396,-3.2411,-3.2716,-3.3369,-3.3928,-3.4558,-3.523,-3.5824,-3.6245,-3.6259,-3.6259,-3.6322,-3.6446,-3.6966,-3.6477,-3.5464,-3.6072,-3.5514,-3.4414,-3.4414,-3.4414,-3.4414,-3.4414,-3.4414,-3.4414,-3.4414,-3.4414,-3.4414,-3.4414,-3.4414,-3.4414,-3.4414,-3.4356,-3.4066,-3.2933,-3.2513,-3.2135,-3.0974,-3.0626,-3.0568,-3.0568,0.0,-3.0568,-3.0568,0.0,-3.0568,-3.0568,0.0,0.0,-3.0669,-3.0684,-3.0713,-3.0785,-3.08,-3.1221,-3.2382,-3.2513,-3.2513,-3.2513,-3.3093,-3.3499,-3.3572,-3.4028,-3.3962,-3.3227,-3.3003,-3.2349,-3.097,-3.082,-3.0482,-2.9792,-2.9792,-2.9792,-2.9792,-2.9792,-2.9792,-2.9792,-2.9792,-2.9792,-2.9792,-2.9792,-2.9792,-2.9856,-3.0482,-3.0758,-3.0758,-3.0895,-3.0895,-3.1106,-3.2563,-3.3143,-3.3297,-2.7384,-2.7549,-2.79,-2.8695,-2.9261,-2.974,-3.0118,-3.0408,-3.0568,-3.0568,-3.0568,-3.0568,-3.0568,-3.1128,-3.1501,-3.1524,-3.1486,-3.1767,-3.2378,-3.1819,-3.1816,-3.2483,-3.2513,-3.2864,-3.3554,-3.3632,-3.4133,-3.5172,-3.5472,-3.5719,-3.6009,-3.6646,-3.6966,-3.6966,-3.6966,-3.7207,-3.7578,-3.7476,-3.7103,-3.6523,-3.6446,-3.5834,-3.4971,-3.4534,-3.4414,-3.4414,-3.4414,-3.4414,-3.4414,0.0,-3.4414,-3.4414,-3.4414,-3.4414,-3.4414,-3.4414,-3.4153,-3.3746,-3.3209,-3.2513,-3.1801,-3.1264,-3.0843,-3.0568,-3.0568,-3.0568,-3.0568,-3.0568,0.0,0.0,0.0,0.0,0.0,0.0,-3.0568,-3.0568,-3.0568,-3.0568,-3.0785,-3.1322,0.0,0.0,-3.1903,-3.2179,-3.2658,-3.3412,-3.3703,-3.3874,-3.3879,-3.3451,-3.2918,-3.2277,-3.1402,-3.0758,-3.0406,-2.9998,-2.9792,-2.9792,-2.9792,-2.9792,-2.9792,-2.9792,-2.9792,-2.9792,-2.9792,-3.0075,-3.0482,-3.0758,-3.1193,-3.1636,-3.206,-3.2191,-3.2349,-3.352,-3.3894,-3.3962,-2.8773,-2.8451,-2.8536,-2.968,-2.9871,-3.0045,-3.051,-3.0747,-3.0866,-3.0866,-3.1176,-3.1338,-3.1338,-3.2094,-3.2586,-3.257,-3.2556,-3.2736,-3.3141,-3.2626,-3.2562,-3.3249,-3.3264,-3.3839,-3.4936,-3.4951,-3.5444,-3.6384,-3.6569,-3.6692,-3.6707,-3.7342,-3.7653,-3.7653,-3.7653,-3.796,-3.8391,-3.7902,-3.7594,-3.7358,-3.689,-3.615,-3.5335,-3.4668,-3.4414,-3.4414,-3.4414,-3.4414,-3.4414,-3.4414,-3.4414,0.0,-3.4414,-3.4414,-3.4414,-3.4414,-3.4095,-3.3688,-3.3514,0.0,-3.2004,0.0,0.0,0.0,0.0,0.0,0.0,0.0,-3.0568,0.0,0.0,0.0,-3.0568,-3.0568,0.0,-3.0568,-3.0568,-3.0568,-3.0568,-3.0568,-3.0568,0.0,0.0,-3.1409,-3.1903,-3.2861,-3.3267,-3.3674,-3.4124,-3.3725,-3.3437,-3.3213,-3.2132,-3.1328,-3.0895,-3.0343,-2.9998,-2.9792,-2.9792,-2.9792,-2.9792,-2.9792,-2.9792,-2.9792,-2.9998,-3.0419,-3.097,-3.1328,-3.1842,-3.2519,-3.3227,-3.352,-3.3589,-3.4182,-3.4414,-3.4414,-3.1136,-3.0362,-2.9725,-3.035,-3.0499,-3.0553,-3.0568,-3.1087,-3.148,-3.148,-3.2524,-3.3321,-3.3321,-3.4466,-3.5284,-3.5268,-3.5284,-3.5284,-3.52,-3.4619,-3.4622,-3.531,-3.534,-3.5661,-3.6353,-3.6353,-3.6368,-3.6384,-3.7027,-3.7358,-3.7417,-3.8033,-3.8391,-3.8391,-3.8391,-3.8391,-3.8391,-3.8391,-3.7976,-3.7417,-3.7358,-3.66,-3.5335,0.0,-3.4414,-3.4414,-3.4414,0.0,0.0,-3.4414,-3.4414,0.0,0.0,0.0,0.0,0.0,0.0,0.0,0.0,0.0,0.0,-3.2643,0.0,0.0,0.0,0.0,-3.0568,0.0,0.0,-3.0568,-3.0568,-3.0568,-3.0568,-3.0568,-3.0568,0.0,0.0,-3.0568,-3.0568,-3.0568,-3.0568,-3.0582,0.0,-3.1163,-3.154,-3.1584,-3.2759,-3.3485,-3.3499,-3.408,-3.4031,-3.3213,-3.3143,-3.242,-3.0895,-3.0895,-3.0482,-2.9792,-2.9792,-2.9792,-2.9792,-2.9792,-2.9792,-2.9869,-3.0545,-3.0895,-3.1044,-3.2492,-3.3143,-3.3213,-3.4045,-3.4346,-3.4332,-3.4414,-3.4414,-3.4414,-3.2447,-3.1958,-3.1546,-3.1698,-3.1784,-3.1766,-3.1766,-3.1936,-3.2257,-3.2684,-3.2732,-3.289,-3.3362,-3.3795,-3.4176,-3.4636,-3.4726,-3.5101,-3.5915,-3.4973,-3.4919,-3.5978,-3.5642,-3.5897,-3.7027,-3.7087,-3.7266,-3.7711,-3.796,-3.8091,-3.8091,-3.8278,-3.8391,-3.8391,-3.8391,-3.8391,-3.8391,-3.8391,-3.8278,-3.796,-3.7087,-3.6212,-3.5335,0.0,-3.4414,-3.4414,-3.4414,-3.4414,0.0,-3.4414,-3.4414,-3.4414,-3.4414,-3.4414,-3.4414,-3.4414,-3.4721,-3.4912,0.0,0.0,-3.4602,-3.394,0.0,0.0,0.0,0.0,0.0,0.0,0.0,0.0,-3.0568,-3.0568,-3.0568,-3.0568,-3.0568,-3.0568,0.0,-3.0568,-3.0568,-3.0568,-3.0568,-3.0568,-3.0568,-3.0756,-3.1061,-3.1482,-3.1932,-3.2556,-3.3427,-3.3674,-3.383,-3.4016,-3.3451,-3.2932,-3.242,-3.1928,-3.1267,-3.0558,-3.0558,-3.0266,-2.9792,-3.0279,-3.0558,-3.0545,-3.1341,-3.2001,-3.2492,-3.3003,-3.352,-3.4002,-3.3868,-3.379,-3.3833,-3.4254,-3.4153,-3.3732,-3.3447,-3.323,-3.2926,-3.2695,-3.2695,-3.2641,-3.2453,-3.2764,-3.3146,-3.3301,-3.3631,-3.396,-3.4368,-3.4359,-3.4636,-3.5291,-3.5386,-3.5697,-3.6279,-3.5704,-3.5676,-3.6554,-3.6024,-3.629,-3.7358,-3.7535,-3.777,-3.8205,-3.8335,-3.8391,-3.8391,-3.8391,-3.8391,-3.8391,-3.8391,-3.8391,-3.8391,-3.8391,-3.8391,-3.8278,-3.6951,-3.6134,0.0,0.0,-3.4414,-3.4414,0.0,-3.4414,-3.4414,-3.4414,-3.4414,-3.4414,-3.4414,-3.4534,-3.4787,-3.4787,-3.5219,-3.5642,-3.5219,-3.5453,0.0,-3.523,-3.4973,0.0,-3.3756,0.0,-3.2602,0.0,0.0,0.0,0.0,-3.0747,-3.0568,-3.0568,-3.0568,-3.0687,0.0,-3.1087,-3.1263,-3.1263,-3.0851,-3.0568,-3.0568,-3.0568,-3.0742,-3.1148,-3.1395,-3.1888,-3.273,-3.3209,-3.3659,-3.4066,-3.3779,-3.352,-3.3213,-3.272,-3.2001,-3.0895,-3.0895,-3.0469,-2.9869,-3.0545,-3.0895,-3.0957,-3.206,-3.2791,-3.3199,-3.3279,-3.3632,-3.4008,-3.3383,-3.3137,-3.318,-3.3587,-3.3485,-3.3035,-3.4101,-3.4101,-3.3933,-3.3355,-3.3251,-3.3108,-3.2594,-3.356,-3.4058,-3.3441,-3.5048,-3.627,-3.6303,-3.6303,-3.6578,-3.7203,-3.7268,-3.7014,-3.6374,-3.6711,-3.6906,-3.689,-3.66,-3.6738,-3.7417,-3.7711,-3.7886,-3.7886,-3.8205,-3.8391,-3.8391,-3.8391,-3.8391,-3.8391,-3.8391,-3.8391,-3.8391,-3.8391,-3.8391,-3.8278,-3.6951,-3.6446,-3.6322,-3.4971,-3.4467,-3.4467,-3.4467,-3.4481,-3.4467,-3.4481,-3.4467,-3.4467,-3.4467,-3.4971,-3.5464,-3.5464,-3.5946,-3.6446,-3.6384,-3.6446,-3.6508,-3.6446,-3.5952,0.0,0.0,0.0,-3.3593,0.0,0.0,0.0,0.0,-3.1087,-3.0687,-3.0687,-3.0687,-3.0866,-3.148,-3.2048,-3.2398,-3.2342,-3.1364,-3.0628,-3.0628,-3.0642,-3.0568,-3.0568,-3.1134,-3.1482,-3.1526,-3.2701,-3.3383,-3.3427,-3.4037,-3.3988,-3.3241,-3.3199,-3.2492,-3.1031,-3.1031,-3.062,-2.9934,-3.0696,-3.1018,-3.1066,-3.2593,-3.3241,-3.3156,-3.3379,-3.3427,-3.3354,-3.2716,-3.2454,-3.2425,-3.2454,-3.2469,-3.2382,-3.4101,-3.4101,-3.405,-3.3882,-3.3866,-3.4008,-3.4434,-3.4278,-3.4478,-3.5395,-3.5469,-3.5687,-3.6254,-3.6303,-3.6454,-3.6878,-3.6942,-3.6981,-3.7101,-3.6751,-3.6723,-3.7222,-3.6738,-3.6738,-3.7417,-3.7711,-3.7886,-3.7886,-3.8205,-3.8391,-3.8391,-3.8391,-3.8391,-3.8391,-3.8391,-3.8391,-3.8391,-3.8391,-3.8391,-3.8335,-3.746,-3.7147,-3.7027,0.0,-3.5897,-3.5834,-3.5335,-3.5154,-3.5204,-3.5706,-3.5897,-3.5897,-3.5897,-3.6009,-3.6134,-3.6134,-3.6646,-3.7027,-3.6508,-3.7131,-3.7711,-3.6951,-3.72,-3.7239,0.0,0.0,0.0,0.0,0.0,0.0,0.0,0.0,-3.1936,-3.1936,-3.1936,-3.1992,-3.216,-3.2272,-3.2216,-3.1766,-3.148,-3.1263,-3.1263,-3.0851,-3.0568,-3.0568,-3.0727,-3.1032,-3.1496,0.0,-3.2251,-3.2745,-3.3383,-3.3636,-3.3422,-3.3883,-3.3589,-3.2635,-3.2635,-3.2218,-3.1502,-3.229,-3.2386,-3.1972,-3.299,-3.3149,-3.2702,-3.2767,-3.2759,-3.2701,-3.2034,-3.1482,-3.1134,-3.1598,-3.1772,-3.1685,-3.3949,-3.4,-3.4101,-3.4101,-3.4,-3.4078,-3.4651,-3.4635,-3.4991,-3.6157,-3.6189,-3.6513,-3.7582,-3.7293,-3.7078,-3.7246,-3.7122,-3.7054,-3.6975,-3.6781,-3.6831,-3.721,-3.6708,-3.6646,-3.7013,-3.7314,-3.7508,-3.7508,-3.796,-3.8205,-3.8205,-3.8335,-3.8391,-3.8391,-3.8391,-3.8391,-3.8391,-3.8262,-3.8205,-3.8091,-3.7282,-3.7042,0.0,-3.6461,-3.6259,-3.6384,-3.6275,-3.6087,-3.5882,-3.6259,-3.6384,-3.6384,-3.6384,-3.6569,-3.6829,-3.6829,-3.7326,-3.777,-3.7385,-3.7711,-3.8075,-3.746,-3.7653,-3.7732,-3.6794,-3.6566,-3.6295,0.0,-3.4302,-3.3728,0.0,0.0,0.0,-3.2398,-3.2586,-3.2749,-3.2749,-3.298,-3.2911,-3.2281,-3.2226,-3.2074,-3.1537,-3.097,-3.0568,-3.0568,-3.0568,-3.0727,-3.109,0.0,-3.1685,-3.2077,-3.2716,-3.305,-3.305,-3.3412,-3.3159,-3.2358,-3.2358,-3.2,-3.13,-3.2,-3.2162,-3.1907,-3.2694,-3.2846,-3.2498,-3.2208,-3.2077,-3.2019,-3.1366,-3.0887,-3.0611,-3.0974,-3.1105,-3.1061,-3.3694,-3.3899,-3.4101,-3.4101,-3.3928,-3.3922,-3.4258,-3.4859,0.0,-3.6282,-3.7058,-3.8012,-3.9273,-3.8643,-3.8041,-3.7913,-3.7634,-3.7188,-3.6495,-3.6732,-3.6938,-3.6938,-3.6693,-3.6492,-3.6492,-3.6816,-3.7015,-3.7015,-3.7551,-3.7886,-3.7886,-3.8205,-3.8335,-3.8391,-3.8391,-3.8391,-3.8391,-3.8017,-3.7886,-3.7828,-3.6921,-3.6738,-3.689,-3.6352,-3.6275,-3.6631,-3.7222,-3.7027,-3.6508,-3.6631,-3.6631,-3.6631,-3.6631,-3.7087,-3.7535,-3.7476,-3.7902,-3.8391,-3.8278,-3.8075,-3.7886,-3.7828,-3.7594,-3.7476,-3.7711,-3.7385,-3.7062,-3.7214,-3.5805,-3.4545,0.0,0.0,0.0,-3.2563,-3.2949,-3.3251,-3.3251,-3.3764,-3.3866,-3.3251,-3.3182,0.0,-3.1709,-3.1087,-3.0687,-3.0628,-3.0568,-3.0568,-3.0568,0.0,-3.1395,-3.1395,-3.2034,-3.2382,-3.2382,-3.2483,-3.2163,-3.1467,-3.1467,-3.1121,-3.0515,-3.1188,-3.1411,-3.134,-3.2048,-3.2338,-3.2222,-3.1642,-3.1395,-3.1337,-3.0785,-3.0568,-3.0568,-3.0568,-3.0568,-3.0568,-3.3658,-3.3899,-3.4101,-3.4101,-3.433,-3.4713,-3.5342,-3.5572,-3.5963,-3.6717,-3.7847,-3.8729,-3.8969,-3.9132,-3.8888,-3.8027,-3.7934,-3.7514,-3.6538,-3.6554,-3.6616,-3.6616,-3.6554,-3.6492,-3.6492,-3.6816,-3.7015,-3.7015,-3.7314,-3.7653,-3.7886,-3.7943,-3.8148,-3.8391,-3.8391,-3.8391,-3.8391,-3.8017,0.0,-3.7886,-3.7417,-3.7282,-3.7282,-3.7163,-3.7163,-3.7222,-3.7358,-3.7342,-3.7282,-3.7828,-3.8017,-3.8017,-3.8017,-3.8148,-3.8148,-3.7886,-3.8075,-3.8278,-3.7727,-3.7711,-3.777,-3.7285,-3.727,-3.7373,-3.7165,-3.7433,-3.7562,-3.703,-3.6198,-3.5386,-3.4825,0.0,0.0,0.0,0.0,0.0,0.0,-3.3882,-3.3866,-3.3251,-3.3182,-3.2933,-3.2327,-3.1709,-3.1146,-3.0628,-3.0568,-3.0568,-3.0568,0.0,-3.0742,0.0,-3.1351,-3.17,0.0,0.0,-3.2449,-3.2306,-3.2306,-3.2241,-3.2098,-3.2241,-3.2003,-3.1483,-3.1623,-3.1395,-3.0901,-3.0785,-3.0742,-3.0727,-3.0611,-3.0568,-3.0568,-3.0568,-3.0568,-3.0568,-3.3607,-3.3797,-3.4011,-3.433,-3.4723,0.0,0.0,-3.6742,-3.7622,-3.8181,-3.8801,-3.9467,-4.0245,-4.0323,-3.9861,-3.8606,-3.8337,-3.7776,-3.6553,-3.6492,-3.6492,-3.6492,-3.6492,-3.6492,-3.6492,-3.6693,-3.6754,-3.6754,-3.7044,-3.727,-3.7449,-3.777,-3.8017,-3.8132,-3.8132,-3.8205,0.0,0.0,0.0,-3.7594,-3.7118,-3.7029,-3.721,-3.721,-3.7254,-3.7417,-3.7417,-3.7417,-3.7476,-3.7786,-3.8017,-3.8132,-3.796,-3.8017,-3.8075,-3.777,-3.777,-3.7786,-3.7476,-3.7433,-3.7389,-3.706,-3.7105,-3.721,-3.721,-3.7551,-3.779,-3.7438,-3.6798,-3.5943,-3.4743,-3.398,0.0,0.0,0.0,0.0,0.0,-3.3797,-3.3729,-3.3251,-3.3475,-3.3335,-3.2492,-3.2407,-3.2018,-3.1131,-3.1087,-3.0911,-3.0642,0.0,-3.0568,0.0,0.0,0.0,-3.1032,0.0,-3.1511,-3.1511,-3.1511,-3.1511,-3.1511,-3.1511,-3.1337,-3.1032,-3.1032,-3.0858,-3.0568,-3.0568,-3.0568,-3.0568,-3.0568,-3.0568,-3.0568,-3.0568,-3.0568,-3.0568,-3.3641,-3.3889,-3.4261,-3.4908,-3.5458,-3.6032,-3.6469,-3.8028,-3.9183,-3.9377,-3.9661,-4.0259,-4.1346,-4.1189,-4.0375,-3.9007,-3.8639,-3.7938,-3.6584,-3.6492,-3.6492,-3.6492,-3.6492,-3.6492,-3.6492,-3.6492,-3.6492,0.0,0.0,-3.6938,-3.6999,-3.7508,-3.7711,-3.777,0.0,0.0,0.0,0.0,-3.7105,-3.7254,-3.6723,-3.6693,-3.6877,-3.6877,-3.7029,-3.7178,-3.7178,-3.7178,-3.7178,-3.7178,-3.7476,-3.777,-3.746,-3.7594,-3.7711,-3.7417,-3.7373,-3.7358,-3.7238,-3.7089,-3.7015,-3.7015,-3.7015,-3.7121,-3.7417,-3.7653,-3.7828,-3.7886,-3.7084,-3.5895,-3.4313,-3.371,0.0,0.0,0.0,0.0,0.0,0.0,-3.3575,-3.3266,-3.3764,-3.3729,-3.2765,-3.3108,-3.2986,-3.1921,-3.1652,-3.1306,-3.0807,-3.0687,-3.0568,0.0,0.0,-3.0568,-3.0568,0.0,-3.0568,-3.0568,-3.0568,-3.0568,-3.0568,-3.0568,-3.0568,-3.0568,-3.0568,-3.0568,-3.0568,-3.0568,-3.0568,-3.0568,-3.0568,-3.0568,-3.0568,-3.0568,-3.0568,-3.0568,-3.3772,-3.4581,-3.5338,0.0,0.0,-3.7841,-3.8542,-3.9091,-3.9334,-3.9089,-4.0169,-4.0997,-4.1107,-4.0799,-3.9985,-3.8697,-3.8508,-3.7938,-3.6584,-3.6492,-3.6492,-3.6492,-3.6492,-3.6492,-3.6492,-3.6492,-3.6492,0.0,0.0,-3.6693,0.0,-3.706,-3.721,0.0,0.0,0.0,0.0,-3.7165,-3.6999,-3.6999,-3.6616,-3.6492,-3.6554,-3.6554,-3.6554,-3.66,-3.66,-3.66,-3.66,-3.66,-3.6952,-3.7417,-3.7417,-3.7417,-3.7358,-3.7105,-3.721,-3.7298,-3.6723,-3.68,-3.7015,-3.7015,-3.7015,-3.7181,-3.7711,-3.7653,-3.7519,-3.7828,-3.6416,-3.4638,-3.3295,-3.2749,-3.2617,0.0,0.0,0.0,0.0,0.0,-3.3607,-3.3346,-3.3745,-3.3949,-3.3591,-3.3832,-3.3748,-3.3077,-3.2074,-3.1495,-3.1422,-3.0925,-3.0568,-3.0568,-3.0568,-3.0568,-3.0568,-3.0568,-3.0568,-3.0568,-3.0568,-3.0568,-3.0568,-3.0568,-3.0568,-3.0568,-3.0568,-3.0568,-3.0568,-3.0568,-3.0568,-3.0568,-3.0568,-3.0568,-3.0568,-3.0568,-3.0568,-3.0568,0.0,0.0,0.0,0.0,0.0,0.0,0.0,-3.9745,-4.0031,-3.9941,-4.039,-4.073,-4.073,-4.0593,-3.9985,-3.8631,-3.8508,-3.7938,-3.6584,-3.6492,-3.6492,-3.6492,-3.6492,-3.6492,-3.6492,-3.6492,-3.6492,0.0,0.0,0.0,0.0,0.0,0.0,0.0,0.0,-3.7254,-3.7358,-3.6907,-3.6816,-3.6954,-3.6616,-3.6492,-3.6492,-3.6492,-3.6492,-3.6492,-3.6492,-3.6492,-3.6492,-3.6492,-3.68,-3.7089,-3.6892,-3.7029,-3.7105,-3.68,-3.68,-3.6785,-3.6554,-3.6754,-3.6938,-3.6754,-3.6968,-3.727,-3.7329,-3.7373,-3.7306,-3.6821,-3.5279,-3.3831,-3.329,-3.2927,-3.2648,-3.2594,0.0,0.0,0.0,0.0,-3.3256,-3.3309,-3.3642,-3.3797,-3.3694,-3.3949,-3.3984,-3.3764,-3.2986,-3.2226,-3.1537,-3.1263,-3.097,-3.0628,0.0,-3.0568,-3.0568,-3.0568,-3.0568,-3.0568,-3.0568,-3.0568,-3.0568,-3.0568,-3.0568,-3.0568,-3.0568,-3.0568,-3.0568,-3.0568,-3.0568,-3.0568,-3.0568,-3.0568,-3.0568,-3.0568,-3.0568,-3.0568,-3.6226,0.0,-3.7018,0.0,-3.8942,-3.9446,-3.9739,-4.0232,-4.0524,-4.0524,-4.0524,-4.0524,-4.0524,-4.0355,-3.977,-3.8616,-3.8323,-3.7723,-3.6569,-3.6492,-3.6492,-3.6492,-3.6492,0.0,-3.6492,-3.6492,-3.6492,-3.6492,-3.6492,0.0,0.0,0.0,0.0,0.0,-3.6923,-3.6984,-3.7134,-3.6662,-3.6631,-3.6816,-3.6631,-3.6492,-3.6492,-3.6492,-3.6492,-3.6492,-3.6492,-3.6492,-3.6492,-3.6492,-3.6693,-3.6816,-3.6554,-3.6693,-3.6816,-3.6554,-3.6492,-3.6492,-3.6492,-3.6677,-3.6816,-3.6677,-3.6968,-3.7254,-3.7165,-3.7053,-3.6629,-3.5443,-3.4249,-3.3336,-3.3136,-3.2903,-3.2648,-3.2453,0.0,0.0,0.0,-3.2843,0.0,-3.315,-3.3503,-3.3694,-3.3694,-3.3949,-3.4101,0.0,0.0,-3.2772,-3.1823,-3.1595,0.0,0.0,0.0,0.0,-3.0568,-3.0568,-3.0568,-3.0568,-3.0568,-3.0568,-3.0568,-3.0568,-3.0568,-3.0568,-3.0568,-3.0568,-3.0568,-3.0568,-3.0568,-3.0568,-3.0568,-3.0568,-3.0568,-3.0568,-3.0568,-3.0568,-3.7338,-3.8015,-3.8677,-3.937,-4.0062,-4.0509,-4.0524,-4.0524,-4.0524,-4.0524,-4.0524,-4.0524,-4.0524,-3.9939,-3.9262,-3.8569,-3.7892,-3.7215,-3.6538,-3.6492,-3.6492,0.0,0.0,-3.6492,-3.6492,-3.6492,-3.6492,-3.6492,0.0,0.0,-3.6492,0.0,-3.6492,-3.6492,-3.6492,-3.6492,-3.6492,-3.6492,-3.6492,-3.6492,-3.6492,-3.6492,-3.6492,-3.6492,-3.6492,-3.6492,-3.6492,-3.6492,-3.6492,-3.6492,-3.6492,-3.6492,-3.6492,-3.6492,-3.6492,-3.6492,-3.6492,-3.6492,-3.6492,-3.6492,-3.6554,-3.6877,-3.7015,-3.7044,-3.7373,-3.6644,-3.5416,-3.3763,-3.3413,-3.3198,-3.2521,-3.2398,-3.2398,-3.2398,0.0,0.0,0.0,-3.2703,0.0,-3.2897,-3.3361,-3.3694,-3.3694,-3.3949,-3.4101,0.0,0.0,0.0,0.0,0.0,0.0,-3.0642,-3.0568,0.0,-3.0568,-3.0568,-3.0568,-3.0568,-3.0568,-3.0568,-3.0568,-3.0568,-3.0568,-3.0568,-3.0568,-3.0568,-3.0568,-3.0568,-3.0568,-3.0568,-3.0568,-3.0568,-3.0568,-3.0568,-3.0568,-3.0568,-3.8739,-3.9046,-3.94,-4.0078,-4.0385,-4.0524,-4.0524,-4.0524,-4.0524,-4.0524,-4.0524,-4.0524,-4.0524,-3.9924,-3.9247,0.0,-3.7892,-3.7215,0.0,-3.6492,-3.6492,-3.6492,-3.6492,-3.6492,-3.6492,-3.6492,-3.6492,-3.6492,0.0,0.0,0.0,-3.6492,-3.6492,-3.6492,-3.6492,-3.6492,-3.6492,-3.6492,-3.6492,-3.6492,-3.6492,-3.6492,-3.6492,-3.6492,-3.6492,-3.6492,-3.6492,-3.6492,-3.6492,-3.6492,-3.6492,-3.6492,-3.6492,-3.6492,-3.6492,-3.6492,-3.6492,-3.6492,-3.6492,-3.6693,-3.6816,-3.6677,-3.6443,-3.6206,-3.6146,-3.5112,-3.4037,-3.349,-3.3044,-3.2644,-3.2428,-3.2398,-3.2398,-3.2398,-3.2398,0.0,-3.2398,0.0,-3.2897,-3.2897,-3.3346,-3.3694,-3.3694,-3.3949,0.0,0.0,0.0,0.0,0.0,0.0,0.0,0.0,-3.0568,0.0,-3.0568,-3.0568,-3.0568,-3.0568,-3.0568,-3.0568,-3.0568,-3.0568,-3.0568,-3.0568,-3.0568,-3.0568,-3.0568,-3.0568,-3.0568,-3.0568,-3.0568,-3.0568,-3.0568,-3.0568,-3.0568,-3.0568,-3.9816,-3.9893,-4.0031,-4.0462,-4.0524,-4.0524,-4.0524,-4.0524,-4.0524,-4.0524,-4.0524,-4.0524,-4.0524,-3.9693,0.0,-3.8554,-3.7661,-3.6953,-3.6522,-3.6492,-3.6492,-3.6492,-3.6492,-3.6492,-3.6492,-3.6492,0.0,-3.6492,-3.6492,-3.6492,-3.6492,-3.6492,-3.6492,-3.6492,-3.6492,-3.6492,-3.6492,-3.6492,-3.6492,-3.6492,-3.6492,-3.6492,-3.6492,-3.6492,-3.6492,-3.6492,-3.6492,-3.6492,-3.6492,-3.6492,-3.6492,-3.6492,-3.6492,-3.6322,-3.6153,-3.6415,-3.6492,-3.6492,-3.6492,-3.6616,-3.6693,-3.6245,-3.5966,-3.5561,-3.4873,-3.4029,-3.3336,-3.3075,-3.269,-3.2398,-3.2398,-3.2398,-3.2398,-3.2398,-3.2398,-3.2398,-3.2398,0.0,-3.2951,0.0,0.0,0.0,0.0,-3.3949,-3.405,0.0,0.0,0.0,0.0,0.0,0.0,-3.0642,-3.0568,-3.0568,-3.0568,-3.0568,-3.0568,-3.0568,-3.0568,-3.0568,-3.0568,-3.0568,-3.0568,-3.0568,-3.0568,-3.0568,-3.0568,-3.0568,-3.0568,-3.0568,-3.0568,-3.0568,-3.0568,-3.0568,-3.0568,-3.0568,-4.0524,-4.0524,-4.0524,-4.0524,-4.0524,-4.0524,-4.0524,-4.0524,-4.0524,-4.0524,-4.0524,-4.0509,-4.0462,-3.9293,-3.8492,-3.8446,0.0,0.0,-3.6492,-3.6492,-3.6492,-3.6492,-3.6492,-3.6492,-3.6492,-3.6492,-3.6492,-3.6492,-3.6492,-3.6492,-3.6492,-3.6492,-3.6492,-3.6492,-3.6492,-3.6492,-3.6492,-3.6492,-3.6492,-3.6492,-3.6492,-3.6492,-3.6492,-3.6492,-3.6492,-3.6492,-3.6492,-3.6492,-3.6492,-3.6492,-3.6492,-3.6476,-3.6445,-3.5984,-3.5599,-3.6245,-3.6384,-3.6353,-3.6353,-3.6353,-3.6199,-3.5568,-3.5368,-3.4983,-3.3644,-3.3336,-3.3152,-3.2521,-3.2398,-3.2398,-3.2398,-3.2398,-3.2398,-3.2398,-3.2398,-3.2398,-3.2398,-3.2703,-3.3005,0.0,0.0,0.0,-3.3642,-3.3899,-3.3949,0.0,0.0,0.0,0.0,0.0,-3.1879,-3.0687,-3.0628,-3.0568,-3.0568,-3.0568,-3.0568,-3.0568,-3.0568,-3.0568,-3.0568,-3.0568,-3.0568,-3.0568,-3.0568,-3.0568,-3.0568,-3.0568,-3.0568,-3.0568,-3.0568,-3.0568,-3.0568,-3.0568,-3.0568,-3.0568,0.0,0.0,-4.0524,-4.0524,-4.0524,-4.0524,-4.0524,-4.0524,-4.0524,-4.0524,-4.0524,-4.0339,-3.9816,-3.9016,-3.8308,-3.7784,-3.6969,-3.6492,-3.6492,-3.6492,-3.6492,-3.6492,-3.6492,-3.6492,-3.6492,-3.6492,-3.6492,-3.6492,-3.6492,-3.6492,-3.6492,-3.6492,-3.6492,-3.6492,-3.6492,-3.6492,-3.6492,-3.6492,-3.6492,-3.6492,-3.6492,-3.6492,-3.6492,-3.6492,-3.6492,-3.6492,-3.6492,-3.6492,-3.6492,-3.6492,-3.6492,-3.6399,-3.5891,-3.5614,-3.5507,-3.5676,-3.5353,-3.4953,-3.4953,-3.4953,-3.4922,-3.4752,-3.4291,-3.3675,-3.2829,-3.2628,-3.2582,-3.2428,-3.2398,-3.2398,-3.2398,-3.2398,-3.2398,-3.2398,-3.2398,-3.2398,-3.2398,-3.2703,-3.2897,0.0,-3.3256,-3.3398,-3.3398,-3.345,-3.345,0.0,0.0,-3.3403,-3.2895,-3.3002,-3.2501,-3.1306,-3.0866,-3.0568,-3.0568,-3.0568,-3.0568,-3.0568,-3.0568,-3.0568,-3.0568,-3.0568,-3.0568,-3.0568,-3.0568,-3.0568,-3.0568,-3.0568,-3.0568,-3.0568,-3.0568,-3.0568,-3.0568,-3.0568,-3.0568,-3.0568,-4.0524,-4.0524,-4.0524,-4.0524,-4.0524,-4.0524,-4.0524,-4.0524,-4.0524,-4.0524,-4.0524,-4.0262,-3.9585,-3.8908,-3.8231,-3.7569,-3.6892,-3.6492,-3.6492,-3.6492,-3.6492,-3.6492,-3.6492,-3.6492,-3.6492,-3.6492,-3.6492,-3.6492,-3.6492,-3.6492,-3.6492,-3.6492,-3.6492,-3.6492,-3.6492,-3.6492,-3.6492,-3.6492,-3.6492,-3.6492,-3.6492,-3.6492,-3.6492,-3.6492,-3.6492,-3.6492,-3.6492,-3.6492,-3.6492,-3.6492,-3.6292,-3.5968,-3.5599,-3.5045,-3.4537,-3.4537,-3.4506,-3.4475,-3.4475,-3.4475,-3.4398,-3.406,-3.346,-3.2844,-3.2475,-3.2398,-3.2398,-3.2398,-3.2398,-3.2398,-3.2398,-3.2398,-3.2398,-3.2398,-3.2398,-3.2398,-3.2398,-3.2703,-3.2897,-3.2897,-3.315,-3.3256,-3.3096,-3.3203,-3.3256,-3.3096,-3.3361,0.0,-3.3049,-3.268,-3.2226,-3.1537,-3.1204,-3.0866,-3.0568,-3.0568,-3.0568,-3.0568,-3.0568,-3.0568,-3.0568,-3.0568,-3.0568,-3.0568,-3.0568,-3.0568,-3.0568,-3.0568,-3.0568,-3.0568,-3.0568,-3.0747,-3.1029,-3.1029,-3.1204,-3.1422,-4.0524,-4.0524,-4.0524,-4.0524,-4.0524,-4.0524,-4.0524,-4.0524,-4.0524,-4.0524,-4.0432,-4.0108,-3.9447,-3.8769,-3.8077,-3.7415,-3.683,-3.6492,-3.6492,-3.6492,-3.6492,-3.6492,-3.6492,-3.6492,-3.6492,-3.6492,-3.6492,-3.6492,-3.6492,-3.6492,-3.6492,-3.6492,-3.6492,-3.6492,-3.6492,-3.6492,-3.6492,-3.6492,-3.6492,-3.6492,-3.6492,-3.6492,-3.6492,-3.6492,-3.6492,-3.6492,-3.6492,-3.6492,-3.6476,-3.6368,-3.5953,-3.5445,-3.523,-3.4352,-3.3383,-3.3275,-3.3675,-3.4152,-3.4152,-3.4152,-3.4014,-3.3398,-3.2813,-3.2398,-3.2398,-3.2398,-3.2398,-3.2398,-3.2398,-3.2398,-3.2398,-3.2398,-3.2398,-3.2398,-3.2398,-3.2398,-3.2398,0.0,-3.2843,-3.2843,-3.3043,-3.3081,-3.2843,-3.3043,-3.3096,-3.2843,-3.3096,-3.3256,-3.3256,-3.2437,-3.1864,-3.1709,-3.1422,-3.1087,-3.0628,-3.0568,-3.0568,-3.0568,-3.0568,-3.0628,-3.0747,-3.0628,-3.0628,-3.0747,-3.0628,-3.0568,-3.0628,-3.0687,-3.0747,-3.0747,-3.0866,-3.1204,-3.1652,-3.1652,-3.1936,-3.2398,-4.0524,-4.0524,-4.0524,-4.0524,-4.0524,-4.0524,-4.0524,-4.0524,-4.0524,-4.0524,-4.0031,-3.9416,-3.8739,-3.8061,-3.7384,-3.6707,-3.6553,-3.6492,-3.6492,-3.6492,-3.6492,-3.6492,-3.6492,-3.6492,-3.6492,-3.6492,-3.6492,-3.6492,-3.6492,-3.6492,-3.6492,-3.6492,-3.6492,-3.6492,-3.6492,-3.6492,-3.6492,-3.6492,-3.6492,-3.6492,-3.6492,-3.6492,-3.6492,-3.6492,-3.6492,-3.6492,-3.6492,-3.6492,-3.6399,-3.583,-3.5568,-3.5276,-3.4091,-3.3583,-3.329,-3.2721,-3.2628,-3.2721,-3.2721,-3.2721,-3.269,-3.2567,-3.2475,-3.2398,-3.2398,-3.2398,-3.2398,-3.2398,-3.2398,-3.2398,-3.2398,-3.2398,-3.2398,-3.2398,-3.2398,-3.2398,-3.2398,0.0,-3.2453,-3.2453,-3.2508,-3.2508,-3.2453,-3.2508,-3.2508,-3.2453,-3.2773,-3.2951,-3.2951,-3.3027,-3.2888,-3.2625,-3.1218,-3.0493,-3.0568,-3.0568,-3.0568,-3.0568,-3.0568,-3.0866,-3.1364,-3.0807,-3.0866,-3.1321,-3.0807,-3.0568,-3.0628,-3.1146,-3.1364,-3.1422,-3.1936,-3.216,-3.2272,-3.2272,-3.2342,-3.2398,-4.0524,-4.0524,-4.0524,-4.0524,-4.0524,-4.0524,-4.0524,-4.0524,-4.0401,-4.0031,-3.9708,-3.9123,-3.8077,-3.7692,-3.723,-3.6553,-3.6492,-3.6492,-3.6492,-3.6492,-3.6492,-3.6492,-3.6492,-3.6492,-3.6492,-3.6492,-3.6492,-3.6492,-3.6492,-3.6492,-3.6492,-3.6492,-3.6492,-3.6492,-3.6492,-3.6492,-3.6492,-3.6492,-3.6492,-3.6492,-3.6492,-3.6492,-3.6492,-3.6492,-3.6492,-3.6492,-3.6492,-3.6261,-3.5891,-3.5584,-3.4983,-3.4245,-3.3598,-3.3152,-3.2798,-3.249,-3.2398,-3.2398,-3.2398,-3.2398,-3.2398,-3.2398,-3.2398,-3.2398,-3.2398,-3.2398,-3.2398,-3.2398,-3.2398,-3.2398,-3.2398,-3.2398,-3.2398,-3.2398,-3.2398,0.0,-3.2398,-3.2398,-3.2398,-3.2398,-3.2398,-3.2398,-3.2398,-3.2398,-3.2398,-3.2398,-3.2718,-3.2897,-3.2897,-3.2904,-3.2873,-3.2788,-3.1905,-3.1248,-3.0807,-3.097,-3.0911,-3.0568,-3.0568,-3.0747,-3.1029,-3.0747,-3.0911,-3.148,-3.1204,-3.1263,-3.1595,-3.1879,-3.1992,-3.1992,-3.2272,-3.2602,-3.2841,-3.2841,-3.3018,-3.3298,-4.0524,-4.0524,-4.0524,-4.0524,-4.0524,-4.0524,-4.0524,-4.0401,-4.0108,-3.9585,-3.9247,-3.8646,-3.7615,-3.7353,-3.7061,-3.6538,-3.6492,-3.6492,-3.6492,-3.6492,-3.6492,-3.6492,-3.6492,-3.6492,-3.6492,-3.6492,-3.6492,-3.6492,-3.6492,-3.6492,-3.6492,-3.6492,-3.6492,-3.6492,-3.6492,-3.6492,-3.6492,-3.6492,-3.6492,-3.6492,-3.6492,-3.6492,-3.6492,-3.6492,-3.6492,-3.6492,-3.6492,-3.6061,-3.546,-3.5306,-3.4429,-3.3367,-3.3213,-3.2813,-3.2398,-3.2398,-3.2398,-3.2398,-3.2398,-3.2398,-3.2398,-3.2398,-3.2398,-3.2398,-3.2398,-3.2398,-3.2398,-3.2398,-3.2398,-3.2398,-3.2398,-3.2398,-3.2398,-3.2398,0.0,-3.2398,-3.2398,-3.2398,-3.2398,-3.2398,-3.2398,-3.2398,-3.2398,-3.2398,-3.2398,-3.2398,-3.2648,-3.2773,-3.2773,-3.2617,-3.2586,-3.2695,-3.2382,-3.1936,-3.1306,-3.1306,-3.1146,-3.0807,-3.0807,-3.0851,-3.1029,-3.1029,-3.1364,-3.1921,-3.1751,-3.1992,-3.2398,-3.2547,-3.2602,-3.2586,-3.2765,-3.3071,-3.3407,-3.3407,-3.3697,-3.4101,-4.0524,-4.0524,-4.0524,-4.0524,-4.0524,-4.0524,-4.0524,-4.0001,-3.957,-3.9524,-3.8431,-3.7615,-3.7507,-3.6953,-3.6538,-3.6492,-3.6492,-3.6492,-3.6492,-3.6492,-3.6492,-3.6492,-3.6492,-3.6492,-3.6492,-3.6492,-3.6492,-3.6492,-3.6492,-3.6492,-3.6492,-3.6492,-3.6492,-3.6492,-3.6492,-3.6492,-3.6492,-3.6492,-3.6492,-3.6492,-3.6492,-3.6492,-3.6492,-3.6492,-3.6492,-3.6492,-3.6492,-3.6061,-3.5383,-3.4752,-3.4044,-3.329,-3.2675,-3.2428,-3.2398,-3.2398,-3.2398,-3.2398,-3.2398,-3.2398,-3.2398,-3.2398,-3.2398,-3.2398,-3.2398,-3.2398,-3.2398,-3.2398,-3.2398,-3.2398,-3.2398,-3.2398,-3.2398,-3.2398,0.0,0.0,-3.2398,-3.2398,-3.2398,-3.2398,-3.2398,-3.2398,-3.2398,-3.2398,-3.2398,-3.2398,-3.2398,-3.2453,-3.2453,-3.2453,-3.2453,-3.2453,-3.1879,-3.1823,-3.2272,-3.1204,-3.0911,-3.1422,-3.1422,-3.1709,-3.2287,-3.2287,-3.2586,-3.3039,-3.2532,-3.2342,-3.2437,-3.2949,-3.3145,-3.3198,-3.3764,-3.3984,-3.4034,-3.4034,-3.405,-3.4101,-4.0524,-4.0524,-4.0524,-4.0524,-4.0524,-4.0385,-3.9955,-3.9677,-3.9216,-3.8369,-3.7815,-3.7338,-3.6923,-3.6645,-3.6492,-3.6492,-3.6492,-3.6492,-3.6492,-3.6492,-3.6492,-3.6492,-3.6492,-3.6492,-3.6492,-3.6492,-3.6492,-3.6492,-3.6492,-3.6492,-3.6492,-3.6492,-3.6492,-3.6492,-3.6492,-3.6492,-3.6492,-3.6492,-3.6492,-3.6492,-3.6492,-3.6492,-3.6492,-3.6492,-3.6492,-3.6492,-3.6492,-3.5784,-3.4814,-3.4568,-3.3721,-3.2736,-3.2475,-3.2398,-3.2398,-3.2398,-3.2398,-3.2398,-3.2398,-3.2398,-3.2398,-3.2398,-3.2398,-3.2398,-3.2398,-3.2398,-3.2398,-3.2398,-3.2398,-3.2398,-3.2398,-3.2398,-3.2398,-3.2398,0.0,-3.2398,-3.2398,-3.2398,-3.2398,-3.2398,-3.2398,-3.2398,-3.2398,-3.2398,-3.2398,-3.2398,-3.2578,-3.2757,-3.2958,-3.3261,-3.3455,-3.3455,-3.2895,-3.2516,-3.2398,-3.2296,-3.217,-3.2048,-3.2048,-3.216,-3.2398,-3.2398,-3.2695,-3.3198,-3.2986,-3.3124,-3.3455,-3.3646,-3.3764,-3.3764,-3.3984,-3.4101,-3.4101,-3.4101,-3.4101,-3.4101,-4.0524,-4.0524,-4.0524,-4.0524,-4.0355,-4.0047,-3.9585,-3.9154,-3.8554,-3.7631,-3.7323,-3.7015,-3.6538,-3.6492,-3.6492,-3.6492,-3.6492,-3.6492,-3.6492,-3.6492,-3.6492,-3.6492,-3.6492,-3.6492,-3.6492,-3.6492,-3.6492,-3.6492,-3.6492,-3.6492,-3.6492,-3.6492,-3.6492,-3.6492,-3.6492,-3.6492,-3.6492,-3.6492,-3.6492,-3.6492,-3.6492,-3.6492,-3.6492,-3.6492,-3.6492,-3.6461,-3.6245,-3.5445,-3.4429,-3.4214,-3.3352,-3.2398,-3.2398,-3.2398,-3.2398,-3.2398,-3.2398,-3.2398,-3.2398,-3.2398,-3.2398,-3.2398,-3.2398,-3.2398,-3.2398,-3.2398,-3.2398,-3.2398,-3.2398,-3.2398,-3.2398,-3.2398,-3.2398,-3.2398,-3.2398,-3.2398,-3.2398,-3.2398,-3.2398,-3.2398,-3.2398,-3.2398,-3.2398,-3.2398,-3.2398,-3.2398,-3.2718,-3.3005,-3.315,-3.3503,-3.3694,-3.3694,-3.3403,-3.3087,-3.2834,-3.2895,-3.2841,-3.2641,-3.2641,-3.2641,-3.2641,-3.2873,-3.3124,-3.3475,-3.3475,-3.3697,-3.4101,-3.4101,-3.4101,-3.4101,-3.4101,-3.4101,-3.4101,-3.4101,-3.4101,-3.4101,-4.0524,-4.0524,-4.0524,-4.0524,-3.9955,-3.9524,-3.9508,-3.8354,-3.7507,-3.7492,-3.6907,-3.6492,-3.6492,-3.6492,-3.6492,-3.6492,-3.6492,-3.6492,-3.6492,-3.6492,-3.6492,-3.6492,-3.6492,-3.6492,-3.6492,-3.6492,-3.6492,-3.6492,-3.6492,-3.6492,-3.6492,-3.6492,-3.6492,-3.6492,-3.6492,-3.6492,-3.6492,-3.6492,-3.6492,-3.6492,-3.6492,-3.6492,-3.6492,-3.6492,-3.6492,-3.6399,-3.5722,-3.5045,-3.4352,-3.3644,-3.2952,-3.2398,-3.2398,-3.2398,-3.2398,-3.2398,-3.2398,-3.2398,-3.2398,-3.2398,-3.2398,-3.2398,-3.2398,-3.2398,-3.2398,-3.2398,-3.2398,-3.2398,-3.2398,-3.2398,-3.2398,-3.2398,-3.2398,-3.2398,-3.2398,-3.2398,-3.2398,-3.2398,-3.2398,-3.2398,-3.2398,-3.2398,-3.2398,-3.2398,-3.2398,-3.2398,-3.2718,-3.2897,-3.2897,-3.2897,-3.2897,-3.2897,-3.315,-3.345,-3.3694,-3.2834,-3.2695,-3.3198,-3.3198,-3.3198,-3.3251,-3.3815,-3.4101,-3.4101,-3.4101,-3.4101,-3.4101,-3.4101,-3.4101,-3.4101,-3.4101,-3.4101,-3.4101,-3.4101,-3.4101,-3.4101,-4.0401,-4.047,-4.037,-3.9893,-3.9647,-3.92,-3.8246,-3.7769,-3.7323,-3.6861,-3.6474,-3.6274,-3.6274,-3.6226,-3.6163,-3.6163,-3.6226,-3.6274,-3.6274,-3.6274,-3.6289,-3.6163,-3.6367,-3.6492,-3.6492,-3.6492,-3.6492,-3.6492,-3.6492,-3.6492,-3.6492,-3.6492,-3.6492,-3.6492,-3.6492,-3.6492,-3.6492,-3.6492,-3.6492,-3.6492,-3.6492,-3.6492,-3.6492,-3.6492,-3.6199,-3.5753,-3.5553,-3.4722,-3.369,-3.3475,-3.2952,-3.2398,-3.2398,-3.2398,-3.2398,-3.2398,-3.2398,-3.2398,-3.2398,-3.2398,-3.2398,-3.2398,-3.2398,-3.2398,-3.2398,-3.2398,-3.2398,-3.2398,-3.2398,-3.2398,-3.2398,-3.2398,-3.2398,-3.2398,-3.2398,-3.2398,-3.2398,-3.2398,-3.2398,-3.2398,-3.2398,-3.2398,-3.2398,-3.2398,-3.2398,-3.2398,-3.2718,-3.2897,-3.2897,-3.3112,-3.3203,-3.3203,-3.3256,-3.3346,-3.3398,-3.3523,-3.3662,-3.3815,-3.3815,-3.3815,-3.3815,-3.4034,-3.4101,-3.4101,-3.4101,-3.4101,-3.4101,-3.4101,-3.4101,-3.4101,-3.4101,-3.4101,-3.4101,-3.4101,-3.4101,-3.4101,-3.9398,-3.9467,-3.9382,-3.8984,-3.8693,-3.8249,-3.7437,-3.7085,-3.6748,-3.635,-3.6226,-3.6148,-3.6148,-3.6037,-3.5973,-3.5973,-3.6085,-3.6148,-3.6148,-3.6148,-3.6085,-3.5973,-3.6163,-3.6304,-3.6304,-3.6304,-3.6304,-3.6304,-3.6352,-3.6352,-3.6352,-3.6492,-3.6492,-3.6492,-3.6492,-3.6492,-3.6492,-3.6492,-3.6492,-3.6492,-3.6492,-3.6492,-3.6461,-3.6199,-3.583,-3.5414,-3.486,-3.4121,-3.3367,-3.309,-3.2736,-3.2398,-3.2398,-3.2398,-3.2398,-3.2398,-3.2398,-3.2398,-3.2398,-3.2398,-3.2398,-3.2398,-3.2398,-3.2398,-3.2398,-3.2398,-3.2398,-3.2398,-3.2398,-3.2398,-3.2398,-3.2398,-3.2398,-3.2398,-3.2398,-3.2398,-3.2398,-3.2398,-3.2398,-3.2398,-3.2398,-3.2398,-3.2398,-3.2398,-3.2453,-3.2578,-3.2773,-3.2897,-3.2897,-3.3058,-3.315,-3.315,-3.315,-3.3203,-3.3309,-3.3607,-3.3848,-3.3949,-3.405,-3.4101,-3.4101,-3.4101,-3.4101,-3.4101,-3.4101,-3.4101,-3.4101,-3.4101,-3.4101,-3.4101,-3.4101,-3.4101,-3.4101,-3.4101,-3.4101,-3.4101,-3.7962,-3.7962,-3.8013,-3.7886,-3.7436,-3.6945,-3.6899,-3.6368,-3.5973,-3.5973,-3.5973,-3.5973,-3.5973,-3.5973,-3.5973,-3.5973,-3.5973,-3.5973,-3.5973,-3.5973,-3.5973,-3.5973,-3.5973,-3.5973,-3.5973,-3.5973,-3.5973,-3.5973,-3.6148,-3.6211,-3.6211,-3.6352,-3.6429,-3.6429,-3.6429,-3.6429,-3.6429,-3.6492,-3.6492,-3.6492,-3.6492,-3.6445,-3.6338,-3.5722,-3.5399,-3.5122,-3.386,-3.3367,-3.3213,-3.2598,-3.2398,-3.2398,-3.2398,-3.2398,-3.2398,-3.2398,-3.2398,-3.2398,-3.2398,-3.2398,-3.2398,-3.2398,-3.2398,-3.2398,-3.2398,-3.2398,-3.2398,-3.2398,-3.2398,-3.2398,-3.2398,-3.2398,-3.2398,-3.2398,-3.2398,-3.2398,-3.2398,-3.2398,-3.2398,-3.2398,-3.2398,-3.2398,-3.2398,-3.2398,-3.2523,-3.2843,-3.2843,-3.2843,-3.2843,-3.2843,-3.2843,-3.2843,-3.2843,-3.3005,-3.3256,-3.3245,-3.3335,-3.3658,-3.3949,-3.4018,-3.3953,-3.4003,-3.3971,-3.3906,-3.3906,-3.3906,-3.3906,-3.3906,-3.3906,-3.3906,-3.3906,-3.3906,-3.3906,-3.3906,-3.3906,-3.3906,-3.7775,-3.7895,-3.7795,-3.7279,-3.7066,-3.6793,-3.6277,-3.6064,-3.5973,-3.5973,-3.5831,-3.5752,-3.5752,-3.5668,-3.5619,-3.5619,-3.5718,-3.5752,-3.5752,-3.5752,-3.5718,-3.5619,-3.5619,-3.5619,-3.5619,-3.5861,-3.5973,-3.5973,-3.6037,-3.6022,-3.6022,-3.61,-3.61,-3.61,-3.61,-3.61,-3.61,-3.6211,-3.6274,-3.6274,-3.6414,-3.6184,-3.5691,-3.5537,-3.4814,-3.3814,-3.3506,-3.3059,-3.2582,-3.2444,-3.2398,-3.2398,-3.2398,-3.2398,-3.2398,-3.2398,-3.2398,-3.2398,-3.2398,-3.2398,-3.2398,-3.2398,-3.2398,-3.2398,-3.2398,-3.2398,-3.2398,-3.2398,-3.2398,-3.2398,-3.2398,-3.2398,-3.2398,-3.2398,-3.2398,-3.2398,-3.2398,-3.2398,-3.2398,-3.2398,-3.2398,-3.2398,-3.2398,-3.2398,-3.2453,-3.2523,-3.2523,-3.2523,-3.2523,-3.2523,-3.2523,-3.2523,-3.2523,-3.2633,-3.3005,-3.2599,-3.2756,-3.3398,-3.3658,-3.3508,-3.2912,-3.3193,-3.3,-3.2465,-3.2465,-3.2465,-3.2465,-3.2465,-3.2465,-3.2465,-3.2465,-3.2465,-3.2465,-3.2465,-3.2465,-3.2465,-3.664,-3.6721,-3.6733,-3.6321,-3.6245,-3.614,-3.5793,-3.5733,-3.5733,-3.5733,-3.5668,-3.5589,-3.5589,-3.5554,-3.5504,-3.5504,-3.5539,-3.5589,-3.5589,-3.5589,-3.5539,-3.5504,-3.5504,-3.5504,-3.5504,-3.5683,-3.5733,-3.5733,-3.5846,-3.5894,-3.5973,-3.61,-3.6163,-3.6226,-3.6226,-3.6226,-3.6226,-3.6289,-3.6352,-3.6321,-3.6138,-3.5799,-3.5414,-3.4737,-3.4044,-3.3367,-3.3044,-3.269,-3.2398,-3.2398,-3.2398,-3.2398,-3.2398,-3.2398,-3.2398,-3.2398,-3.2398,-3.2398,-3.2398,-3.2398,-3.2398,-3.2398,-3.2398,-3.2398,-3.2398,-3.2398,-3.2398,-3.2398,-3.2398,-3.2398,-3.2398,-3.2398,-3.2398,-3.2398,-3.2398,-3.2398,-3.2398,-3.2398,-3.2398,-3.2398,-3.2398,-3.2398,-3.2398,-3.2398,-3.2398,-3.2398,-3.2398,-3.2398,-3.2398,-3.2398,-3.2398,-3.2398,-3.2074,-3.2029,-3.2168,-3.1732,-3.173,-3.2091,-3.2652,-3.2658,-3.2305,-3.2514,-3.2368,-3.2012,-3.2012,-3.2012,-3.2012,-3.2012,-3.2012,-3.2012,-3.2012,-3.2012,-3.2012,-3.2012,-3.2012,-3.2012,-3.5504,-3.5504,-3.5504,-3.5504,-3.5504,-3.5504,-3.5504,-3.5504,-3.5504,-3.5504,-3.5504,-3.5504,-3.5504,-3.5504,-3.5504,-3.5504,-3.5504,-3.5504,-3.5504,-3.5504,-3.5504,-3.5504,-3.5504,-3.5504,-3.5504,-3.5504,-3.5504,-3.5504,-3.5589,-3.5767,-3.5925,-3.6037,-3.6163,-3.6304,-3.6352,-3.6352,-3.6367,-3.6414,-3.6352,-3.6199,-3.5707,-3.5337,-3.4999,-3.3844,-3.3336,-3.3167,-3.2598,-3.2398,-3.2398,-3.2398,-3.2398,-3.2398,-3.2398,-3.2398,-3.2398,-3.2398,-3.2398,-3.2398,-3.2398,-3.2398,-3.2398,-3.2398,-3.2398,-3.2398,-3.2398,-3.2398,-3.2398,-3.2398,-3.2398,-3.2398,-3.2398,-3.2398,-3.2398,-3.2398,-3.2398,-3.2398,-3.2398,-3.2398,-3.2398,-3.2398,-3.2398,-3.2398,-3.2398,-3.2398,-3.2398,-3.2398,-3.2398,-3.2398,-3.2398,-3.2275,-3.2213,-3.2213,-3.1567,-3.1266,-3.1319,-3.0861,-3.0635,-3.072,-3.1246,-3.1611,-3.1771,-3.1771,-3.1753,-3.1639,-3.1639,-3.1639,-3.1639,-3.1639,-3.1639,-3.1639,-3.1639,-3.1639,-3.1639,-3.1639,-3.1639,-3.1639,-3.5504,-3.5504,-3.5504,-3.5504,-3.5504,-3.5504,-3.5504,-3.5504,-3.5504,-3.5504,-3.5504,-3.5504,-3.5504,-3.5504,-3.5504,-3.5504,-3.5504,-3.5504,-3.5504,-3.5504,-3.5504,-3.5504,-3.5504,-3.5504,-3.5504,-3.5504,-3.5504,-3.5504,-3.5504,-3.5554,-3.5569,-3.5569,-3.5619,-3.5619,-3.5782,-3.5816,-3.5816,-3.6148,-3.5937,-3.5401,-3.5446,-3.4752,-3.366,-3.3475,-3.3044,-3.2521,-3.2428,-3.2398,-3.2398,-3.2398,-3.2398,-3.2398,-3.2398,-3.2398,-3.2398,-3.2398,-3.2398,-3.2398,-3.2398,-3.2398,-3.2398,-3.2398,-3.2398,-3.2398,-3.2398,-3.2398,-3.2398,-3.2398,-3.2398,-3.2398,-3.2398,-3.2398,-3.2398,-3.2398,-3.2398,-3.2398,-3.2398,-3.2398,-3.2398,-3.2398,-3.2398,-3.2398,-3.2398,-3.2398,-3.2398,-3.2398,-3.2398,-3.2398,-3.2398,-3.1844,-3.152,-3.152,-3.0889,-3.0655,-3.0881,-3.0226,-3.0047,-3.0258,-2.9753,-2.9909,-3.0717,-3.0919,-3.0733,-3.0194,-3.0194,-3.0194,-3.0194,-3.0194,-3.0194,-3.0194,-3.0194,-3.0194,-3.0194,-3.0194,-3.0194,-3.0194,-3.5504,-3.5504,-3.5504,-3.5504,-3.5504,-3.5504,-3.5504,-3.5504,-3.5504,-3.5504,-3.5504,-3.5504,-3.5504,-3.5504,-3.5504,-3.5504,-3.5504,-3.5504,-3.5504,-3.5504,-3.5504,-3.5504,-3.5504,-3.5504,-3.5504,-3.5504,-3.5504,-3.5504,-3.5504,-3.5554,-3.5589,-3.5589,-3.5668,-3.5797,-3.5846,-3.5894,-3.5864,-3.5626,-3.5354,-3.5034,-3.4467,-3.3851,-3.3253,-3.2926,-3.2659,-3.2398,-3.2398,-3.2398,-3.2398,-3.2398,-3.2398,-3.2398,-3.2398,-3.2398,-3.2398,-3.2398,-3.2398,-3.2398,-3.2398,-3.2398,-3.2398,-3.2398,-3.2398,-3.2398,-3.2398,-3.2398,-3.2398,-3.2398,-3.2398,-3.2398,-3.2398,-3.2398,-3.2398,-3.2398,-3.2398,-3.2398,-3.2398,-3.2398,-3.2398,-3.2398,-3.2398,-3.2398,-3.2398,-3.2398,-3.2398,-3.2398,-3.2398,-3.2228,-3.1844,-3.1551,-3.1228,-3.0859,-3.0212,-2.996,-3.0245,-2.972,-2.9548,-2.9812,-2.9646,-2.9691,-2.9934,-3.0087,-3.0061,-2.9918,-2.9918,-2.9918,-2.9918,-2.9918,-2.9918,-2.9918,-2.9918,-2.9918,-2.9918,-2.9918,-2.9918,-2.9918]}]]